<?xml version='1.0' encoding='UTF-8'?>
<gpx version="1.1" creator="https://www.komoot.de" xmlns="http://www.topografix.com/GPX/1/1" xmlns:xsi="http://www.w3.org/2001/XMLSchema-instance" xsi:schemaLocation="http://www.topografix.com/GPX/1/1 http://www.topografix.com/GPX/1/1/gpx.xsd">
  <metadata>
    <name>Hochoetz - Runde</name>
    <author>
      <link href="https://www.komoot.de">
        <text>komoot</text>
        <type>text/html</type>
      </link>
    </author>
  </metadata>
  <trk>
    <name>Hochoetz - Runde</name>
    <type>e_mtb</type>
    <trkseg>
      <trkpt lat="47.202162" lon="10.897920">
        <ele>782.454315</ele>
        <time>2026-07-21T11:50:42.217Z</time>
      </trkpt>
      <trkpt lat="47.202234" lon="10.898036">
        <ele>782.454315</ele>
        <time>2026-07-21T11:50:47.989Z</time>
      </trkpt>
      <trkpt lat="47.202300" lon="10.898145">
        <ele>782.454315</ele>
        <time>2026-07-21T11:50:52.983Z</time>
      </trkpt>
      <trkpt lat="47.202364" lon="10.898275">
        <ele>782.454315</ele>
        <time>2026-07-21T11:50:56.983Z</time>
      </trkpt>
      <trkpt lat="47.202430" lon="10.898387">
        <ele>782.454315</ele>
        <time>2026-07-21T11:51:00.981Z</time>
      </trkpt>
      <trkpt lat="47.202474" lon="10.898507">
        <ele>782.454315</ele>
        <time>2026-07-21T11:51:05.983Z</time>
      </trkpt>
      <trkpt lat="47.202502" lon="10.898635">
        <ele>782.454315</ele>
        <time>2026-07-21T11:51:10.984Z</time>
      </trkpt>
      <trkpt lat="47.202436" lon="10.898725">
        <ele>782.454315</ele>
        <time>2026-07-21T11:51:16.985Z</time>
      </trkpt>
      <trkpt lat="47.202375" lon="10.898868">
        <ele>782.454315</ele>
        <time>2026-07-21T11:51:20.980Z</time>
      </trkpt>
      <trkpt lat="47.202281" lon="10.898980">
        <ele>782.560119</ele>
        <time>2026-07-21T11:51:23.983Z</time>
      </trkpt>
      <trkpt lat="47.202164" lon="10.899076">
        <ele>783.103915</ele>
        <time>2026-07-21T11:51:26.986Z</time>
      </trkpt>
      <trkpt lat="47.202085" lon="10.899141">
        <ele>783.471335</ele>
        <time>2026-07-21T11:51:28.982Z</time>
      </trkpt>
      <trkpt lat="47.202006" lon="10.899205">
        <ele>783.837418</ele>
        <time>2026-07-21T11:51:30.983Z</time>
      </trkpt>
      <trkpt lat="47.201889" lon="10.899286">
        <ele>784.362315</ele>
        <time>2026-07-21T11:51:33.982Z</time>
      </trkpt>
      <trkpt lat="47.201772" lon="10.899300">
        <ele>784.838859</ele>
        <time>2026-07-21T11:51:36.982Z</time>
      </trkpt>
      <trkpt lat="47.201679" lon="10.899311">
        <ele>785.217623</ele>
        <time>2026-07-21T11:51:38.982Z</time>
      </trkpt>
      <trkpt lat="47.201590" lon="10.899452">
        <ele>785.748463</ele>
        <time>2026-07-21T11:51:41.984Z</time>
      </trkpt>
      <trkpt lat="47.201625" lon="10.899632">
        <ele>786.264871</ele>
        <time>2026-07-21T11:51:44.983Z</time>
      </trkpt>
      <trkpt lat="47.201672" lon="10.899745">
        <ele>786.630313</ele>
        <time>2026-07-21T11:51:46.988Z</time>
      </trkpt>
      <trkpt lat="47.201681" lon="10.899943">
        <ele>787.177657</ele>
        <time>2026-07-21T11:51:49.986Z</time>
      </trkpt>
      <trkpt lat="47.201647" lon="10.900109">
        <ele>787.655871</ele>
        <time>2026-07-21T11:51:52.987Z</time>
      </trkpt>
      <trkpt lat="47.201606" lon="10.900237">
        <ele>788.046189</ele>
        <time>2026-07-21T11:51:55.991Z</time>
      </trkpt>
      <trkpt lat="47.201567" lon="10.900364">
        <ele>788.430599</ele>
        <time>2026-07-21T11:51:58.984Z</time>
      </trkpt>
      <trkpt lat="47.201525" lon="10.900505">
        <ele>788.855240</ele>
        <time>2026-07-21T11:52:01.984Z</time>
      </trkpt>
      <trkpt lat="47.201487" lon="10.900643">
        <ele>789.265946</ele>
        <time>2026-07-21T11:52:04.981Z</time>
      </trkpt>
      <trkpt lat="47.201452" lon="10.900781">
        <ele>789.672234</ele>
        <time>2026-07-21T11:52:07.986Z</time>
      </trkpt>
      <trkpt lat="47.201426" lon="10.900922">
        <ele>790.477606</ele>
        <time>2026-07-21T11:52:10.989Z</time>
      </trkpt>
      <trkpt lat="47.201412" lon="10.901062">
        <ele>791.360175</ele>
        <time>2026-07-21T11:52:13.989Z</time>
      </trkpt>
      <trkpt lat="47.201408" lon="10.901197">
        <ele>792.202952</ele>
        <time>2026-07-21T11:52:16.981Z</time>
      </trkpt>
      <trkpt lat="47.201397" lon="10.901337">
        <ele>793.081933</ele>
        <time>2026-07-21T11:52:19.985Z</time>
      </trkpt>
      <trkpt lat="47.201394" lon="10.901476">
        <ele>793.949295</ele>
        <time>2026-07-21T11:52:22.983Z</time>
      </trkpt>
      <trkpt lat="47.201400" lon="10.901615">
        <ele>794.817968</ele>
        <time>2026-07-21T11:52:25.986Z</time>
      </trkpt>
      <trkpt lat="47.201409" lon="10.901749">
        <ele>795.657782</ele>
        <time>2026-07-21T11:52:28.983Z</time>
      </trkpt>
      <trkpt lat="47.201422" lon="10.901881">
        <ele>796.489653</ele>
        <time>2026-07-21T11:52:31.985Z</time>
      </trkpt>
      <trkpt lat="47.201443" lon="10.902016">
        <ele>797.353416</ele>
        <time>2026-07-21T11:52:34.992Z</time>
      </trkpt>
      <trkpt lat="47.201465" lon="10.902147">
        <ele>798.195034</ele>
        <time>2026-07-21T11:52:37.989Z</time>
      </trkpt>
      <trkpt lat="47.201499" lon="10.902314">
        <ele>799.282347</ele>
        <time>2026-07-21T11:52:41.983Z</time>
      </trkpt>
      <trkpt lat="47.201542" lon="10.902474">
        <ele>800.355476</ele>
        <time>2026-07-21T11:52:45.986Z</time>
      </trkpt>
      <trkpt lat="47.201593" lon="10.902633">
        <ele>801.452090</ele>
        <time>2026-07-21T11:52:49.984Z</time>
      </trkpt>
      <trkpt lat="47.201630" lon="10.902757">
        <ele>802.296756</ele>
        <time>2026-07-21T11:52:52.985Z</time>
      </trkpt>
      <trkpt lat="47.201675" lon="10.902877">
        <ele>803.151608</ele>
        <time>2026-07-21T11:52:55.982Z</time>
      </trkpt>
      <trkpt lat="47.201731" lon="10.903029">
        <ele>804.230014</ele>
        <time>2026-07-21T11:52:59.986Z</time>
      </trkpt>
      <trkpt lat="47.201789" lon="10.903184">
        <ele>805.333642</ele>
        <time>2026-07-21T11:53:03.988Z</time>
      </trkpt>
      <trkpt lat="47.201835" lon="10.903301">
        <ele>806.176720</ele>
        <time>2026-07-21T11:53:06.986Z</time>
      </trkpt>
      <trkpt lat="47.201885" lon="10.903413">
        <ele>807.164105</ele>
        <time>2026-07-21T11:53:09.988Z</time>
      </trkpt>
      <trkpt lat="47.201934" lon="10.903530">
        <ele>808.195583</ele>
        <time>2026-07-21T11:53:12.993Z</time>
      </trkpt>
      <trkpt lat="47.201982" lon="10.903655">
        <ele>809.273150</ele>
        <time>2026-07-21T11:53:15.988Z</time>
      </trkpt>
      <trkpt lat="47.202023" lon="10.903783">
        <ele>810.335169</ele>
        <time>2026-07-21T11:53:18.992Z</time>
      </trkpt>
      <trkpt lat="47.202067" lon="10.903911">
        <ele>811.411736</ele>
        <time>2026-07-21T11:53:21.984Z</time>
      </trkpt>
      <trkpt lat="47.202114" lon="10.904041">
        <ele>812.516890</ele>
        <time>2026-07-21T11:53:24.988Z</time>
      </trkpt>
      <trkpt lat="47.202158" lon="10.904172">
        <ele>813.613591</ele>
        <time>2026-07-21T11:53:27.983Z</time>
      </trkpt>
      <trkpt lat="47.202209" lon="10.904295">
        <ele>814.695000</ele>
        <time>2026-07-21T11:53:30.995Z</time>
      </trkpt>
      <trkpt lat="47.202270" lon="10.904406">
        <ele>815.766424</ele>
        <time>2026-07-21T11:53:33.990Z</time>
      </trkpt>
      <trkpt lat="47.202343" lon="10.904503">
        <ele>816.852764</ele>
        <time>2026-07-21T11:53:36.988Z</time>
      </trkpt>
      <trkpt lat="47.202429" lon="10.904579">
        <ele>817.960790</ele>
        <time>2026-07-21T11:53:39.983Z</time>
      </trkpt>
      <trkpt lat="47.202518" lon="10.904630">
        <ele>819.015758</ele>
        <time>2026-07-21T11:53:42.988Z</time>
      </trkpt>
      <trkpt lat="47.202614" lon="10.904640">
        <ele>820.078822</ele>
        <time>2026-07-21T11:53:45.984Z</time>
      </trkpt>
      <trkpt lat="47.202707" lon="10.904612">
        <ele>821.127368</ele>
        <time>2026-07-21T11:53:48.986Z</time>
      </trkpt>
      <trkpt lat="47.202795" lon="10.904554">
        <ele>822.192418</ele>
        <time>2026-07-21T11:53:51.983Z</time>
      </trkpt>
      <trkpt lat="47.202878" lon="10.904482">
        <ele>823.256614</ele>
        <time>2026-07-21T11:53:54.987Z</time>
      </trkpt>
      <trkpt lat="47.202962" lon="10.904406">
        <ele>824.345756</ele>
        <time>2026-07-21T11:53:57.985Z</time>
      </trkpt>
      <trkpt lat="47.203042" lon="10.904325">
        <ele>825.418322</ele>
        <time>2026-07-21T11:54:00.983Z</time>
      </trkpt>
      <trkpt lat="47.203126" lon="10.904250">
        <ele>826.554444</ele>
        <time>2026-07-21T11:54:03.985Z</time>
      </trkpt>
      <trkpt lat="47.203211" lon="10.904192">
        <ele>827.732167</ele>
        <time>2026-07-21T11:54:06.983Z</time>
      </trkpt>
      <trkpt lat="47.203302" lon="10.904147">
        <ele>828.938912</ele>
        <time>2026-07-21T11:54:09.986Z</time>
      </trkpt>
      <trkpt lat="47.203391" lon="10.904100">
        <ele>830.127511</ele>
        <time>2026-07-21T11:54:12.988Z</time>
      </trkpt>
      <trkpt lat="47.203504" lon="10.904036">
        <ele>831.649504</ele>
        <time>2026-07-21T11:54:16.984Z</time>
      </trkpt>
      <trkpt lat="47.203591" lon="10.903983">
        <ele>832.833103</ele>
        <time>2026-07-21T11:54:19.985Z</time>
      </trkpt>
      <trkpt lat="47.203681" lon="10.903937">
        <ele>834.030712</ele>
        <time>2026-07-21T11:54:22.985Z</time>
      </trkpt>
      <trkpt lat="47.203771" lon="10.903897">
        <ele>835.212504</ele>
        <time>2026-07-21T11:54:25.982Z</time>
      </trkpt>
      <trkpt lat="47.203885" lon="10.903849">
        <ele>836.703016</ele>
        <time>2026-07-21T11:54:29.984Z</time>
      </trkpt>
      <trkpt lat="47.203991" lon="10.903784">
        <ele>838.146494</ele>
        <time>2026-07-21T11:54:33.992Z</time>
      </trkpt>
      <trkpt lat="47.204064" lon="10.903697">
        <ele>839.327222</ele>
        <time>2026-07-21T11:54:36.992Z</time>
      </trkpt>
      <trkpt lat="47.204109" lon="10.903580">
        <ele>840.475437</ele>
        <time>2026-07-21T11:54:39.989Z</time>
      </trkpt>
      <trkpt lat="47.204131" lon="10.903446">
        <ele>841.652769</ele>
        <time>2026-07-21T11:54:42.984Z</time>
      </trkpt>
      <trkpt lat="47.204161" lon="10.903320">
        <ele>842.793004</ele>
        <time>2026-07-21T11:54:45.989Z</time>
      </trkpt>
      <trkpt lat="47.204200" lon="10.903167">
        <ele>844.188599</ele>
        <time>2026-07-21T11:54:49.985Z</time>
      </trkpt>
      <trkpt lat="47.204239" lon="10.903040">
        <ele>845.378857</ele>
        <time>2026-07-21T11:54:53.989Z</time>
      </trkpt>
      <trkpt lat="47.204290" lon="10.902905">
        <ele>846.698040</ele>
        <time>2026-07-21T11:54:57.988Z</time>
      </trkpt>
      <trkpt lat="47.204354" lon="10.902780">
        <ele>848.034768</ele>
        <time>2026-07-21T11:55:01.984Z</time>
      </trkpt>
      <trkpt lat="47.204419" lon="10.902655">
        <ele>849.407908</ele>
        <time>2026-07-21T11:55:05.988Z</time>
      </trkpt>
      <trkpt lat="47.204489" lon="10.902543">
        <ele>850.766599</ele>
        <time>2026-07-21T11:55:09.985Z</time>
      </trkpt>
      <trkpt lat="47.204559" lon="10.902433">
        <ele>852.112203</ele>
        <time>2026-07-21T11:55:13.983Z</time>
      </trkpt>
      <trkpt lat="47.204621" lon="10.902318">
        <ele>853.422911</ele>
        <time>2026-07-21T11:55:17.982Z</time>
      </trkpt>
      <trkpt lat="47.204671" lon="10.902170">
        <ele>854.898592</ele>
        <time>2026-07-21T11:55:21.985Z</time>
      </trkpt>
      <trkpt lat="47.204706" lon="10.902021">
        <ele>856.306116</ele>
        <time>2026-07-21T11:55:25.986Z</time>
      </trkpt>
      <trkpt lat="47.204740" lon="10.901871">
        <ele>857.717867</ele>
        <time>2026-07-21T11:55:29.983Z</time>
      </trkpt>
      <trkpt lat="47.204801" lon="10.901746">
        <ele>859.091913</ele>
        <time>2026-07-21T11:55:33.982Z</time>
      </trkpt>
      <trkpt lat="47.204879" lon="10.901647">
        <ele>860.445375</ele>
        <time>2026-07-21T11:55:37.986Z</time>
      </trkpt>
      <trkpt lat="47.204974" lon="10.901589">
        <ele>861.796918</ele>
        <time>2026-07-21T11:55:41.990Z</time>
      </trkpt>
      <trkpt lat="47.205077" lon="10.901544">
        <ele>863.208827</ele>
        <time>2026-07-21T11:55:45.987Z</time>
      </trkpt>
      <trkpt lat="47.205171" lon="10.901485">
        <ele>864.551717</ele>
        <time>2026-07-21T11:55:49.990Z</time>
      </trkpt>
      <trkpt lat="47.205261" lon="10.901410">
        <ele>865.910813</ele>
        <time>2026-07-21T11:55:53.985Z</time>
      </trkpt>
      <trkpt lat="47.205342" lon="10.901298">
        <ele>867.371241</ele>
        <time>2026-07-21T11:55:57.982Z</time>
      </trkpt>
      <trkpt lat="47.205415" lon="10.901164">
        <ele>868.904686</ele>
        <time>2026-07-21T11:56:01.985Z</time>
      </trkpt>
      <trkpt lat="47.205469" lon="10.901022">
        <ele>870.357524</ele>
        <time>2026-07-21T11:56:05.982Z</time>
      </trkpt>
      <trkpt lat="47.205496" lon="10.900869">
        <ele>871.768800</ele>
        <time>2026-07-21T11:56:09.982Z</time>
      </trkpt>
      <trkpt lat="47.205512" lon="10.900707">
        <ele>872.880028</ele>
        <time>2026-07-21T11:56:13.984Z</time>
      </trkpt>
      <trkpt lat="47.205527" lon="10.900547">
        <ele>873.727364</ele>
        <time>2026-07-21T11:56:17.982Z</time>
      </trkpt>
      <trkpt lat="47.205547" lon="10.900385">
        <ele>874.591156</ele>
        <time>2026-07-21T11:56:21.983Z</time>
      </trkpt>
      <trkpt lat="47.205585" lon="10.900224">
        <ele>875.485303</ele>
        <time>2026-07-21T11:56:25.984Z</time>
      </trkpt>
      <trkpt lat="47.205652" lon="10.900088">
        <ele>876.366622</ele>
        <time>2026-07-21T11:56:29.985Z</time>
      </trkpt>
      <trkpt lat="47.205743" lon="10.899980">
        <ele>877.269290</ele>
        <time>2026-07-21T11:56:33.985Z</time>
      </trkpt>
      <trkpt lat="47.205818" lon="10.899902">
        <ele>877.978416</ele>
        <time>2026-07-21T11:56:36.983Z</time>
      </trkpt>
      <trkpt lat="47.205888" lon="10.899811">
        <ele>878.699591</ele>
        <time>2026-07-21T11:56:39.991Z</time>
      </trkpt>
      <trkpt lat="47.205947" lon="10.899704">
        <ele>879.422548</ele>
        <time>2026-07-21T11:56:42.982Z</time>
      </trkpt>
      <trkpt lat="47.205997" lon="10.899582">
        <ele>880.170013</ele>
        <time>2026-07-21T11:56:45.989Z</time>
      </trkpt>
      <trkpt lat="47.206047" lon="10.899438">
        <ele>881.018398</ele>
        <time>2026-07-21T11:56:48.982Z</time>
      </trkpt>
      <trkpt lat="47.206095" lon="10.899295">
        <ele>881.855161</ele>
        <time>2026-07-21T11:56:51.985Z</time>
      </trkpt>
      <trkpt lat="47.206140" lon="10.899153">
        <ele>882.677164</ele>
        <time>2026-07-21T11:56:54.984Z</time>
      </trkpt>
      <trkpt lat="47.206189" lon="10.898993">
        <ele>883.597879</ele>
        <time>2026-07-21T11:56:57.987Z</time>
      </trkpt>
      <trkpt lat="47.206250" lon="10.898828">
        <ele>884.583347</ele>
        <time>2026-07-21T11:57:00.986Z</time>
      </trkpt>
      <trkpt lat="47.206323" lon="10.898673">
        <ele>885.572773</ele>
        <time>2026-07-21T11:57:03.989Z</time>
      </trkpt>
      <trkpt lat="47.206421" lon="10.898558">
        <ele>886.416017</ele>
        <time>2026-07-21T11:57:06.985Z</time>
      </trkpt>
      <trkpt lat="47.206530" lon="10.898469">
        <ele>886.935243</ele>
        <time>2026-07-21T11:57:09.982Z</time>
      </trkpt>
      <trkpt lat="47.206649" lon="10.898391">
        <ele>887.477873</ele>
        <time>2026-07-21T11:57:12.985Z</time>
      </trkpt>
      <trkpt lat="47.206764" lon="10.898310">
        <ele>888.008934</ele>
        <time>2026-07-21T11:57:15.981Z</time>
      </trkpt>
      <trkpt lat="47.206868" lon="10.898210">
        <ele>888.526394</ele>
        <time>2026-07-21T11:57:18.984Z</time>
      </trkpt>
      <trkpt lat="47.206960" lon="10.898084">
        <ele>889.049853</ele>
        <time>2026-07-21T11:57:21.988Z</time>
      </trkpt>
      <trkpt lat="47.207040" lon="10.897936">
        <ele>889.585080</ele>
        <time>2026-07-21T11:57:24.989Z</time>
      </trkpt>
      <trkpt lat="47.207093" lon="10.897769">
        <ele>890.106699</ele>
        <time>2026-07-21T11:57:27.984Z</time>
      </trkpt>
      <trkpt lat="47.207138" lon="10.897594">
        <ele>890.636220</ele>
        <time>2026-07-21T11:57:30.987Z</time>
      </trkpt>
      <trkpt lat="47.207177" lon="10.897418">
        <ele>891.160107</ele>
        <time>2026-07-21T11:57:33.992Z</time>
      </trkpt>
      <trkpt lat="47.207237" lon="10.897257">
        <ele>891.679771</ele>
        <time>2026-07-21T11:57:36.991Z</time>
      </trkpt>
      <trkpt lat="47.207318" lon="10.897111">
        <ele>892.213205</ele>
        <time>2026-07-21T11:57:39.984Z</time>
      </trkpt>
      <trkpt lat="47.207404" lon="10.896961">
        <ele>892.768652</ele>
        <time>2026-07-21T11:57:42.982Z</time>
      </trkpt>
      <trkpt lat="47.207491" lon="10.896813">
        <ele>893.322502</ele>
        <time>2026-07-21T11:57:45.987Z</time>
      </trkpt>
      <trkpt lat="47.207575" lon="10.896665">
        <ele>893.968467</ele>
        <time>2026-07-21T11:57:48.981Z</time>
      </trkpt>
      <trkpt lat="47.207650" lon="10.896502">
        <ele>895.053627</ele>
        <time>2026-07-21T11:57:51.992Z</time>
      </trkpt>
      <trkpt lat="47.207718" lon="10.896337">
        <ele>896.117393</ele>
        <time>2026-07-21T11:57:54.996Z</time>
      </trkpt>
      <trkpt lat="47.207776" lon="10.896164">
        <ele>897.180785</ele>
        <time>2026-07-21T11:57:57.986Z</time>
      </trkpt>
      <trkpt lat="47.207816" lon="10.895986">
        <ele>898.214221</ele>
        <time>2026-07-21T11:58:00.990Z</time>
      </trkpt>
      <trkpt lat="47.207832" lon="10.895797">
        <ele>899.264060</ele>
        <time>2026-07-21T11:58:03.983Z</time>
      </trkpt>
      <trkpt lat="47.207836" lon="10.895610">
        <ele>900.295329</ele>
        <time>2026-07-21T11:58:06.985Z</time>
      </trkpt>
      <trkpt lat="47.207858" lon="10.895431">
        <ele>901.298007</ele>
        <time>2026-07-21T11:58:09.981Z</time>
      </trkpt>
      <trkpt lat="47.207927" lon="10.895287">
        <ele>902.269324</ele>
        <time>2026-07-21T11:58:12.984Z</time>
      </trkpt>
      <trkpt lat="47.208002" lon="10.895212">
        <ele>903.005003</ele>
        <time>2026-07-21T11:58:15.979Z</time>
      </trkpt>
      <trkpt lat="47.208041" lon="10.894960">
        <ele>904.429629</ele>
        <time>2026-07-21T11:59:20.982Z</time>
      </trkpt>
      <trkpt lat="47.207997" lon="10.894844">
        <ele>905.161944</ele>
        <time>2026-07-21T11:59:23.981Z</time>
      </trkpt>
      <trkpt lat="47.207916" lon="10.894726">
        <ele>906.086601</ele>
        <time>2026-07-21T11:59:27.986Z</time>
      </trkpt>
      <trkpt lat="47.207844" lon="10.894632">
        <ele>906.867466</ele>
        <time>2026-07-21T11:59:30.980Z</time>
      </trkpt>
      <trkpt lat="47.207785" lon="10.894524">
        <ele>907.631375</ele>
        <time>2026-07-21T11:59:33.985Z</time>
      </trkpt>
      <trkpt lat="47.207753" lon="10.894389">
        <ele>908.466352</ele>
        <time>2026-07-21T11:59:36.982Z</time>
      </trkpt>
      <trkpt lat="47.207742" lon="10.894254">
        <ele>909.772729</ele>
        <time>2026-07-21T11:59:39.984Z</time>
      </trkpt>
      <trkpt lat="47.207736" lon="10.894119">
        <ele>911.072582</ele>
        <time>2026-07-21T11:59:42.983Z</time>
      </trkpt>
      <trkpt lat="47.207743" lon="10.893946">
        <ele>912.737712</ele>
        <time>2026-07-21T11:59:46.983Z</time>
      </trkpt>
      <trkpt lat="47.207754" lon="10.893780">
        <ele>914.340210</ele>
        <time>2026-07-21T11:59:50.984Z</time>
      </trkpt>
      <trkpt lat="47.207789" lon="10.893616">
        <ele>915.991845</ele>
        <time>2026-07-21T11:59:54.990Z</time>
      </trkpt>
      <trkpt lat="47.207840" lon="10.893487">
        <ele>917.425881</ele>
        <time>2026-07-21T11:59:59.982Z</time>
      </trkpt>
      <trkpt lat="47.207906" lon="10.893386">
        <ele>918.772360</ele>
        <time>2026-07-21T12:00:03.989Z</time>
      </trkpt>
      <trkpt lat="47.207984" lon="10.893289">
        <ele>920.216499</ele>
        <time>2026-07-21T12:00:08.987Z</time>
      </trkpt>
      <trkpt lat="47.208058" lon="10.893206">
        <ele>921.532284</ele>
        <time>2026-07-21T12:00:12.987Z</time>
      </trkpt>
      <trkpt lat="47.208139" lon="10.893119">
        <ele>922.950414</ele>
        <time>2026-07-21T12:00:16.987Z</time>
      </trkpt>
      <trkpt lat="47.208231" lon="10.893044">
        <ele>924.437789</ele>
        <time>2026-07-21T12:00:20.984Z</time>
      </trkpt>
      <trkpt lat="47.208322" lon="10.892979">
        <ele>925.868328</ele>
        <time>2026-07-21T12:00:24.985Z</time>
      </trkpt>
      <trkpt lat="47.208406" lon="10.892913">
        <ele>927.214991</ele>
        <time>2026-07-21T12:00:28.985Z</time>
      </trkpt>
      <trkpt lat="47.208495" lon="10.892857">
        <ele>928.583897</ele>
        <time>2026-07-21T12:00:32.984Z</time>
      </trkpt>
      <trkpt lat="47.208587" lon="10.892819">
        <ele>929.935314</ele>
        <time>2026-07-21T12:00:36.985Z</time>
      </trkpt>
      <trkpt lat="47.208682" lon="10.892795">
        <ele>931.298551</ele>
        <time>2026-07-21T12:00:40.990Z</time>
      </trkpt>
      <trkpt lat="47.208774" lon="10.892785">
        <ele>932.603258</ele>
        <time>2026-07-21T12:00:44.985Z</time>
      </trkpt>
      <trkpt lat="47.208865" lon="10.892767">
        <ele>933.898793</ele>
        <time>2026-07-21T12:00:48.987Z</time>
      </trkpt>
      <trkpt lat="47.208956" lon="10.892730">
        <ele>935.195903</ele>
        <time>2026-07-21T12:00:52.990Z</time>
      </trkpt>
      <trkpt lat="47.209038" lon="10.892648">
        <ele>936.557915</ele>
        <time>2026-07-21T12:00:56.986Z</time>
      </trkpt>
      <trkpt lat="47.209121" lon="10.892559">
        <ele>937.968767</ele>
        <time>2026-07-21T12:01:00.987Z</time>
      </trkpt>
      <trkpt lat="47.209207" lon="10.892491">
        <ele>939.310030</ele>
        <time>2026-07-21T12:01:04.986Z</time>
      </trkpt>
      <trkpt lat="47.209261" lon="10.892607">
        <ele>940.622540</ele>
        <time>2026-07-21T12:01:09.987Z</time>
      </trkpt>
      <trkpt lat="47.209201" lon="10.892729">
        <ele>942.028315</ele>
        <time>2026-07-21T12:01:13.989Z</time>
      </trkpt>
      <trkpt lat="47.209130" lon="10.892838">
        <ele>943.437791</ele>
        <time>2026-07-21T12:01:17.986Z</time>
      </trkpt>
      <trkpt lat="47.209066" lon="10.892946">
        <ele>944.775450</ele>
        <time>2026-07-21T12:01:21.989Z</time>
      </trkpt>
      <trkpt lat="47.208994" lon="10.893050">
        <ele>946.161395</ele>
        <time>2026-07-21T12:01:25.981Z</time>
      </trkpt>
      <trkpt lat="47.208943" lon="10.893167">
        <ele>947.458904</ele>
        <time>2026-07-21T12:01:29.985Z</time>
      </trkpt>
      <trkpt lat="47.208924" lon="10.893306">
        <ele>948.782277</ele>
        <time>2026-07-21T12:01:33.985Z</time>
      </trkpt>
      <trkpt lat="47.208915" lon="10.893452">
        <ele>950.150581</ele>
        <time>2026-07-21T12:01:37.985Z</time>
      </trkpt>
      <trkpt lat="47.208931" lon="10.893595">
        <ele>951.503268</ele>
        <time>2026-07-21T12:01:41.986Z</time>
      </trkpt>
      <trkpt lat="47.208950" lon="10.893734">
        <ele>952.826641</ele>
        <time>2026-07-21T12:01:45.990Z</time>
      </trkpt>
      <trkpt lat="47.208983" lon="10.893870">
        <ele>954.174554</ele>
        <time>2026-07-21T12:01:49.989Z</time>
      </trkpt>
      <trkpt lat="47.209023" lon="10.893992">
        <ele>955.438939</ele>
        <time>2026-07-21T12:01:53.988Z</time>
      </trkpt>
      <trkpt lat="47.209065" lon="10.894122">
        <ele>956.782535</ele>
        <time>2026-07-21T12:01:57.990Z</time>
      </trkpt>
      <trkpt lat="47.209099" lon="10.894253">
        <ele>958.091432</ele>
        <time>2026-07-21T12:02:01.990Z</time>
      </trkpt>
      <trkpt lat="47.209132" lon="10.894389">
        <ele>959.459165</ele>
        <time>2026-07-21T12:02:05.985Z</time>
      </trkpt>
      <trkpt lat="47.209159" lon="10.894534">
        <ele>960.892297</ele>
        <time>2026-07-21T12:02:09.991Z</time>
      </trkpt>
      <trkpt lat="47.209163" lon="10.894676">
        <ele>962.247012</ele>
        <time>2026-07-21T12:02:13.989Z</time>
      </trkpt>
      <trkpt lat="47.209145" lon="10.894816">
        <ele>963.605192</ele>
        <time>2026-07-21T12:02:17.991Z</time>
      </trkpt>
      <trkpt lat="47.209121" lon="10.894957">
        <ele>964.990760</ele>
        <time>2026-07-21T12:02:21.980Z</time>
      </trkpt>
      <trkpt lat="47.209111" lon="10.895098">
        <ele>966.342086</ele>
        <time>2026-07-21T12:02:25.989Z</time>
      </trkpt>
      <trkpt lat="47.209107" lon="10.895245">
        <ele>967.744424</ele>
        <time>2026-07-21T12:02:29.985Z</time>
      </trkpt>
      <trkpt lat="47.209118" lon="10.895379">
        <ele>969.031013</ele>
        <time>2026-07-21T12:02:33.983Z</time>
      </trkpt>
      <trkpt lat="47.209141" lon="10.895542">
        <ele>970.617903</ele>
        <time>2026-07-21T12:02:38.988Z</time>
      </trkpt>
      <trkpt lat="47.209177" lon="10.895676">
        <ele>971.991457</ele>
        <time>2026-07-21T12:02:42.981Z</time>
      </trkpt>
      <trkpt lat="47.209223" lon="10.895803">
        <ele>973.363353</ele>
        <time>2026-07-21T12:02:46.985Z</time>
      </trkpt>
      <trkpt lat="47.209260" lon="10.895935">
        <ele>974.724485</ele>
        <time>2026-07-21T12:02:50.989Z</time>
      </trkpt>
      <trkpt lat="47.209288" lon="10.896074">
        <ele>976.106463</ele>
        <time>2026-07-21T12:02:54.986Z</time>
      </trkpt>
      <trkpt lat="47.209304" lon="10.896213">
        <ele>977.450302</ele>
        <time>2026-07-21T12:02:58.984Z</time>
      </trkpt>
      <trkpt lat="47.209321" lon="10.896360">
        <ele>978.871670</ele>
        <time>2026-07-21T12:03:02.981Z</time>
      </trkpt>
      <trkpt lat="47.209323" lon="10.896511">
        <ele>980.311280</ele>
        <time>2026-07-21T12:03:06.979Z</time>
      </trkpt>
      <trkpt lat="47.209326" lon="10.896665">
        <ele>981.779816</ele>
        <time>2026-07-21T12:03:10.983Z</time>
      </trkpt>
      <trkpt lat="47.209332" lon="10.896811">
        <ele>983.174036</ele>
        <time>2026-07-21T12:03:14.980Z</time>
      </trkpt>
      <trkpt lat="47.209344" lon="10.896956">
        <ele>984.535587</ele>
        <time>2026-07-21T12:03:18.984Z</time>
      </trkpt>
      <trkpt lat="47.209346" lon="10.897105">
        <ele>985.902834</ele>
        <time>2026-07-21T12:03:22.985Z</time>
      </trkpt>
      <trkpt lat="47.209346" lon="10.897250">
        <ele>987.233116</ele>
        <time>2026-07-21T12:03:26.984Z</time>
      </trkpt>
      <trkpt lat="47.209371" lon="10.897394">
        <ele>988.596684</ele>
        <time>2026-07-21T12:03:30.987Z</time>
      </trkpt>
      <trkpt lat="47.209464" lon="10.897459">
        <ele>989.987045</ele>
        <time>2026-07-21T12:03:34.986Z</time>
      </trkpt>
      <trkpt lat="47.209531" lon="10.897334">
        <ele>991.447825</ele>
        <time>2026-07-21T12:03:38.987Z</time>
      </trkpt>
      <trkpt lat="47.209550" lon="10.897172">
        <ele>992.956054</ele>
        <time>2026-07-21T12:03:42.988Z</time>
      </trkpt>
      <trkpt lat="47.209555" lon="10.897025">
        <ele>994.306370</ele>
        <time>2026-07-21T12:03:46.987Z</time>
      </trkpt>
      <trkpt lat="47.209568" lon="10.896878">
        <ele>995.666375</ele>
        <time>2026-07-21T12:03:50.984Z</time>
      </trkpt>
      <trkpt lat="47.209586" lon="10.896733">
        <ele>997.018680</ele>
        <time>2026-07-21T12:03:54.984Z</time>
      </trkpt>
      <trkpt lat="47.209624" lon="10.896591">
        <ele>998.418872</ele>
        <time>2026-07-21T12:03:58.989Z</time>
      </trkpt>
      <trkpt lat="47.209685" lon="10.896457">
        <ele>999.898734</ele>
        <time>2026-07-21T12:04:02.984Z</time>
      </trkpt>
      <trkpt lat="47.209748" lon="10.896333">
        <ele>1001.319321</ele>
        <time>2026-07-21T12:04:06.992Z</time>
      </trkpt>
      <trkpt lat="47.209813" lon="10.896218">
        <ele>1002.691805</ele>
        <time>2026-07-21T12:04:10.981Z</time>
      </trkpt>
      <trkpt lat="47.209916" lon="10.896229">
        <ele>1004.086495</ele>
        <time>2026-07-21T12:04:15.982Z</time>
      </trkpt>
      <trkpt lat="47.209917" lon="10.896390">
        <ele>1005.563612</ele>
        <time>2026-07-21T12:04:19.982Z</time>
      </trkpt>
      <trkpt lat="47.209885" lon="10.896540">
        <ele>1007.006016</ele>
        <time>2026-07-21T12:04:23.982Z</time>
      </trkpt>
      <trkpt lat="47.209858" lon="10.896692">
        <ele>1008.423376</ele>
        <time>2026-07-21T12:04:27.990Z</time>
      </trkpt>
      <trkpt lat="47.209839" lon="10.896839">
        <ele>1009.716004</ele>
        <time>2026-07-21T12:04:31.984Z</time>
      </trkpt>
      <trkpt lat="47.209826" lon="10.896974">
        <ele>1010.893848</ele>
        <time>2026-07-21T12:04:35.985Z</time>
      </trkpt>
      <trkpt lat="47.209823" lon="10.897125">
        <ele>1012.198807</ele>
        <time>2026-07-21T12:04:39.985Z</time>
      </trkpt>
      <trkpt lat="47.209849" lon="10.897281">
        <ele>1013.586365</ele>
        <time>2026-07-21T12:04:43.980Z</time>
      </trkpt>
      <trkpt lat="47.209868" lon="10.897437">
        <ele>1014.955445</ele>
        <time>2026-07-21T12:04:47.988Z</time>
      </trkpt>
      <trkpt lat="47.209851" lon="10.897584">
        <ele>1016.243561</ele>
        <time>2026-07-21T12:04:51.978Z</time>
      </trkpt>
      <trkpt lat="47.209827" lon="10.897716">
        <ele>1017.423967</ele>
        <time>2026-07-21T12:04:55.985Z</time>
      </trkpt>
      <trkpt lat="47.209788" lon="10.897852">
        <ele>1018.699180</ele>
        <time>2026-07-21T12:04:59.985Z</time>
      </trkpt>
      <trkpt lat="47.209750" lon="10.897995">
        <ele>1020.025625</ele>
        <time>2026-07-21T12:05:03.986Z</time>
      </trkpt>
      <trkpt lat="47.209714" lon="10.898135">
        <ele>1021.318749</ele>
        <time>2026-07-21T12:05:07.985Z</time>
      </trkpt>
      <trkpt lat="47.209678" lon="10.898278">
        <ele>1022.636144</ele>
        <time>2026-07-21T12:05:11.984Z</time>
      </trkpt>
      <trkpt lat="47.209666" lon="10.898429">
        <ele>1023.949444</ele>
        <time>2026-07-21T12:05:15.988Z</time>
      </trkpt>
      <trkpt lat="47.209710" lon="10.898566">
        <ele>1025.258510</ele>
        <time>2026-07-21T12:05:19.984Z</time>
      </trkpt>
      <trkpt lat="47.209787" lon="10.898654">
        <ele>1026.498118</ele>
        <time>2026-07-21T12:05:23.985Z</time>
      </trkpt>
      <trkpt lat="47.209871" lon="10.898731">
        <ele>1027.756462</ele>
        <time>2026-07-21T12:05:27.982Z</time>
      </trkpt>
      <trkpt lat="47.209954" lon="10.898818">
        <ele>1029.052149</ele>
        <time>2026-07-21T12:05:31.982Z</time>
      </trkpt>
      <trkpt lat="47.210006" lon="10.898941">
        <ele>1030.303630</ele>
        <time>2026-07-21T12:05:35.982Z</time>
      </trkpt>
      <trkpt lat="47.210006" lon="10.899094">
        <ele>1031.641025</ele>
        <time>2026-07-21T12:05:39.983Z</time>
      </trkpt>
      <trkpt lat="47.209982" lon="10.899239">
        <ele>1032.958511</ele>
        <time>2026-07-21T12:05:43.990Z</time>
      </trkpt>
      <trkpt lat="47.209949" lon="10.899378">
        <ele>1034.258362</ele>
        <time>2026-07-21T12:05:47.989Z</time>
      </trkpt>
      <trkpt lat="47.209920" lon="10.899514">
        <ele>1035.516709</ele>
        <time>2026-07-21T12:05:51.985Z</time>
      </trkpt>
      <trkpt lat="47.209894" lon="10.899652">
        <ele>1036.780941</ele>
        <time>2026-07-21T12:05:55.989Z</time>
      </trkpt>
      <trkpt lat="47.209866" lon="10.899795">
        <ele>1038.094719</ele>
        <time>2026-07-21T12:05:59.983Z</time>
      </trkpt>
      <trkpt lat="47.209834" lon="10.899951">
        <ele>1039.533283</ele>
        <time>2026-07-21T12:06:04.990Z</time>
      </trkpt>
      <trkpt lat="47.209817" lon="10.900097">
        <ele>1040.840949</ele>
        <time>2026-07-21T12:06:08.983Z</time>
      </trkpt>
      <trkpt lat="47.209794" lon="10.900236">
        <ele>1042.103902</ele>
        <time>2026-07-21T12:06:12.986Z</time>
      </trkpt>
      <trkpt lat="47.209769" lon="10.900380">
        <ele>1043.415975</ele>
        <time>2026-07-21T12:06:16.982Z</time>
      </trkpt>
      <trkpt lat="47.209743" lon="10.900523">
        <ele>1044.722797</ele>
        <time>2026-07-21T12:06:20.984Z</time>
      </trkpt>
      <trkpt lat="47.209761" lon="10.900689">
        <ele>1046.206778</ele>
        <time>2026-07-21T12:06:25.983Z</time>
      </trkpt>
      <trkpt lat="47.209819" lon="10.900823">
        <ele>1047.609432</ele>
        <time>2026-07-21T12:06:29.984Z</time>
      </trkpt>
      <trkpt lat="47.209869" lon="10.900950">
        <ele>1048.905250</ele>
        <time>2026-07-21T12:06:33.980Z</time>
      </trkpt>
      <trkpt lat="47.209899" lon="10.901084">
        <ele>1050.150771</ele>
        <time>2026-07-21T12:06:37.989Z</time>
      </trkpt>
      <trkpt lat="47.209900" lon="10.901234">
        <ele>1051.475014</ele>
        <time>2026-07-21T12:06:41.984Z</time>
      </trkpt>
      <trkpt lat="47.209894" lon="10.901392">
        <ele>1052.871994</ele>
        <time>2026-07-21T12:06:45.986Z</time>
      </trkpt>
      <trkpt lat="47.209886" lon="10.901535">
        <ele>1054.138652</ele>
        <time>2026-07-21T12:06:49.985Z</time>
      </trkpt>
      <trkpt lat="47.209852" lon="10.901674">
        <ele>1055.393005</ele>
        <time>2026-07-21T12:06:53.986Z</time>
      </trkpt>
      <trkpt lat="47.209785" lon="10.901786">
        <ele>1056.653868</ele>
        <time>2026-07-21T12:06:57.980Z</time>
      </trkpt>
      <trkpt lat="47.209697" lon="10.901877">
        <ele>1057.991392</ele>
        <time>2026-07-21T12:07:01.989Z</time>
      </trkpt>
      <trkpt lat="47.209605" lon="10.901949">
        <ele>1059.287261</ele>
        <time>2026-07-21T12:07:05.980Z</time>
      </trkpt>
      <trkpt lat="47.209528" lon="10.902048">
        <ele>1060.558766</ele>
        <time>2026-07-21T12:07:09.980Z</time>
      </trkpt>
      <trkpt lat="47.209504" lon="10.902188">
        <ele>1061.778678</ele>
        <time>2026-07-21T12:07:13.984Z</time>
      </trkpt>
      <trkpt lat="47.209515" lon="10.902323">
        <ele>1062.927441</ele>
        <time>2026-07-21T12:07:17.979Z</time>
      </trkpt>
      <trkpt lat="47.209523" lon="10.902465">
        <ele>1064.131288</ele>
        <time>2026-07-21T12:07:21.981Z</time>
      </trkpt>
      <trkpt lat="47.209503" lon="10.902611">
        <ele>1065.389641</ele>
        <time>2026-07-21T12:07:25.979Z</time>
      </trkpt>
      <trkpt lat="47.209435" lon="10.902741">
        <ele>1066.775863</ele>
        <time>2026-07-21T12:07:30.978Z</time>
      </trkpt>
      <trkpt lat="47.209371" lon="10.902847">
        <ele>1067.974041</ele>
        <time>2026-07-21T12:07:34.980Z</time>
      </trkpt>
      <trkpt lat="47.209363" lon="10.902983">
        <ele>1069.127380</ele>
        <time>2026-07-21T12:07:38.978Z</time>
      </trkpt>
      <trkpt lat="47.209366" lon="10.903126">
        <ele>1070.336136</ele>
        <time>2026-07-21T12:07:42.987Z</time>
      </trkpt>
      <trkpt lat="47.209366" lon="10.903265">
        <ele>1071.510521</ele>
        <time>2026-07-21T12:07:46.982Z</time>
      </trkpt>
      <trkpt lat="47.209334" lon="10.903400">
        <ele>1072.718553</ele>
        <time>2026-07-21T12:07:50.980Z</time>
      </trkpt>
      <trkpt lat="47.209269" lon="10.903517">
        <ele>1073.995538</ele>
        <time>2026-07-21T12:07:54.984Z</time>
      </trkpt>
      <trkpt lat="47.209207" lon="10.903641">
        <ele>1075.296377</ele>
        <time>2026-07-21T12:07:58.984Z</time>
      </trkpt>
      <trkpt lat="47.209161" lon="10.903771">
        <ele>1076.534795</ele>
        <time>2026-07-21T12:08:02.987Z</time>
      </trkpt>
      <trkpt lat="47.209135" lon="10.903917">
        <ele>1077.686038</ele>
        <time>2026-07-21T12:08:06.980Z</time>
      </trkpt>
      <trkpt lat="47.209119" lon="10.904059">
        <ele>1078.771948</ele>
        <time>2026-07-21T12:08:10.984Z</time>
      </trkpt>
      <trkpt lat="47.209107" lon="10.904214">
        <ele>1079.948867</ele>
        <time>2026-07-21T12:08:14.981Z</time>
      </trkpt>
      <trkpt lat="47.209082" lon="10.904365">
        <ele>1081.121385</ele>
        <time>2026-07-21T12:08:18.982Z</time>
      </trkpt>
      <trkpt lat="47.209066" lon="10.904518">
        <ele>1082.289243</ele>
        <time>2026-07-21T12:08:22.981Z</time>
      </trkpt>
      <trkpt lat="47.209049" lon="10.904670">
        <ele>1083.451399</ele>
        <time>2026-07-21T12:08:26.988Z</time>
      </trkpt>
      <trkpt lat="47.209031" lon="10.904832">
        <ele>1084.689799</ele>
        <time>2026-07-21T12:08:30.986Z</time>
      </trkpt>
      <trkpt lat="47.208967" lon="10.904968">
        <ele>1085.937943</ele>
        <time>2026-07-21T12:08:34.985Z</time>
      </trkpt>
      <trkpt lat="47.208884" lon="10.905048">
        <ele>1087.039705</ele>
        <time>2026-07-21T12:08:38.980Z</time>
      </trkpt>
      <trkpt lat="47.208798" lon="10.905125">
        <ele>1088.157562</ele>
        <time>2026-07-21T12:08:42.987Z</time>
      </trkpt>
      <trkpt lat="47.208714" lon="10.905196">
        <ele>1089.233263</ele>
        <time>2026-07-21T12:08:46.981Z</time>
      </trkpt>
      <trkpt lat="47.208628" lon="10.905271">
        <ele>1090.343355</ele>
        <time>2026-07-21T12:08:50.991Z</time>
      </trkpt>
      <trkpt lat="47.208542" lon="10.905346">
        <ele>1091.453447</ele>
        <time>2026-07-21T12:08:54.980Z</time>
      </trkpt>
      <trkpt lat="47.208456" lon="10.905439">
        <ele>1092.638529</ele>
        <time>2026-07-21T12:08:58.992Z</time>
      </trkpt>
      <trkpt lat="47.208393" lon="10.905566">
        <ele>1093.824911</ele>
        <time>2026-07-21T12:09:02.983Z</time>
      </trkpt>
      <trkpt lat="47.208334" lon="10.905693">
        <ele>1094.985652</ele>
        <time>2026-07-21T12:09:07.982Z</time>
      </trkpt>
      <trkpt lat="47.208255" lon="10.905763">
        <ele>1096.009662</ele>
        <time>2026-07-21T12:09:11.977Z</time>
      </trkpt>
      <trkpt lat="47.208179" lon="10.905844">
        <ele>1097.080674</ele>
        <time>2026-07-21T12:09:15.983Z</time>
      </trkpt>
      <trkpt lat="47.208115" lon="10.905959">
        <ele>1098.278808</ele>
        <time>2026-07-21T12:09:19.981Z</time>
      </trkpt>
      <trkpt lat="47.208057" lon="10.906081">
        <ele>1099.478916</ele>
        <time>2026-07-21T12:09:23.985Z</time>
      </trkpt>
      <trkpt lat="47.207993" lon="10.906206">
        <ele>1100.740431</ele>
        <time>2026-07-21T12:09:27.987Z</time>
      </trkpt>
      <trkpt lat="47.207930" lon="10.906332">
        <ele>1102.001324</ele>
        <time>2026-07-21T12:09:31.989Z</time>
      </trkpt>
      <trkpt lat="47.207860" lon="10.906430">
        <ele>1103.147400</ele>
        <time>2026-07-21T12:09:35.984Z</time>
      </trkpt>
      <trkpt lat="47.207778" lon="10.906521">
        <ele>1104.365710</ele>
        <time>2026-07-21T12:09:39.988Z</time>
      </trkpt>
      <trkpt lat="47.207700" lon="10.906618">
        <ele>1105.577103</ele>
        <time>2026-07-21T12:09:43.978Z</time>
      </trkpt>
      <trkpt lat="47.207630" lon="10.906721">
        <ele>1106.751316</ele>
        <time>2026-07-21T12:09:47.986Z</time>
      </trkpt>
      <trkpt lat="47.207575" lon="10.906853">
        <ele>1107.999335</ele>
        <time>2026-07-21T12:09:51.989Z</time>
      </trkpt>
      <trkpt lat="47.207508" lon="10.906970">
        <ele>1109.232622</ele>
        <time>2026-07-21T12:09:55.980Z</time>
      </trkpt>
      <trkpt lat="47.207426" lon="10.907075">
        <ele>1110.522012</ele>
        <time>2026-07-21T12:09:59.985Z</time>
      </trkpt>
      <trkpt lat="47.207334" lon="10.907134">
        <ele>1111.712556</ele>
        <time>2026-07-21T12:10:03.978Z</time>
      </trkpt>
      <trkpt lat="47.207248" lon="10.907201">
        <ele>1112.866920</ele>
        <time>2026-07-21T12:10:07.985Z</time>
      </trkpt>
      <trkpt lat="47.207196" lon="10.907318">
        <ele>1113.993763</ele>
        <time>2026-07-21T12:10:11.982Z</time>
      </trkpt>
      <trkpt lat="47.207256" lon="10.907423">
        <ele>1115.099583</ele>
        <time>2026-07-21T12:10:15.983Z</time>
      </trkpt>
      <trkpt lat="47.207363" lon="10.907387">
        <ele>1116.401734</ele>
        <time>2026-07-21T12:10:19.985Z</time>
      </trkpt>
      <trkpt lat="47.207461" lon="10.907340">
        <ele>1117.624528</ele>
        <time>2026-07-21T12:10:23.988Z</time>
      </trkpt>
      <trkpt lat="47.207546" lon="10.907271">
        <ele>1118.872032</ele>
        <time>2026-07-21T12:10:27.983Z</time>
      </trkpt>
      <trkpt lat="47.207632" lon="10.907191">
        <ele>1120.221770</ele>
        <time>2026-07-21T12:10:31.981Z</time>
      </trkpt>
      <trkpt lat="47.207720" lon="10.907114">
        <ele>1121.579999</ele>
        <time>2026-07-21T12:10:35.983Z</time>
      </trkpt>
      <trkpt lat="47.207809" lon="10.907039">
        <ele>1122.940603</ele>
        <time>2026-07-21T12:10:39.985Z</time>
      </trkpt>
      <trkpt lat="47.207901" lon="10.906985">
        <ele>1124.254664</ele>
        <time>2026-07-21T12:10:43.988Z</time>
      </trkpt>
      <trkpt lat="47.208004" lon="10.906953">
        <ele>1125.651313</ele>
        <time>2026-07-21T12:10:47.990Z</time>
      </trkpt>
      <trkpt lat="47.208105" lon="10.906936">
        <ele>1127.000054</ele>
        <time>2026-07-21T12:10:51.986Z</time>
      </trkpt>
      <trkpt lat="47.208207" lon="10.906922">
        <ele>1128.359201</ele>
        <time>2026-07-21T12:10:55.983Z</time>
      </trkpt>
      <trkpt lat="47.208300" lon="10.906908">
        <ele>1129.599506</ele>
        <time>2026-07-21T12:10:59.987Z</time>
      </trkpt>
      <trkpt lat="47.208392" lon="10.906876">
        <ele>1130.853721</ele>
        <time>2026-07-21T12:11:03.983Z</time>
      </trkpt>
      <trkpt lat="47.208481" lon="10.906824">
        <ele>1132.124134</ele>
        <time>2026-07-21T12:11:07.986Z</time>
      </trkpt>
      <trkpt lat="47.208580" lon="10.906759">
        <ele>1133.562337</ele>
        <time>2026-07-21T12:11:12.984Z</time>
      </trkpt>
      <trkpt lat="47.208670" lon="10.906710">
        <ele>1134.835459</ele>
        <time>2026-07-21T12:11:16.987Z</time>
      </trkpt>
      <trkpt lat="47.208764" lon="10.906640">
        <ele>1136.233098</ele>
        <time>2026-07-21T12:11:20.982Z</time>
      </trkpt>
      <trkpt lat="47.208858" lon="10.906570">
        <ele>1137.630737</ele>
        <time>2026-07-21T12:11:24.981Z</time>
      </trkpt>
      <trkpt lat="47.208949" lon="10.906504">
        <ele>1138.976660</ele>
        <time>2026-07-21T12:11:28.989Z</time>
      </trkpt>
      <trkpt lat="47.209044" lon="10.906449">
        <ele>1140.331042</ele>
        <time>2026-07-21T12:11:32.985Z</time>
      </trkpt>
      <trkpt lat="47.209130" lon="10.906363">
        <ele>1141.710415</ele>
        <time>2026-07-21T12:11:36.981Z</time>
      </trkpt>
      <trkpt lat="47.209204" lon="10.906272">
        <ele>1143.082377</ele>
        <time>2026-07-21T12:11:40.982Z</time>
      </trkpt>
      <trkpt lat="47.209265" lon="10.906149">
        <ele>1144.564512</ele>
        <time>2026-07-21T12:11:44.982Z</time>
      </trkpt>
      <trkpt lat="47.209333" lon="10.906025">
        <ele>1146.115466</ele>
        <time>2026-07-21T12:11:48.983Z</time>
      </trkpt>
      <trkpt lat="47.209408" lon="10.905919">
        <ele>1147.605021</ele>
        <time>2026-07-21T12:11:52.990Z</time>
      </trkpt>
      <trkpt lat="47.209493" lon="10.905843">
        <ele>1149.029806</ele>
        <time>2026-07-21T12:11:56.984Z</time>
      </trkpt>
      <trkpt lat="47.209576" lon="10.905779">
        <ele>1150.372163</ele>
        <time>2026-07-21T12:12:00.985Z</time>
      </trkpt>
      <trkpt lat="47.209671" lon="10.905716">
        <ele>1151.864913</ele>
        <time>2026-07-21T12:12:04.983Z</time>
      </trkpt>
      <trkpt lat="47.209763" lon="10.905655">
        <ele>1153.310481</ele>
        <time>2026-07-21T12:12:08.983Z</time>
      </trkpt>
      <trkpt lat="47.209845" lon="10.905565">
        <ele>1154.775847</ele>
        <time>2026-07-21T12:12:12.987Z</time>
      </trkpt>
      <trkpt lat="47.209928" lon="10.905492">
        <ele>1156.161019</ele>
        <time>2026-07-21T12:12:16.976Z</time>
      </trkpt>
      <trkpt lat="47.210000" lon="10.905397">
        <ele>1157.546234</ele>
        <time>2026-07-21T12:12:20.988Z</time>
      </trkpt>
      <trkpt lat="47.210056" lon="10.905288">
        <ele>1158.876262</ele>
        <time>2026-07-21T12:12:24.991Z</time>
      </trkpt>
      <trkpt lat="47.210105" lon="10.905162">
        <ele>1160.289238</ele>
        <time>2026-07-21T12:12:28.983Z</time>
      </trkpt>
      <trkpt lat="47.210161" lon="10.905030">
        <ele>1161.803826</ele>
        <time>2026-07-21T12:12:32.983Z</time>
      </trkpt>
      <trkpt lat="47.210253" lon="10.904969">
        <ele>1163.249392</ele>
        <time>2026-07-21T12:12:36.985Z</time>
      </trkpt>
      <trkpt lat="47.210338" lon="10.905041">
        <ele>1164.654356</ele>
        <time>2026-07-21T12:12:40.984Z</time>
      </trkpt>
      <trkpt lat="47.210344" lon="10.905184">
        <ele>1166.048703</ele>
        <time>2026-07-21T12:12:44.985Z</time>
      </trkpt>
      <trkpt lat="47.210311" lon="10.905322">
        <ele>1167.472520</ele>
        <time>2026-07-21T12:12:48.982Z</time>
      </trkpt>
      <trkpt lat="47.210269" lon="10.905466">
        <ele>1168.893312</ele>
        <time>2026-07-21T12:12:52.987Z</time>
      </trkpt>
      <trkpt lat="47.210212" lon="10.905580">
        <ele>1170.168266</ele>
        <time>2026-07-21T12:12:56.984Z</time>
      </trkpt>
      <trkpt lat="47.210150" lon="10.905680">
        <ele>1171.387716</ele>
        <time>2026-07-21T12:13:00.980Z</time>
      </trkpt>
      <trkpt lat="47.210083" lon="10.905785">
        <ele>1172.685255</ele>
        <time>2026-07-21T12:13:04.981Z</time>
      </trkpt>
      <trkpt lat="47.210018" lon="10.905890">
        <ele>1173.964785</ele>
        <time>2026-07-21T12:13:08.984Z</time>
      </trkpt>
      <trkpt lat="47.209949" lon="10.905997">
        <ele>1175.293630</ele>
        <time>2026-07-21T12:13:12.987Z</time>
      </trkpt>
      <trkpt lat="47.209865" lon="10.906089">
        <ele>1176.681842</ele>
        <time>2026-07-21T12:13:16.982Z</time>
      </trkpt>
      <trkpt lat="47.209802" lon="10.906191">
        <ele>1177.923542</ele>
        <time>2026-07-21T12:13:20.988Z</time>
      </trkpt>
      <trkpt lat="47.209739" lon="10.906295">
        <ele>1179.178630</ele>
        <time>2026-07-21T12:13:24.979Z</time>
      </trkpt>
      <trkpt lat="47.209682" lon="10.906398">
        <ele>1180.375240</ele>
        <time>2026-07-21T12:13:28.986Z</time>
      </trkpt>
      <trkpt lat="47.209614" lon="10.906519">
        <ele>1181.789707</ele>
        <time>2026-07-21T12:13:33.979Z</time>
      </trkpt>
      <trkpt lat="47.209562" lon="10.906644">
        <ele>1183.109938</ele>
        <time>2026-07-21T12:13:37.989Z</time>
      </trkpt>
      <trkpt lat="47.209510" lon="10.906768">
        <ele>1184.422496</ele>
        <time>2026-07-21T12:13:41.983Z</time>
      </trkpt>
      <trkpt lat="47.209447" lon="10.906883">
        <ele>1185.753171</ele>
        <time>2026-07-21T12:13:45.982Z</time>
      </trkpt>
      <trkpt lat="47.209395" lon="10.907002">
        <ele>1187.027629</ele>
        <time>2026-07-21T12:13:49.982Z</time>
      </trkpt>
      <trkpt lat="47.209349" lon="10.907127">
        <ele>1188.308115</ele>
        <time>2026-07-21T12:13:53.980Z</time>
      </trkpt>
      <trkpt lat="47.209298" lon="10.907255">
        <ele>1189.644712</ele>
        <time>2026-07-21T12:13:57.990Z</time>
      </trkpt>
      <trkpt lat="47.209244" lon="10.907374">
        <ele>1190.933711</ele>
        <time>2026-07-21T12:14:01.983Z</time>
      </trkpt>
      <trkpt lat="47.209194" lon="10.907495">
        <ele>1192.310696</ele>
        <time>2026-07-21T12:14:05.989Z</time>
      </trkpt>
      <trkpt lat="47.209140" lon="10.907614">
        <ele>1193.770660</ele>
        <time>2026-07-21T12:14:09.988Z</time>
      </trkpt>
      <trkpt lat="47.209077" lon="10.907732">
        <ele>1195.301776</ele>
        <time>2026-07-21T12:14:13.986Z</time>
      </trkpt>
      <trkpt lat="47.208986" lon="10.907805">
        <ele>1196.858134</ele>
        <time>2026-07-21T12:14:17.981Z</time>
      </trkpt>
      <trkpt lat="47.208889" lon="10.907845">
        <ele>1198.370927</ele>
        <time>2026-07-21T12:14:21.977Z</time>
      </trkpt>
      <trkpt lat="47.208790" lon="10.907894">
        <ele>1199.939467</ele>
        <time>2026-07-21T12:14:25.980Z</time>
      </trkpt>
      <trkpt lat="47.208700" lon="10.907949">
        <ele>1201.402900</ele>
        <time>2026-07-21T12:14:29.987Z</time>
      </trkpt>
      <trkpt lat="47.208621" lon="10.908019">
        <ele>1202.787648</ele>
        <time>2026-07-21T12:14:34.984Z</time>
      </trkpt>
      <trkpt lat="47.208538" lon="10.908125">
        <ele>1204.437837</ele>
        <time>2026-07-21T12:14:39.980Z</time>
      </trkpt>
      <trkpt lat="47.208481" lon="10.908231">
        <ele>1205.817039</ele>
        <time>2026-07-21T12:14:43.989Z</time>
      </trkpt>
      <trkpt lat="47.208412" lon="10.908335">
        <ele>1207.300106</ele>
        <time>2026-07-21T12:14:47.979Z</time>
      </trkpt>
      <trkpt lat="47.208336" lon="10.908423">
        <ele>1208.752231</ele>
        <time>2026-07-21T12:14:51.981Z</time>
      </trkpt>
      <trkpt lat="47.208250" lon="10.908508">
        <ele>1210.307870</ele>
        <time>2026-07-21T12:14:55.985Z</time>
      </trkpt>
      <trkpt lat="47.208198" lon="10.908616">
        <ele>1211.658367</ele>
        <time>2026-07-21T12:14:59.979Z</time>
      </trkpt>
      <trkpt lat="47.208150" lon="10.908760">
        <ele>1213.294785</ele>
        <time>2026-07-21T12:15:04.985Z</time>
      </trkpt>
      <trkpt lat="47.208106" lon="10.908914">
        <ele>1214.999202</ele>
        <time>2026-07-21T12:15:09.984Z</time>
      </trkpt>
      <trkpt lat="47.208063" lon="10.909042">
        <ele>1216.456010</ele>
        <time>2026-07-21T12:15:13.991Z</time>
      </trkpt>
      <trkpt lat="47.208009" lon="10.909188">
        <ele>1218.151966</ele>
        <time>2026-07-21T12:15:18.985Z</time>
      </trkpt>
      <trkpt lat="47.207958" lon="10.909310">
        <ele>1219.505764</ele>
        <time>2026-07-21T12:15:22.980Z</time>
      </trkpt>
      <trkpt lat="47.207915" lon="10.909437">
        <ele>1220.818708</ele>
        <time>2026-07-21T12:15:26.979Z</time>
      </trkpt>
      <trkpt lat="47.207876" lon="10.909569">
        <ele>1222.150565</ele>
        <time>2026-07-21T12:15:30.987Z</time>
      </trkpt>
      <trkpt lat="47.207828" lon="10.909701">
        <ele>1223.535879</ele>
        <time>2026-07-21T12:15:34.993Z</time>
      </trkpt>
      <trkpt lat="47.207755" lon="10.909795">
        <ele>1224.856872</ele>
        <time>2026-07-21T12:15:38.986Z</time>
      </trkpt>
      <trkpt lat="47.207673" lon="10.909872">
        <ele>1226.181609</ele>
        <time>2026-07-21T12:15:42.987Z</time>
      </trkpt>
      <trkpt lat="47.207598" lon="10.909959">
        <ele>1227.482173</ele>
        <time>2026-07-21T12:15:46.989Z</time>
      </trkpt>
      <trkpt lat="47.207520" lon="10.910042">
        <ele>1228.793049</ele>
        <time>2026-07-21T12:15:50.978Z</time>
      </trkpt>
      <trkpt lat="47.207431" lon="10.910106">
        <ele>1230.142143</ele>
        <time>2026-07-21T12:15:54.983Z</time>
      </trkpt>
      <trkpt lat="47.207350" lon="10.910179">
        <ele>1231.435716</ele>
        <time>2026-07-21T12:15:58.984Z</time>
      </trkpt>
      <trkpt lat="47.207281" lon="10.910272">
        <ele>1232.709945</ele>
        <time>2026-07-21T12:16:02.986Z</time>
      </trkpt>
      <trkpt lat="47.207216" lon="10.910366">
        <ele>1233.951008</ele>
        <time>2026-07-21T12:16:06.983Z</time>
      </trkpt>
      <trkpt lat="47.207153" lon="10.910502">
        <ele>1235.474090</ele>
        <time>2026-07-21T12:16:11.977Z</time>
      </trkpt>
      <trkpt lat="47.207115" lon="10.910627">
        <ele>1236.741206</ele>
        <time>2026-07-21T12:16:15.978Z</time>
      </trkpt>
      <trkpt lat="47.207119" lon="10.910776">
        <ele>1238.120945</ele>
        <time>2026-07-21T12:16:21.989Z</time>
      </trkpt>
      <trkpt lat="47.207086" lon="10.910929">
        <ele>1239.606255</ele>
        <time>2026-07-21T12:16:26.980Z</time>
      </trkpt>
      <trkpt lat="47.207067" lon="10.911088">
        <ele>1241.100033</ele>
        <time>2026-07-21T12:16:31.986Z</time>
      </trkpt>
      <trkpt lat="47.207055" lon="10.911220">
        <ele>1242.332287</ele>
        <time>2026-07-21T12:16:35.981Z</time>
      </trkpt>
      <trkpt lat="47.207033" lon="10.911356">
        <ele>1243.655691</ele>
        <time>2026-07-21T12:16:39.986Z</time>
      </trkpt>
      <trkpt lat="47.207024" lon="10.911489">
        <ele>1244.947374</ele>
        <time>2026-07-21T12:16:43.983Z</time>
      </trkpt>
      <trkpt lat="47.206986" lon="10.911614">
        <ele>1246.270817</ele>
        <time>2026-07-21T12:16:47.987Z</time>
      </trkpt>
      <trkpt lat="47.206954" lon="10.911742">
        <ele>1247.588921</ele>
        <time>2026-07-21T12:16:51.989Z</time>
      </trkpt>
      <trkpt lat="47.206908" lon="10.911867">
        <ele>1248.962782</ele>
        <time>2026-07-21T12:16:55.981Z</time>
      </trkpt>
      <trkpt lat="47.206854" lon="10.911994">
        <ele>1250.410698</ele>
        <time>2026-07-21T12:16:59.981Z</time>
      </trkpt>
      <trkpt lat="47.206790" lon="10.912117">
        <ele>1251.907981</ele>
        <time>2026-07-21T12:17:03.985Z</time>
      </trkpt>
      <trkpt lat="47.206733" lon="10.912242">
        <ele>1253.362897</ele>
        <time>2026-07-21T12:17:07.980Z</time>
      </trkpt>
      <trkpt lat="47.206684" lon="10.912371">
        <ele>1254.791208</ele>
        <time>2026-07-21T12:17:11.981Z</time>
      </trkpt>
      <trkpt lat="47.206651" lon="10.912499">
        <ele>1256.114298</ele>
        <time>2026-07-21T12:17:15.986Z</time>
      </trkpt>
      <trkpt lat="47.206628" lon="10.912640">
        <ele>1257.515673</ele>
        <time>2026-07-21T12:17:19.989Z</time>
      </trkpt>
      <trkpt lat="47.206615" lon="10.912781">
        <ele>1258.890811</ele>
        <time>2026-07-21T12:17:23.981Z</time>
      </trkpt>
      <trkpt lat="47.206602" lon="10.912922">
        <ele>1260.265948</ele>
        <time>2026-07-21T12:17:27.984Z</time>
      </trkpt>
      <trkpt lat="47.206589" lon="10.913061">
        <ele>1261.621936</ele>
        <time>2026-07-21T12:17:31.988Z</time>
      </trkpt>
      <trkpt lat="47.206572" lon="10.913202">
        <ele>1263.005876</ele>
        <time>2026-07-21T12:17:35.983Z</time>
      </trkpt>
      <trkpt lat="47.206560" lon="10.913339">
        <ele>1264.340826</ele>
        <time>2026-07-21T12:17:39.979Z</time>
      </trkpt>
      <trkpt lat="47.206545" lon="10.913475">
        <ele>1265.672361</ele>
        <time>2026-07-21T12:17:43.982Z</time>
      </trkpt>
      <trkpt lat="47.206507" lon="10.913599">
        <ele>1266.986999</ele>
        <time>2026-07-21T12:17:47.983Z</time>
      </trkpt>
      <trkpt lat="47.206449" lon="10.913716">
        <ele>1268.386733</ele>
        <time>2026-07-21T12:17:51.981Z</time>
      </trkpt>
      <trkpt lat="47.206380" lon="10.913817">
        <ele>1269.731233</ele>
        <time>2026-07-21T12:17:55.982Z</time>
      </trkpt>
      <trkpt lat="47.206295" lon="10.913894">
        <ele>1271.105130</ele>
        <time>2026-07-21T12:17:59.977Z</time>
      </trkpt>
      <trkpt lat="47.206211" lon="10.913969">
        <ele>1272.457530</ele>
        <time>2026-07-21T12:18:03.982Z</time>
      </trkpt>
      <trkpt lat="47.206121" lon="10.914050">
        <ele>1273.909657</ele>
        <time>2026-07-21T12:18:07.985Z</time>
      </trkpt>
      <trkpt lat="47.206039" lon="10.914123">
        <ele>1275.228819</ele>
        <time>2026-07-21T12:18:11.978Z</time>
      </trkpt>
      <trkpt lat="47.205951" lon="10.914210">
        <ele>1276.688057</ele>
        <time>2026-07-21T12:18:16.978Z</time>
      </trkpt>
      <trkpt lat="47.205897" lon="10.914318">
        <ele>1277.942111</ele>
        <time>2026-07-21T12:18:20.981Z</time>
      </trkpt>
      <trkpt lat="47.205869" lon="10.914473">
        <ele>1279.442016</ele>
        <time>2026-07-21T12:18:25.977Z</time>
      </trkpt>
      <trkpt lat="47.205854" lon="10.914635">
        <ele>1280.971023</ele>
        <time>2026-07-21T12:18:30.981Z</time>
      </trkpt>
      <trkpt lat="47.205838" lon="10.914796">
        <ele>1282.492696</ele>
        <time>2026-07-21T12:18:35.988Z</time>
      </trkpt>
      <trkpt lat="47.205818" lon="10.914949">
        <ele>1283.949776</ele>
        <time>2026-07-21T12:18:40.984Z</time>
      </trkpt>
      <trkpt lat="47.205797" lon="10.915105">
        <ele>1285.437031</ele>
        <time>2026-07-21T12:18:45.985Z</time>
      </trkpt>
      <trkpt lat="47.205786" lon="10.915237">
        <ele>1286.680729</ele>
        <time>2026-07-21T12:18:49.980Z</time>
      </trkpt>
      <trkpt lat="47.205775" lon="10.915395">
        <ele>1288.166063</ele>
        <time>2026-07-21T12:18:54.981Z</time>
      </trkpt>
      <trkpt lat="47.205752" lon="10.915523">
        <ele>1289.404264</ele>
        <time>2026-07-21T12:18:58.982Z</time>
      </trkpt>
      <trkpt lat="47.205739" lon="10.915676">
        <ele>1290.846248</ele>
        <time>2026-07-21T12:19:03.980Z</time>
      </trkpt>
      <trkpt lat="47.205721" lon="10.915840">
        <ele>1292.399842</ele>
        <time>2026-07-21T12:19:08.981Z</time>
      </trkpt>
      <trkpt lat="47.205696" lon="10.915998">
        <ele>1293.794933</ele>
        <time>2026-07-21T12:19:13.983Z</time>
      </trkpt>
      <trkpt lat="47.205666" lon="10.916150">
        <ele>1294.982212</ele>
        <time>2026-07-21T12:19:18.984Z</time>
      </trkpt>
      <trkpt lat="47.205617" lon="10.916286">
        <ele>1296.136919</ele>
        <time>2026-07-21T12:19:23.979Z</time>
      </trkpt>
      <trkpt lat="47.205571" lon="10.916435">
        <ele>1297.364544</ele>
        <time>2026-07-21T12:19:28.979Z</time>
      </trkpt>
      <trkpt lat="47.205643" lon="10.916514">
        <ele>1298.356054</ele>
        <time>2026-07-21T12:19:33.983Z</time>
      </trkpt>
      <trkpt lat="47.205739" lon="10.916442">
        <ele>1299.545650</ele>
        <time>2026-07-21T12:19:40.982Z</time>
      </trkpt>
      <trkpt lat="47.205790" lon="10.916326">
        <ele>1300.582064</ele>
        <time>2026-07-21T12:19:44.978Z</time>
      </trkpt>
      <trkpt lat="47.205837" lon="10.916207">
        <ele>1301.614553</ele>
        <time>2026-07-21T12:19:48.982Z</time>
      </trkpt>
      <trkpt lat="47.205883" lon="10.916086">
        <ele>1302.654601</ele>
        <time>2026-07-21T12:19:52.983Z</time>
      </trkpt>
      <trkpt lat="47.205936" lon="10.915964">
        <ele>1303.740810</ele>
        <time>2026-07-21T12:19:56.980Z</time>
      </trkpt>
      <trkpt lat="47.205984" lon="10.915839">
        <ele>1304.817833</ele>
        <time>2026-07-21T12:20:00.977Z</time>
      </trkpt>
      <trkpt lat="47.206023" lon="10.915710">
        <ele>1305.876932</ele>
        <time>2026-07-21T12:20:04.976Z</time>
      </trkpt>
      <trkpt lat="47.206073" lon="10.915584">
        <ele>1306.971459</ele>
        <time>2026-07-21T12:20:08.978Z</time>
      </trkpt>
      <trkpt lat="47.206123" lon="10.915454">
        <ele>1308.091996</ele>
        <time>2026-07-21T12:20:12.981Z</time>
      </trkpt>
      <trkpt lat="47.206163" lon="10.915327">
        <ele>1309.142000</ele>
        <time>2026-07-21T12:20:16.978Z</time>
      </trkpt>
      <trkpt lat="47.206205" lon="10.915203">
        <ele>1310.181294</ele>
        <time>2026-07-21T12:20:20.981Z</time>
      </trkpt>
      <trkpt lat="47.206272" lon="10.915094">
        <ele>1311.283874</ele>
        <time>2026-07-21T12:20:24.982Z</time>
      </trkpt>
      <trkpt lat="47.206355" lon="10.914999">
        <ele>1312.444721</ele>
        <time>2026-07-21T12:20:28.987Z</time>
      </trkpt>
      <trkpt lat="47.206442" lon="10.914919">
        <ele>1313.503062</ele>
        <time>2026-07-21T12:20:32.982Z</time>
      </trkpt>
      <trkpt lat="47.206532" lon="10.914851">
        <ele>1314.421669</ele>
        <time>2026-07-21T12:20:36.980Z</time>
      </trkpt>
      <trkpt lat="47.206618" lon="10.914777">
        <ele>1315.326221</ele>
        <time>2026-07-21T12:20:40.985Z</time>
      </trkpt>
      <trkpt lat="47.206706" lon="10.914697">
        <ele>1316.265407</ele>
        <time>2026-07-21T12:20:44.988Z</time>
      </trkpt>
      <trkpt lat="47.206793" lon="10.914615">
        <ele>1317.203473</ele>
        <time>2026-07-21T12:20:48.981Z</time>
      </trkpt>
      <trkpt lat="47.206878" lon="10.914527">
        <ele>1318.147094</ele>
        <time>2026-07-21T12:20:52.987Z</time>
      </trkpt>
      <trkpt lat="47.206966" lon="10.914449">
        <ele>1319.079854</ele>
        <time>2026-07-21T12:20:56.978Z</time>
      </trkpt>
      <trkpt lat="47.207048" lon="10.914372">
        <ele>1319.963053</ele>
        <time>2026-07-21T12:21:00.980Z</time>
      </trkpt>
      <trkpt lat="47.207134" lon="10.914292">
        <ele>1320.886834</ele>
        <time>2026-07-21T12:21:04.983Z</time>
      </trkpt>
      <trkpt lat="47.207224" lon="10.914216">
        <ele>1321.828998</ele>
        <time>2026-07-21T12:21:08.985Z</time>
      </trkpt>
      <trkpt lat="47.207310" lon="10.914134">
        <ele>1322.759428</ele>
        <time>2026-07-21T12:21:12.985Z</time>
      </trkpt>
      <trkpt lat="47.207388" lon="10.914036">
        <ele>1323.690617</ele>
        <time>2026-07-21T12:21:16.979Z</time>
      </trkpt>
      <trkpt lat="47.207460" lon="10.913930">
        <ele>1324.615283</ele>
        <time>2026-07-21T12:21:20.979Z</time>
      </trkpt>
      <trkpt lat="47.207514" lon="10.913803">
        <ele>1325.539510</ele>
        <time>2026-07-21T12:21:24.981Z</time>
      </trkpt>
      <trkpt lat="47.207559" lon="10.913677">
        <ele>1326.417633</ele>
        <time>2026-07-21T12:21:28.984Z</time>
      </trkpt>
      <trkpt lat="47.207623" lon="10.913555">
        <ele>1327.368481</ele>
        <time>2026-07-21T12:21:32.980Z</time>
      </trkpt>
      <trkpt lat="47.207697" lon="10.913436">
        <ele>1328.363662</ele>
        <time>2026-07-21T12:21:36.987Z</time>
      </trkpt>
      <trkpt lat="47.207769" lon="10.913320">
        <ele>1329.332930</ele>
        <time>2026-07-21T12:21:40.983Z</time>
      </trkpt>
      <trkpt lat="47.207833" lon="10.913191">
        <ele>1330.367248</ele>
        <time>2026-07-21T12:21:45.985Z</time>
      </trkpt>
      <trkpt lat="47.207896" lon="10.913064">
        <ele>1331.394732</ele>
        <time>2026-07-21T12:21:49.980Z</time>
      </trkpt>
      <trkpt lat="47.207973" lon="10.912955">
        <ele>1332.422194</ele>
        <time>2026-07-21T12:21:53.980Z</time>
      </trkpt>
      <trkpt lat="47.208051" lon="10.912850">
        <ele>1333.438792</ele>
        <time>2026-07-21T12:21:57.988Z</time>
      </trkpt>
      <trkpt lat="47.208142" lon="10.912776">
        <ele>1334.438697</ele>
        <time>2026-07-21T12:22:01.990Z</time>
      </trkpt>
      <trkpt lat="47.208238" lon="10.912708">
        <ele>1335.463358</ele>
        <time>2026-07-21T12:22:05.979Z</time>
      </trkpt>
      <trkpt lat="47.208331" lon="10.912632">
        <ele>1336.486421</ele>
        <time>2026-07-21T12:22:09.982Z</time>
      </trkpt>
      <trkpt lat="47.208415" lon="10.912544">
        <ele>1337.478042</ele>
        <time>2026-07-21T12:22:13.983Z</time>
      </trkpt>
      <trkpt lat="47.208495" lon="10.912449">
        <ele>1338.466634</ele>
        <time>2026-07-21T12:22:17.987Z</time>
      </trkpt>
      <trkpt lat="47.208580" lon="10.912360">
        <ele>1339.469878</ele>
        <time>2026-07-21T12:22:21.979Z</time>
      </trkpt>
      <trkpt lat="47.208668" lon="10.912276">
        <ele>1340.478631</ele>
        <time>2026-07-21T12:22:25.986Z</time>
      </trkpt>
      <trkpt lat="47.208750" lon="10.912189">
        <ele>1341.450806</ele>
        <time>2026-07-21T12:22:29.981Z</time>
      </trkpt>
      <trkpt lat="47.208829" lon="10.912108">
        <ele>1342.376772</ele>
        <time>2026-07-21T12:22:33.981Z</time>
      </trkpt>
      <trkpt lat="47.208913" lon="10.912036">
        <ele>1343.311662</ele>
        <time>2026-07-21T12:22:37.984Z</time>
      </trkpt>
      <trkpt lat="47.208989" lon="10.911955">
        <ele>1344.214101</ele>
        <time>2026-07-21T12:22:41.983Z</time>
      </trkpt>
      <trkpt lat="47.209064" lon="10.911873">
        <ele>1345.112648</ele>
        <time>2026-07-21T12:22:45.984Z</time>
      </trkpt>
      <trkpt lat="47.209129" lon="10.911769">
        <ele>1346.035991</ele>
        <time>2026-07-21T12:22:49.987Z</time>
      </trkpt>
      <trkpt lat="47.209187" lon="10.911646">
        <ele>1347.082693</ele>
        <time>2026-07-21T12:22:53.978Z</time>
      </trkpt>
      <trkpt lat="47.209248" lon="10.911528">
        <ele>1348.348191</ele>
        <time>2026-07-21T12:22:57.983Z</time>
      </trkpt>
      <trkpt lat="47.209298" lon="10.911404">
        <ele>1349.578852</ele>
        <time>2026-07-21T12:23:01.979Z</time>
      </trkpt>
      <trkpt lat="47.209342" lon="10.911283">
        <ele>1350.750164</ele>
        <time>2026-07-21T12:23:05.984Z</time>
      </trkpt>
      <trkpt lat="47.209388" lon="10.911159">
        <ele>1351.955947</ele>
        <time>2026-07-21T12:23:09.980Z</time>
      </trkpt>
      <trkpt lat="47.209442" lon="10.911019">
        <ele>1353.329935</ele>
        <time>2026-07-21T12:23:14.982Z</time>
      </trkpt>
      <trkpt lat="47.209485" lon="10.910869">
        <ele>1354.719416</ele>
        <time>2026-07-21T12:23:19.982Z</time>
      </trkpt>
      <trkpt lat="47.209515" lon="10.910737">
        <ele>1355.907335</ele>
        <time>2026-07-21T12:23:23.988Z</time>
      </trkpt>
      <trkpt lat="47.209545" lon="10.910608">
        <ele>1357.071001</ele>
        <time>2026-07-21T12:23:27.981Z</time>
      </trkpt>
      <trkpt lat="47.209615" lon="10.910495">
        <ele>1358.376157</ele>
        <time>2026-07-21T12:23:32.990Z</time>
      </trkpt>
      <trkpt lat="47.209679" lon="10.910603">
        <ele>1359.599287</ele>
        <time>2026-07-21T12:23:39.978Z</time>
      </trkpt>
      <trkpt lat="47.209695" lon="10.910758">
        <ele>1360.937303</ele>
        <time>2026-07-21T12:23:44.982Z</time>
      </trkpt>
      <trkpt lat="47.209695" lon="10.910891">
        <ele>1362.072377</ele>
        <time>2026-07-21T12:23:48.985Z</time>
      </trkpt>
      <trkpt lat="47.209688" lon="10.911026">
        <ele>1363.227872</ele>
        <time>2026-07-21T12:23:52.981Z</time>
      </trkpt>
      <trkpt lat="47.209680" lon="10.911161">
        <ele>1364.384391</ele>
        <time>2026-07-21T12:23:56.979Z</time>
      </trkpt>
      <trkpt lat="47.209661" lon="10.911298">
        <ele>1365.577721</ele>
        <time>2026-07-21T12:24:00.981Z</time>
      </trkpt>
      <trkpt lat="47.209630" lon="10.911440">
        <ele>1366.850648</ele>
        <time>2026-07-21T12:24:05.984Z</time>
      </trkpt>
      <trkpt lat="47.209597" lon="10.911586">
        <ele>1368.163833</ele>
        <time>2026-07-21T12:24:10.982Z</time>
      </trkpt>
      <trkpt lat="47.209561" lon="10.911740">
        <ele>1369.570546</ele>
        <time>2026-07-21T12:24:15.989Z</time>
      </trkpt>
      <trkpt lat="47.209541" lon="10.911873">
        <ele>1370.850397</ele>
        <time>2026-07-21T12:24:19.988Z</time>
      </trkpt>
      <trkpt lat="47.209536" lon="10.912008">
        <ele>1372.120674</ele>
        <time>2026-07-21T12:24:23.985Z</time>
      </trkpt>
      <trkpt lat="47.209552" lon="10.912155">
        <ele>1373.519428</ele>
        <time>2026-07-21T12:24:29.981Z</time>
      </trkpt>
      <trkpt lat="47.209543" lon="10.912303">
        <ele>1374.915523</ele>
        <time>2026-07-21T12:24:34.984Z</time>
      </trkpt>
      <trkpt lat="47.209558" lon="10.912466">
        <ele>1376.460977</ele>
        <time>2026-07-21T12:24:39.982Z</time>
      </trkpt>
      <trkpt lat="47.209553" lon="10.912627">
        <ele>1377.975233</ele>
        <time>2026-07-21T12:24:44.977Z</time>
      </trkpt>
      <trkpt lat="47.209529" lon="10.912760">
        <ele>1379.268170</ele>
        <time>2026-07-21T12:24:49.984Z</time>
      </trkpt>
      <trkpt lat="47.209474" lon="10.912886">
        <ele>1380.675336</ele>
        <time>2026-07-21T12:24:54.981Z</time>
      </trkpt>
      <trkpt lat="47.209412" lon="10.913021">
        <ele>1382.206396</ele>
        <time>2026-07-21T12:24:59.981Z</time>
      </trkpt>
      <trkpt lat="47.209351" lon="10.913129">
        <ele>1383.526033</ele>
        <time>2026-07-21T12:25:03.983Z</time>
      </trkpt>
      <trkpt lat="47.209292" lon="10.913242">
        <ele>1384.865092</ele>
        <time>2026-07-21T12:25:07.979Z</time>
      </trkpt>
      <trkpt lat="47.209230" lon="10.913350">
        <ele>1386.193615</ele>
        <time>2026-07-21T12:25:11.981Z</time>
      </trkpt>
      <trkpt lat="47.209176" lon="10.913458">
        <ele>1387.453560</ele>
        <time>2026-07-21T12:25:15.985Z</time>
      </trkpt>
      <trkpt lat="47.209111" lon="10.913584">
        <ele>1388.940060</ele>
        <time>2026-07-21T12:25:20.985Z</time>
      </trkpt>
      <trkpt lat="47.209050" lon="10.913692">
        <ele>1390.259701</ele>
        <time>2026-07-21T12:25:24.983Z</time>
      </trkpt>
      <trkpt lat="47.208993" lon="10.913803">
        <ele>1391.567051</ele>
        <time>2026-07-21T12:25:28.983Z</time>
      </trkpt>
      <trkpt lat="47.208943" lon="10.913936">
        <ele>1392.995254</ele>
        <time>2026-07-21T12:25:33.980Z</time>
      </trkpt>
      <trkpt lat="47.208911" lon="10.914061">
        <ele>1394.250330</ele>
        <time>2026-07-21T12:25:37.981Z</time>
      </trkpt>
      <trkpt lat="47.208886" lon="10.914196">
        <ele>1395.757681</ele>
        <time>2026-07-21T12:25:41.988Z</time>
      </trkpt>
      <trkpt lat="47.208869" lon="10.914338">
        <ele>1397.313055</ele>
        <time>2026-07-21T12:25:45.983Z</time>
      </trkpt>
      <trkpt lat="47.208823" lon="10.914454">
        <ele>1398.761953</ele>
        <time>2026-07-21T12:25:49.983Z</time>
      </trkpt>
      <trkpt lat="47.208743" lon="10.914549">
        <ele>1400.394099</ele>
        <time>2026-07-21T12:25:53.981Z</time>
      </trkpt>
      <trkpt lat="47.208692" lon="10.914665">
        <ele>1401.884604</ele>
        <time>2026-07-21T12:25:58.980Z</time>
      </trkpt>
      <trkpt lat="47.208864" lon="10.914608">
        <ele>1404.684165</ele>
        <time>2026-07-21T12:27:51.984Z</time>
      </trkpt>
      <trkpt lat="47.208943" lon="10.914526">
        <ele>1406.219110</ele>
        <time>2026-07-21T12:27:57.985Z</time>
      </trkpt>
      <trkpt lat="47.209010" lon="10.914429">
        <ele>1407.711332</ele>
        <time>2026-07-21T12:28:03.979Z</time>
      </trkpt>
      <trkpt lat="47.209084" lon="10.914320">
        <ele>1409.373630</ele>
        <time>2026-07-21T12:28:10.981Z</time>
      </trkpt>
      <trkpt lat="47.209166" lon="10.914251">
        <ele>1410.873437</ele>
        <time>2026-07-21T12:28:16.979Z</time>
      </trkpt>
      <trkpt lat="47.209253" lon="10.914212">
        <ele>1412.317554</ele>
        <time>2026-07-21T12:28:22.976Z</time>
      </trkpt>
      <trkpt lat="47.209334" lon="10.914145">
        <ele>1413.792908</ele>
        <time>2026-07-21T12:28:30.979Z</time>
      </trkpt>
      <trkpt lat="47.209422" lon="10.914086">
        <ele>1415.328376</ele>
        <time>2026-07-21T12:28:36.984Z</time>
      </trkpt>
      <trkpt lat="47.209504" lon="10.914011">
        <ele>1416.861331</ele>
        <time>2026-07-21T12:28:42.977Z</time>
      </trkpt>
      <trkpt lat="47.209582" lon="10.913906">
        <ele>1418.539696</ele>
        <time>2026-07-21T12:28:48.980Z</time>
      </trkpt>
      <trkpt lat="47.209654" lon="10.913815">
        <ele>1420.046576</ele>
        <time>2026-07-21T12:28:54.978Z</time>
      </trkpt>
      <trkpt lat="47.209745" lon="10.913748">
        <ele>1421.662234</ele>
        <time>2026-07-21T12:29:01.980Z</time>
      </trkpt>
      <trkpt lat="47.209838" lon="10.913680">
        <ele>1423.302956</ele>
        <time>2026-07-21T12:29:08.984Z</time>
      </trkpt>
      <trkpt lat="47.209924" lon="10.913611">
        <ele>1424.832082</ele>
        <time>2026-07-21T12:29:14.981Z</time>
      </trkpt>
      <trkpt lat="47.210012" lon="10.913555">
        <ele>1426.328834</ele>
        <time>2026-07-21T12:29:22.977Z</time>
      </trkpt>
      <trkpt lat="47.210068" lon="10.913659">
        <ele>1427.736292</ele>
        <time>2026-07-21T12:29:29.984Z</time>
      </trkpt>
      <trkpt lat="47.209980" lon="10.913704">
        <ele>1429.190700</ele>
        <time>2026-07-21T12:29:34.982Z</time>
      </trkpt>
      <trkpt lat="47.209898" lon="10.913797">
        <ele>1430.806790</ele>
        <time>2026-07-21T12:29:40.979Z</time>
      </trkpt>
      <trkpt lat="47.209830" lon="10.913893">
        <ele>1432.277731</ele>
        <time>2026-07-21T12:29:45.987Z</time>
      </trkpt>
      <trkpt lat="47.209781" lon="10.914004">
        <ele>1433.681683</ele>
        <time>2026-07-21T12:29:50.982Z</time>
      </trkpt>
      <trkpt lat="47.209752" lon="10.914157">
        <ele>1435.366325</ele>
        <time>2026-07-21T12:29:56.982Z</time>
      </trkpt>
      <trkpt lat="47.209733" lon="10.914300">
        <ele>1436.911669</ele>
        <time>2026-07-21T12:30:02.982Z</time>
      </trkpt>
      <trkpt lat="47.209723" lon="10.914431">
        <ele>1438.309752</ele>
        <time>2026-07-21T12:30:07.985Z</time>
      </trkpt>
      <trkpt lat="47.209713" lon="10.914587">
        <ele>1439.971583</ele>
        <time>2026-07-21T12:30:13.981Z</time>
      </trkpt>
      <trkpt lat="47.209696" lon="10.914719">
        <ele>1441.396465</ele>
        <time>2026-07-21T12:30:18.981Z</time>
      </trkpt>
      <trkpt lat="47.209676" lon="10.914853">
        <ele>1442.851520</ele>
        <time>2026-07-21T12:30:23.983Z</time>
      </trkpt>
      <trkpt lat="47.209647" lon="10.914988">
        <ele>1444.353163</ele>
        <time>2026-07-21T12:30:29.975Z</time>
      </trkpt>
      <trkpt lat="47.209594" lon="10.915116">
        <ele>1445.942989</ele>
        <time>2026-07-21T12:30:35.981Z</time>
      </trkpt>
      <trkpt lat="47.209556" lon="10.915236">
        <ele>1447.347154</ele>
        <time>2026-07-21T12:30:41.977Z</time>
      </trkpt>
      <trkpt lat="47.209514" lon="10.915371">
        <ele>1448.921929</ele>
        <time>2026-07-21T12:30:47.982Z</time>
      </trkpt>
      <trkpt lat="47.209469" lon="10.915511">
        <ele>1450.564548</ele>
        <time>2026-07-21T12:30:53.983Z</time>
      </trkpt>
      <trkpt lat="47.209423" lon="10.915632">
        <ele>1451.807894</ele>
        <time>2026-07-21T12:30:58.979Z</time>
      </trkpt>
      <trkpt lat="47.209380" lon="10.915769">
        <ele>1453.086420</ele>
        <time>2026-07-21T12:31:04.984Z</time>
      </trkpt>
      <trkpt lat="47.209344" lon="10.915904">
        <ele>1454.315071</ele>
        <time>2026-07-21T12:31:10.985Z</time>
      </trkpt>
      <trkpt lat="47.209334" lon="10.916065">
        <ele>1455.684716</ele>
        <time>2026-07-21T12:31:16.981Z</time>
      </trkpt>
      <trkpt lat="47.209312" lon="10.916207">
        <ele>1456.918597</ele>
        <time>2026-07-21T12:31:21.980Z</time>
      </trkpt>
      <trkpt lat="47.209296" lon="10.916358">
        <ele>1458.213303</ele>
        <time>2026-07-21T12:31:26.981Z</time>
      </trkpt>
      <trkpt lat="47.209280" lon="10.916502">
        <ele>1459.449450</ele>
        <time>2026-07-21T12:31:31.985Z</time>
      </trkpt>
      <trkpt lat="47.209262" lon="10.916642">
        <ele>1460.656555</ele>
        <time>2026-07-21T12:31:36.979Z</time>
      </trkpt>
      <trkpt lat="47.209232" lon="10.916772">
        <ele>1461.819699</ele>
        <time>2026-07-21T12:31:40.976Z</time>
      </trkpt>
      <trkpt lat="47.209212" lon="10.916903">
        <ele>1462.957186</ele>
        <time>2026-07-21T12:31:44.976Z</time>
      </trkpt>
      <trkpt lat="47.209188" lon="10.917060">
        <ele>1464.320517</ele>
        <time>2026-07-21T12:31:49.978Z</time>
      </trkpt>
      <trkpt lat="47.209160" lon="10.917208">
        <ele>1465.622059</ele>
        <time>2026-07-21T12:31:54.980Z</time>
      </trkpt>
      <trkpt lat="47.209131" lon="10.917357">
        <ele>1466.935144</ele>
        <time>2026-07-21T12:31:59.975Z</time>
      </trkpt>
      <trkpt lat="47.209082" lon="10.917502">
        <ele>1468.307154</ele>
        <time>2026-07-21T12:32:05.982Z</time>
      </trkpt>
      <trkpt lat="47.209031" lon="10.917642">
        <ele>1469.652978</ele>
        <time>2026-07-21T12:32:10.983Z</time>
      </trkpt>
      <trkpt lat="47.208975" lon="10.917779">
        <ele>1471.007529</ele>
        <time>2026-07-21T12:32:15.977Z</time>
      </trkpt>
      <trkpt lat="47.208912" lon="10.917897">
        <ele>1472.278996</ele>
        <time>2026-07-21T12:32:20.980Z</time>
      </trkpt>
      <trkpt lat="47.208843" lon="10.917992">
        <ele>1473.482781</ele>
        <time>2026-07-21T12:32:25.982Z</time>
      </trkpt>
      <trkpt lat="47.208775" lon="10.918083">
        <ele>1474.871711</ele>
        <time>2026-07-21T12:32:30.978Z</time>
      </trkpt>
      <trkpt lat="47.208713" lon="10.918208">
        <ele>1476.460770</ele>
        <time>2026-07-21T12:32:36.982Z</time>
      </trkpt>
      <trkpt lat="47.208664" lon="10.918345">
        <ele>1478.050401</ele>
        <time>2026-07-21T12:32:42.976Z</time>
      </trkpt>
      <trkpt lat="47.208598" lon="10.918452">
        <ele>1479.534269</ele>
        <time>2026-07-21T12:32:47.979Z</time>
      </trkpt>
      <trkpt lat="47.208523" lon="10.918536">
        <ele>1480.958575</ele>
        <time>2026-07-21T12:32:52.982Z</time>
      </trkpt>
      <trkpt lat="47.208447" lon="10.918622">
        <ele>1482.407362</ele>
        <time>2026-07-21T12:32:57.984Z</time>
      </trkpt>
      <trkpt lat="47.208410" lon="10.918763">
        <ele>1483.959276</ele>
        <time>2026-07-21T12:33:03.977Z</time>
      </trkpt>
      <trkpt lat="47.208493" lon="10.918823">
        <ele>1485.356797</ele>
        <time>2026-07-21T12:33:08.978Z</time>
      </trkpt>
      <trkpt lat="47.208583" lon="10.918797">
        <ele>1486.742961</ele>
        <time>2026-07-21T12:33:13.977Z</time>
      </trkpt>
      <trkpt lat="47.208675" lon="10.918737">
        <ele>1488.263757</ele>
        <time>2026-07-21T12:33:18.980Z</time>
      </trkpt>
      <trkpt lat="47.208771" lon="10.918681">
        <ele>1489.824423</ele>
        <time>2026-07-21T12:33:23.986Z</time>
      </trkpt>
      <trkpt lat="47.208853" lon="10.918605">
        <ele>1491.288919</ele>
        <time>2026-07-21T12:33:28.983Z</time>
      </trkpt>
      <trkpt lat="47.208936" lon="10.918526">
        <ele>1492.782723</ele>
        <time>2026-07-21T12:33:34.979Z</time>
      </trkpt>
      <trkpt lat="47.209028" lon="10.918460">
        <ele>1494.329496</ele>
        <time>2026-07-21T12:33:40.985Z</time>
      </trkpt>
      <trkpt lat="47.209117" lon="10.918427">
        <ele>1495.716614</ele>
        <time>2026-07-21T12:33:46.977Z</time>
      </trkpt>
      <trkpt lat="47.209204" lon="10.918375">
        <ele>1497.135744</ele>
        <time>2026-07-21T12:33:52.979Z</time>
      </trkpt>
      <trkpt lat="47.209294" lon="10.918306">
        <ele>1498.669384</ele>
        <time>2026-07-21T12:33:57.974Z</time>
      </trkpt>
      <trkpt lat="47.209377" lon="10.918219">
        <ele>1500.209327</ele>
        <time>2026-07-21T12:34:02.977Z</time>
      </trkpt>
      <trkpt lat="47.209463" lon="10.918139">
        <ele>1501.669427</ele>
        <time>2026-07-21T12:34:07.977Z</time>
      </trkpt>
      <trkpt lat="47.209566" lon="10.918105">
        <ele>1503.164057</ele>
        <time>2026-07-21T12:34:12.979Z</time>
      </trkpt>
      <trkpt lat="47.209670" lon="10.918076">
        <ele>1504.662814</ele>
        <time>2026-07-21T12:34:17.978Z</time>
      </trkpt>
      <trkpt lat="47.209766" lon="10.918033">
        <ele>1506.083644</ele>
        <time>2026-07-21T12:34:22.977Z</time>
      </trkpt>
      <trkpt lat="47.209855" lon="10.917974">
        <ele>1507.465713</ele>
        <time>2026-07-21T12:34:27.981Z</time>
      </trkpt>
      <trkpt lat="47.209945" lon="10.917908">
        <ele>1508.889424</ele>
        <time>2026-07-21T12:34:33.985Z</time>
      </trkpt>
      <trkpt lat="47.210019" lon="10.917823">
        <ele>1510.218450</ele>
        <time>2026-07-21T12:34:38.980Z</time>
      </trkpt>
      <trkpt lat="47.210084" lon="10.917718">
        <ele>1511.584856</ele>
        <time>2026-07-21T12:34:43.977Z</time>
      </trkpt>
      <trkpt lat="47.210150" lon="10.917598">
        <ele>1513.069974</ele>
        <time>2026-07-21T12:34:48.989Z</time>
      </trkpt>
      <trkpt lat="47.210202" lon="10.917486">
        <ele>1514.374832</ele>
        <time>2026-07-21T12:34:53.983Z</time>
      </trkpt>
      <trkpt lat="47.210255" lon="10.917356">
        <ele>1515.833156</ele>
        <time>2026-07-21T12:34:58.981Z</time>
      </trkpt>
      <trkpt lat="47.210311" lon="10.917235">
        <ele>1517.241441</ele>
        <time>2026-07-21T12:35:03.979Z</time>
      </trkpt>
      <trkpt lat="47.210401" lon="10.917247">
        <ele>1518.520999</ele>
        <time>2026-07-21T12:35:08.984Z</time>
      </trkpt>
      <trkpt lat="47.210345" lon="10.917378">
        <ele>1520.009759</ele>
        <time>2026-07-21T12:35:15.980Z</time>
      </trkpt>
      <trkpt lat="47.210303" lon="10.917503">
        <ele>1521.351114</ele>
        <time>2026-07-21T12:35:20.984Z</time>
      </trkpt>
      <trkpt lat="47.210274" lon="10.917641">
        <ele>1522.740540</ele>
        <time>2026-07-21T12:35:25.981Z</time>
      </trkpt>
      <trkpt lat="47.210252" lon="10.917777">
        <ele>1524.085245</ele>
        <time>2026-07-21T12:35:30.984Z</time>
      </trkpt>
      <trkpt lat="47.210224" lon="10.917915">
        <ele>1525.470553</ele>
        <time>2026-07-21T12:35:35.980Z</time>
      </trkpt>
      <trkpt lat="47.210178" lon="10.918047">
        <ele>1526.791642</ele>
        <time>2026-07-21T12:35:40.979Z</time>
      </trkpt>
      <trkpt lat="47.210132" lon="10.918186">
        <ele>1528.105709</ele>
        <time>2026-07-21T12:35:45.986Z</time>
      </trkpt>
      <trkpt lat="47.210090" lon="10.918314">
        <ele>1529.313822</ele>
        <time>2026-07-21T12:35:50.981Z</time>
      </trkpt>
      <trkpt lat="47.210049" lon="10.918435">
        <ele>1530.463017</ele>
        <time>2026-07-21T12:35:55.989Z</time>
      </trkpt>
      <trkpt lat="47.210024" lon="10.918568">
        <ele>1531.635843</ele>
        <time>2026-07-21T12:36:00.976Z</time>
      </trkpt>
      <trkpt lat="47.209991" lon="10.918704">
        <ele>1532.863214</ele>
        <time>2026-07-21T12:36:05.978Z</time>
      </trkpt>
      <trkpt lat="47.209966" lon="10.918841">
        <ele>1534.068839</ele>
        <time>2026-07-21T12:36:10.983Z</time>
      </trkpt>
      <trkpt lat="47.209930" lon="10.918970">
        <ele>1535.254104</ele>
        <time>2026-07-21T12:36:15.977Z</time>
      </trkpt>
      <trkpt lat="47.209878" lon="10.919089">
        <ele>1536.456647</ele>
        <time>2026-07-21T12:36:20.978Z</time>
      </trkpt>
      <trkpt lat="47.209814" lon="10.919196">
        <ele>1537.668300</ele>
        <time>2026-07-21T12:36:25.974Z</time>
      </trkpt>
      <trkpt lat="47.209755" lon="10.919299">
        <ele>1538.813362</ele>
        <time>2026-07-21T12:36:30.979Z</time>
      </trkpt>
      <trkpt lat="47.209712" lon="10.919416">
        <ele>1539.943935</ele>
        <time>2026-07-21T12:36:35.980Z</time>
      </trkpt>
      <trkpt lat="47.209663" lon="10.919538">
        <ele>1541.148474</ele>
        <time>2026-07-21T12:36:40.985Z</time>
      </trkpt>
      <trkpt lat="47.209610" lon="10.919662">
        <ele>1542.393591</ele>
        <time>2026-07-21T12:36:45.980Z</time>
      </trkpt>
      <trkpt lat="47.209548" lon="10.919769">
        <ele>1543.588859</ele>
        <time>2026-07-21T12:36:50.977Z</time>
      </trkpt>
      <trkpt lat="47.209477" lon="10.919864">
        <ele>1544.789250</ele>
        <time>2026-07-21T12:36:55.979Z</time>
      </trkpt>
      <trkpt lat="47.209395" lon="10.919979">
        <ele>1546.206200</ele>
        <time>2026-07-21T12:37:01.982Z</time>
      </trkpt>
      <trkpt lat="47.209321" lon="10.920089">
        <ele>1547.521930</ele>
        <time>2026-07-21T12:37:06.977Z</time>
      </trkpt>
      <trkpt lat="47.209250" lon="10.920193">
        <ele>1548.816079</ele>
        <time>2026-07-21T12:37:11.982Z</time>
      </trkpt>
      <trkpt lat="47.209163" lon="10.920258">
        <ele>1550.212871</ele>
        <time>2026-07-21T12:37:16.976Z</time>
      </trkpt>
      <trkpt lat="47.209071" lon="10.920312">
        <ele>1551.630849</ele>
        <time>2026-07-21T12:37:21.985Z</time>
      </trkpt>
      <trkpt lat="47.208969" lon="10.920357">
        <ele>1553.155323</ele>
        <time>2026-07-21T12:37:26.975Z</time>
      </trkpt>
      <trkpt lat="47.208874" lon="10.920379">
        <ele>1554.532133</ele>
        <time>2026-07-21T12:37:31.982Z</time>
      </trkpt>
      <trkpt lat="47.208783" lon="10.920430">
        <ele>1555.926178</ele>
        <time>2026-07-21T12:37:36.975Z</time>
      </trkpt>
      <trkpt lat="47.208692" lon="10.920518">
        <ele>1557.484971</ele>
        <time>2026-07-21T12:37:44.979Z</time>
      </trkpt>
      <trkpt lat="47.208606" lon="10.920595">
        <ele>1558.926068</ele>
        <time>2026-07-21T12:37:49.981Z</time>
      </trkpt>
      <trkpt lat="47.208487" lon="10.920750">
        <ele>1561.200947</ele>
        <time>2026-07-21T12:38:46.978Z</time>
      </trkpt>
      <trkpt lat="47.208423" lon="10.920843">
        <ele>1562.488449</ele>
        <time>2026-07-21T12:38:51.978Z</time>
      </trkpt>
      <trkpt lat="47.208370" lon="10.920961">
        <ele>1563.864254</ele>
        <time>2026-07-21T12:38:56.983Z</time>
      </trkpt>
      <trkpt lat="47.208343" lon="10.921111">
        <ele>1565.373467</ele>
        <time>2026-07-21T12:39:02.978Z</time>
      </trkpt>
      <trkpt lat="47.208334" lon="10.921243">
        <ele>1566.663724</ele>
        <time>2026-07-21T12:39:07.978Z</time>
      </trkpt>
      <trkpt lat="47.208322" lon="10.921377">
        <ele>1567.978257</ele>
        <time>2026-07-21T12:39:12.979Z</time>
      </trkpt>
      <trkpt lat="47.208308" lon="10.921521">
        <ele>1569.393044</ele>
        <time>2026-07-21T12:39:17.975Z</time>
      </trkpt>
      <trkpt lat="47.208261" lon="10.921649">
        <ele>1570.808162</ele>
        <time>2026-07-21T12:39:22.978Z</time>
      </trkpt>
      <trkpt lat="47.208171" lon="10.921704">
        <ele>1572.203286</ele>
        <time>2026-07-21T12:39:27.977Z</time>
      </trkpt>
      <trkpt lat="47.208064" lon="10.921677">
        <ele>1573.757514</ele>
        <time>2026-07-21T12:39:33.978Z</time>
      </trkpt>
      <trkpt lat="47.207971" lon="10.921615">
        <ele>1574.911718</ele>
        <time>2026-07-21T12:39:38.979Z</time>
      </trkpt>
      <trkpt lat="47.207882" lon="10.921564">
        <ele>1575.849134</ele>
        <time>2026-07-21T12:39:43.979Z</time>
      </trkpt>
      <trkpt lat="47.207787" lon="10.921536">
        <ele>1576.800092</ele>
        <time>2026-07-21T12:39:48.979Z</time>
      </trkpt>
      <trkpt lat="47.207700" lon="10.921493">
        <ele>1577.700872</ele>
        <time>2026-07-21T12:39:53.979Z</time>
      </trkpt>
      <trkpt lat="47.207609" lon="10.921451">
        <ele>1578.636937</ele>
        <time>2026-07-21T12:39:58.978Z</time>
      </trkpt>
      <trkpt lat="47.207515" lon="10.921394">
        <ele>1579.634791</ele>
        <time>2026-07-21T12:40:03.978Z</time>
      </trkpt>
      <trkpt lat="47.207406" lon="10.921362">
        <ele>1580.725726</ele>
        <time>2026-07-21T12:40:08.978Z</time>
      </trkpt>
      <trkpt lat="47.207304" lon="10.921379">
        <ele>1581.733281</ele>
        <time>2026-07-21T12:40:13.977Z</time>
      </trkpt>
      <trkpt lat="47.207195" lon="10.921415">
        <ele>1582.829745</ele>
        <time>2026-07-21T12:40:18.980Z</time>
      </trkpt>
      <trkpt lat="47.207105" lon="10.921455">
        <ele>1583.752507</ele>
        <time>2026-07-21T12:40:22.980Z</time>
      </trkpt>
      <trkpt lat="47.207008" lon="10.921523">
        <ele>1584.807046</ele>
        <time>2026-07-21T12:40:26.979Z</time>
      </trkpt>
      <trkpt lat="47.206919" lon="10.921598">
        <ele>1585.813629</ele>
        <time>2026-07-21T12:40:30.980Z</time>
      </trkpt>
      <trkpt lat="47.206816" lon="10.921668">
        <ele>1586.927152</ele>
        <time>2026-07-21T12:40:35.978Z</time>
      </trkpt>
      <trkpt lat="47.206707" lon="10.921713">
        <ele>1588.038299</ele>
        <time>2026-07-21T12:40:41.980Z</time>
      </trkpt>
      <trkpt lat="47.206618" lon="10.921750">
        <ele>1588.946030</ele>
        <time>2026-07-21T12:40:45.980Z</time>
      </trkpt>
      <trkpt lat="47.206525" lon="10.921782">
        <ele>1589.883458</ele>
        <time>2026-07-21T12:40:49.980Z</time>
      </trkpt>
      <trkpt lat="47.206438" lon="10.921827">
        <ele>1590.788573</ele>
        <time>2026-07-21T12:40:53.980Z</time>
      </trkpt>
      <trkpt lat="47.206331" lon="10.921884">
        <ele>1591.906846</ele>
        <time>2026-07-21T12:40:58.980Z</time>
      </trkpt>
      <trkpt lat="47.206245" lon="10.921936">
        <ele>1592.946106</ele>
        <time>2026-07-21T12:41:02.978Z</time>
      </trkpt>
      <trkpt lat="47.206158" lon="10.921980">
        <ele>1593.974400</ele>
        <time>2026-07-21T12:41:06.978Z</time>
      </trkpt>
      <trkpt lat="47.206054" lon="10.922054">
        <ele>1595.265619</ele>
        <time>2026-07-21T12:41:11.980Z</time>
      </trkpt>
      <trkpt lat="47.205966" lon="10.922112">
        <ele>1596.343398</ele>
        <time>2026-07-21T12:41:15.979Z</time>
      </trkpt>
      <trkpt lat="47.205881" lon="10.922172">
        <ele>1597.397138</ele>
        <time>2026-07-21T12:41:19.980Z</time>
      </trkpt>
      <trkpt lat="47.205794" lon="10.922230">
        <ele>1598.464725</ele>
        <time>2026-07-21T12:41:23.980Z</time>
      </trkpt>
      <trkpt lat="47.205687" lon="10.922281">
        <ele>1599.721922</ele>
        <time>2026-07-21T12:41:28.979Z</time>
      </trkpt>
      <trkpt lat="47.205578" lon="10.922328">
        <ele>1600.991535</ele>
        <time>2026-07-21T12:41:33.981Z</time>
      </trkpt>
      <trkpt lat="47.205475" lon="10.922367">
        <ele>1602.180360</ele>
        <time>2026-07-21T12:41:37.977Z</time>
      </trkpt>
      <trkpt lat="47.205386" lon="10.922416">
        <ele>1603.242524</ele>
        <time>2026-07-21T12:41:41.980Z</time>
      </trkpt>
      <trkpt lat="47.205287" lon="10.922504">
        <ele>1604.535284</ele>
        <time>2026-07-21T12:41:46.984Z</time>
      </trkpt>
      <trkpt lat="47.205187" lon="10.922571">
        <ele>1605.763444</ele>
        <time>2026-07-21T12:41:51.977Z</time>
      </trkpt>
      <trkpt lat="47.205104" lon="10.922633">
        <ele>1606.803859</ele>
        <time>2026-07-21T12:41:55.979Z</time>
      </trkpt>
      <trkpt lat="47.205082" lon="10.922779">
        <ele>1607.939545</ele>
        <time>2026-07-21T12:42:00.977Z</time>
      </trkpt>
      <trkpt lat="47.205178" lon="10.922783">
        <ele>1609.013071</ele>
        <time>2026-07-21T12:42:04.975Z</time>
      </trkpt>
      <trkpt lat="47.205272" lon="10.922712">
        <ele>1610.194075</ele>
        <time>2026-07-21T12:42:09.980Z</time>
      </trkpt>
      <trkpt lat="47.205368" lon="10.922647">
        <ele>1611.375257</ele>
        <time>2026-07-21T12:42:14.977Z</time>
      </trkpt>
      <trkpt lat="47.205469" lon="10.922623">
        <ele>1612.493724</ele>
        <time>2026-07-21T12:42:19.980Z</time>
      </trkpt>
      <trkpt lat="47.205566" lon="10.922595">
        <ele>1613.545027</ele>
        <time>2026-07-21T12:42:23.979Z</time>
      </trkpt>
      <trkpt lat="47.205667" lon="10.922589">
        <ele>1614.620095</ele>
        <time>2026-07-21T12:42:27.979Z</time>
      </trkpt>
      <trkpt lat="47.205770" lon="10.922585">
        <ele>1615.715942</ele>
        <time>2026-07-21T12:42:31.980Z</time>
      </trkpt>
      <trkpt lat="47.205865" lon="10.922579">
        <ele>1616.727253</ele>
        <time>2026-07-21T12:42:35.978Z</time>
      </trkpt>
      <trkpt lat="47.205960" lon="10.922605">
        <ele>1617.754950</ele>
        <time>2026-07-21T12:42:39.976Z</time>
      </trkpt>
      <trkpt lat="47.206052" lon="10.922617">
        <ele>1618.737258</ele>
        <time>2026-07-21T12:42:43.978Z</time>
      </trkpt>
      <trkpt lat="47.206164" lon="10.922616">
        <ele>1619.928466</ele>
        <time>2026-07-21T12:42:48.978Z</time>
      </trkpt>
      <trkpt lat="47.206263" lon="10.922620">
        <ele>1620.981786</ele>
        <time>2026-07-21T12:42:52.977Z</time>
      </trkpt>
      <trkpt lat="47.206373" lon="10.922627">
        <ele>1622.152794</ele>
        <time>2026-07-21T12:42:57.978Z</time>
      </trkpt>
      <trkpt lat="47.206484" lon="10.922624">
        <ele>1623.333543</ele>
        <time>2026-07-21T12:43:02.981Z</time>
      </trkpt>
      <trkpt lat="47.206582" lon="10.922619">
        <ele>1624.376456</ele>
        <time>2026-07-21T12:43:06.978Z</time>
      </trkpt>
      <trkpt lat="47.206614" lon="10.922753">
        <ele>1625.402730</ele>
        <time>2026-07-21T12:43:12.979Z</time>
      </trkpt>
      <trkpt lat="47.206521" lon="10.922760">
        <ele>1626.393132</ele>
        <time>2026-07-21T12:43:16.980Z</time>
      </trkpt>
      <trkpt lat="47.206416" lon="10.922785">
        <ele>1627.524384</ele>
        <time>2026-07-21T12:43:21.978Z</time>
      </trkpt>
      <trkpt lat="47.206308" lon="10.922818">
        <ele>1628.697514</ele>
        <time>2026-07-21T12:43:26.981Z</time>
      </trkpt>
      <trkpt lat="47.206204" lon="10.922852">
        <ele>1629.830568</ele>
        <time>2026-07-21T12:43:31.981Z</time>
      </trkpt>
      <trkpt lat="47.206114" lon="10.922895">
        <ele>1630.836931</ele>
        <time>2026-07-21T12:43:35.978Z</time>
      </trkpt>
      <trkpt lat="47.206021" lon="10.922922">
        <ele>1631.714012</ele>
        <time>2026-07-21T12:43:39.980Z</time>
      </trkpt>
      <trkpt lat="47.205915" lon="10.922968">
        <ele>1632.673738</ele>
        <time>2026-07-21T12:43:46.978Z</time>
      </trkpt>
      <trkpt lat="47.205825" lon="10.923006">
        <ele>1633.486859</ele>
        <time>2026-07-21T12:43:51.977Z</time>
      </trkpt>
      <trkpt lat="47.205739" lon="10.923047">
        <ele>1634.271919</ele>
        <time>2026-07-21T12:43:56.978Z</time>
      </trkpt>
      <trkpt lat="47.205647" lon="10.923124">
        <ele>1635.191016</ele>
        <time>2026-07-21T12:44:02.976Z</time>
      </trkpt>
      <trkpt lat="47.205560" lon="10.923176">
        <ele>1636.006478</ele>
        <time>2026-07-21T12:44:07.977Z</time>
      </trkpt>
      <trkpt lat="47.205496" lon="10.923273">
        <ele>1636.804253</ele>
        <time>2026-07-21T12:44:12.977Z</time>
      </trkpt>
      <trkpt lat="47.205420" lon="10.923373">
        <ele>1637.689534</ele>
        <time>2026-07-21T12:44:17.980Z</time>
      </trkpt>
      <trkpt lat="47.205337" lon="10.923439">
        <ele>1638.508801</ele>
        <time>2026-07-21T12:44:22.981Z</time>
      </trkpt>
      <trkpt lat="47.205259" lon="10.923506">
        <ele>1639.293095</ele>
        <time>2026-07-21T12:44:27.980Z</time>
      </trkpt>
      <trkpt lat="47.205180" lon="10.923596">
        <ele>1640.160653</ele>
        <time>2026-07-21T12:44:32.979Z</time>
      </trkpt>
      <trkpt lat="47.205102" lon="10.923680">
        <ele>1640.999983</ele>
        <time>2026-07-21T12:44:37.979Z</time>
      </trkpt>
      <trkpt lat="47.205027" lon="10.923765">
        <ele>1641.822018</ele>
        <time>2026-07-21T12:44:42.980Z</time>
      </trkpt>
      <trkpt lat="47.204943" lon="10.923846">
        <ele>1642.694115</ele>
        <time>2026-07-21T12:44:47.980Z</time>
      </trkpt>
      <trkpt lat="47.204856" lon="10.923921">
        <ele>1643.569708</ele>
        <time>2026-07-21T12:44:52.977Z</time>
      </trkpt>
      <trkpt lat="47.204769" lon="10.923985">
        <ele>1644.414360</ele>
        <time>2026-07-21T12:44:57.980Z</time>
      </trkpt>
      <trkpt lat="47.204683" lon="10.924068">
        <ele>1645.307454</ele>
        <time>2026-07-21T12:45:03.980Z</time>
      </trkpt>
      <trkpt lat="47.204576" lon="10.924309">
        <ele>1646.612478</ele>
        <time>2026-07-21T12:46:03.980Z</time>
      </trkpt>
      <trkpt lat="47.204516" lon="10.924422">
        <ele>1646.153953</ele>
        <time>2026-07-21T12:46:07.976Z</time>
      </trkpt>
      <trkpt lat="47.204465" lon="10.924568">
        <ele>1645.629084</ele>
        <time>2026-07-21T12:46:10.977Z</time>
      </trkpt>
      <trkpt lat="47.204428" lon="10.924754">
        <ele>1645.009449</ele>
        <time>2026-07-21T12:46:13.981Z</time>
      </trkpt>
      <trkpt lat="47.204406" lon="10.924894">
        <ele>1644.550031</ele>
        <time>2026-07-21T12:46:15.977Z</time>
      </trkpt>
      <trkpt lat="47.204383" lon="10.925040">
        <ele>1644.070864</ele>
        <time>2026-07-21T12:46:17.977Z</time>
      </trkpt>
      <trkpt lat="47.204365" lon="10.925212">
        <ele>1643.514469</ele>
        <time>2026-07-21T12:46:19.980Z</time>
      </trkpt>
      <trkpt lat="47.204344" lon="10.925382">
        <ele>1642.962043</ele>
        <time>2026-07-21T12:46:21.980Z</time>
      </trkpt>
      <trkpt lat="47.204316" lon="10.925568">
        <ele>1642.352950</ele>
        <time>2026-07-21T12:46:23.972Z</time>
      </trkpt>
      <trkpt lat="47.204280" lon="10.925755">
        <ele>1641.731543</ele>
        <time>2026-07-21T12:46:25.974Z</time>
      </trkpt>
      <trkpt lat="47.204245" lon="10.925945">
        <ele>1641.102151</ele>
        <time>2026-07-21T12:46:27.975Z</time>
      </trkpt>
      <trkpt lat="47.204212" lon="10.926128">
        <ele>1640.496812</ele>
        <time>2026-07-21T12:46:29.974Z</time>
      </trkpt>
      <trkpt lat="47.204174" lon="10.926285">
        <ele>1639.963956</ele>
        <time>2026-07-21T12:46:31.980Z</time>
      </trkpt>
      <trkpt lat="47.204093" lon="10.926398">
        <ele>1639.438769</ele>
        <time>2026-07-21T12:46:33.977Z</time>
      </trkpt>
      <trkpt lat="47.204005" lon="10.926497">
        <ele>1638.917537</ele>
        <time>2026-07-21T12:46:35.978Z</time>
      </trkpt>
      <trkpt lat="47.203926" lon="10.926584">
        <ele>1638.453229</ele>
        <time>2026-07-21T12:46:37.980Z</time>
      </trkpt>
      <trkpt lat="47.203830" lon="10.926667">
        <ele>1638.894599</ele>
        <time>2026-07-21T12:46:40.979Z</time>
      </trkpt>
      <trkpt lat="47.203740" lon="10.926730">
        <ele>1639.692978</ele>
        <time>2026-07-21T12:46:43.975Z</time>
      </trkpt>
      <trkpt lat="47.203640" lon="10.926803">
        <ele>1640.587201</ele>
        <time>2026-07-21T12:46:46.979Z</time>
      </trkpt>
      <trkpt lat="47.203553" lon="10.926882">
        <ele>1641.406124</ele>
        <time>2026-07-21T12:46:49.978Z</time>
      </trkpt>
      <trkpt lat="47.203470" lon="10.926969">
        <ele>1642.222417</ele>
        <time>2026-07-21T12:46:52.978Z</time>
      </trkpt>
      <trkpt lat="47.203409" lon="10.927094">
        <ele>1643.060071</ele>
        <time>2026-07-21T12:46:55.981Z</time>
      </trkpt>
      <trkpt lat="47.203359" lon="10.927215">
        <ele>1643.830886</ele>
        <time>2026-07-21T12:46:58.977Z</time>
      </trkpt>
      <trkpt lat="47.203310" lon="10.927340">
        <ele>1644.616349</ele>
        <time>2026-07-21T12:47:01.976Z</time>
      </trkpt>
      <trkpt lat="47.203240" lon="10.927431">
        <ele>1645.364533</ele>
        <time>2026-07-21T12:47:04.975Z</time>
      </trkpt>
      <trkpt lat="47.203153" lon="10.927490">
        <ele>1646.131917</ele>
        <time>2026-07-21T12:47:08.977Z</time>
      </trkpt>
      <trkpt lat="47.203069" lon="10.927558">
        <ele>1646.899911</ele>
        <time>2026-07-21T12:47:14.975Z</time>
      </trkpt>
      <trkpt lat="47.202998" lon="10.927657">
        <ele>1647.683402</ele>
        <time>2026-07-21T12:47:19.977Z</time>
      </trkpt>
      <trkpt lat="47.202946" lon="10.927775">
        <ele>1648.448918</ele>
        <time>2026-07-21T12:47:24.978Z</time>
      </trkpt>
      <trkpt lat="47.202905" lon="10.927898">
        <ele>1649.194611</ele>
        <time>2026-07-21T12:47:29.978Z</time>
      </trkpt>
      <trkpt lat="47.202877" lon="10.928041">
        <ele>1650.004605</ele>
        <time>2026-07-21T12:47:34.978Z</time>
      </trkpt>
      <trkpt lat="47.202861" lon="10.928180">
        <ele>1650.771930</ele>
        <time>2026-07-21T12:47:39.979Z</time>
      </trkpt>
      <trkpt lat="47.202853" lon="10.928330">
        <ele>1651.590857</ele>
        <time>2026-07-21T12:47:44.980Z</time>
      </trkpt>
      <trkpt lat="47.202841" lon="10.928497">
        <ele>1652.504869</ele>
        <time>2026-07-21T12:47:49.979Z</time>
      </trkpt>
      <trkpt lat="47.202818" lon="10.928628">
        <ele>1652.867141</ele>
        <time>2026-07-21T12:47:53.979Z</time>
      </trkpt>
      <trkpt lat="47.202780" lon="10.928774">
        <ele>1653.134667</ele>
        <time>2026-07-21T12:47:57.980Z</time>
      </trkpt>
      <trkpt lat="47.202739" lon="10.928916">
        <ele>1653.398675</ele>
        <time>2026-07-21T12:48:01.977Z</time>
      </trkpt>
      <trkpt lat="47.202707" lon="10.929079">
        <ele>1653.688996</ele>
        <time>2026-07-21T12:48:05.980Z</time>
      </trkpt>
      <trkpt lat="47.202682" lon="10.929238">
        <ele>1653.968252</ele>
        <time>2026-07-21T12:48:08.980Z</time>
      </trkpt>
      <trkpt lat="47.202647" lon="10.929363">
        <ele>1654.199593</ele>
        <time>2026-07-21T12:48:10.978Z</time>
      </trkpt>
      <trkpt lat="47.202611" lon="10.929485">
        <ele>1654.427187</ele>
        <time>2026-07-21T12:48:12.979Z</time>
      </trkpt>
      <trkpt lat="47.202577" lon="10.929609">
        <ele>1654.655993</ele>
        <time>2026-07-21T12:48:14.977Z</time>
      </trkpt>
      <trkpt lat="47.202534" lon="10.929746">
        <ele>1654.914221</ele>
        <time>2026-07-21T12:48:16.980Z</time>
      </trkpt>
      <trkpt lat="47.202469" lon="10.929879">
        <ele>1655.194562</ele>
        <time>2026-07-21T12:48:18.978Z</time>
      </trkpt>
      <trkpt lat="47.202387" lon="10.929945">
        <ele>1655.429943</ele>
        <time>2026-07-21T12:48:20.975Z</time>
      </trkpt>
      <trkpt lat="47.202273" lon="10.929949">
        <ele>1655.717137</ele>
        <time>2026-07-21T12:48:23.981Z</time>
      </trkpt>
      <trkpt lat="47.202164" lon="10.929957">
        <ele>1655.991998</ele>
        <time>2026-07-21T12:48:26.976Z</time>
      </trkpt>
      <trkpt lat="47.202063" lon="10.929942">
        <ele>1656.247661</ele>
        <time>2026-07-21T12:48:29.980Z</time>
      </trkpt>
      <trkpt lat="47.201965" lon="10.929885">
        <ele>1656.513050</ele>
        <time>2026-07-21T12:48:32.977Z</time>
      </trkpt>
      <trkpt lat="47.201879" lon="10.929816">
        <ele>1656.759733</ele>
        <time>2026-07-21T12:48:35.979Z</time>
      </trkpt>
      <trkpt lat="47.201788" lon="10.929759">
        <ele>1657.008810</ele>
        <time>2026-07-21T12:48:38.980Z</time>
      </trkpt>
      <trkpt lat="47.201698" lon="10.929704">
        <ele>1657.324231</ele>
        <time>2026-07-21T12:48:41.981Z</time>
      </trkpt>
      <trkpt lat="47.201606" lon="10.929649">
        <ele>1658.183727</ele>
        <time>2026-07-21T12:48:44.977Z</time>
      </trkpt>
      <trkpt lat="47.201519" lon="10.929599">
        <ele>1658.992136</ele>
        <time>2026-07-21T12:48:47.980Z</time>
      </trkpt>
      <trkpt lat="47.201427" lon="10.929568">
        <ele>1659.809053</ele>
        <time>2026-07-21T12:48:50.976Z</time>
      </trkpt>
      <trkpt lat="47.201336" lon="10.929556">
        <ele>1660.599868</ele>
        <time>2026-07-21T12:48:53.980Z</time>
      </trkpt>
      <trkpt lat="47.201241" lon="10.929607">
        <ele>1661.475140</ele>
        <time>2026-07-21T12:48:57.978Z</time>
      </trkpt>
      <trkpt lat="47.201151" lon="10.929633">
        <ele>1662.269008</ele>
        <time>2026-07-21T12:49:00.978Z</time>
      </trkpt>
      <trkpt lat="47.201042" lon="10.929677">
        <ele>1663.247310</ele>
        <time>2026-07-21T12:49:04.981Z</time>
      </trkpt>
      <trkpt lat="47.200935" lon="10.929703">
        <ele>1664.185996</ele>
        <time>2026-07-21T12:49:08.978Z</time>
      </trkpt>
      <trkpt lat="47.200823" lon="10.929738">
        <ele>1665.177034</ele>
        <time>2026-07-21T12:49:12.977Z</time>
      </trkpt>
      <trkpt lat="47.200710" lon="10.929772">
        <ele>1666.175346</ele>
        <time>2026-07-21T12:49:16.977Z</time>
      </trkpt>
      <trkpt lat="47.200602" lon="10.929815">
        <ele>1667.143750</ele>
        <time>2026-07-21T12:49:20.979Z</time>
      </trkpt>
      <trkpt lat="47.200496" lon="10.929856">
        <ele>1668.092398</ele>
        <time>2026-07-21T12:49:24.977Z</time>
      </trkpt>
      <trkpt lat="47.200391" lon="10.929887">
        <ele>1669.019341</ele>
        <time>2026-07-21T12:49:28.976Z</time>
      </trkpt>
      <trkpt lat="47.200273" lon="10.929901">
        <ele>1670.044015</ele>
        <time>2026-07-21T12:49:32.979Z</time>
      </trkpt>
      <trkpt lat="47.200187" lon="10.929839">
        <ele>1670.872901</ele>
        <time>2026-07-21T12:49:35.977Z</time>
      </trkpt>
      <trkpt lat="47.200120" lon="10.929745">
        <ele>1671.674095</ele>
        <time>2026-07-21T12:49:38.980Z</time>
      </trkpt>
      <trkpt lat="47.200052" lon="10.929652">
        <ele>1672.477562</ele>
        <time>2026-07-21T12:49:41.979Z</time>
      </trkpt>
      <trkpt lat="47.199957" lon="10.929555">
        <ele>1673.647010</ele>
        <time>2026-07-21T12:49:45.977Z</time>
      </trkpt>
      <trkpt lat="47.199844" lon="10.929518">
        <ele>1674.895908</ele>
        <time>2026-07-21T12:49:49.978Z</time>
      </trkpt>
      <trkpt lat="47.199728" lon="10.929487">
        <ele>1676.167829</ele>
        <time>2026-07-21T12:49:53.980Z</time>
      </trkpt>
      <trkpt lat="47.199625" lon="10.929407">
        <ele>1677.424278</ele>
        <time>2026-07-21T12:49:57.976Z</time>
      </trkpt>
      <trkpt lat="47.199532" lon="10.929318">
        <ele>1678.621050</ele>
        <time>2026-07-21T12:50:01.980Z</time>
      </trkpt>
      <trkpt lat="47.199439" lon="10.929279">
        <ele>1679.664307</ele>
        <time>2026-07-21T12:50:06.983Z</time>
      </trkpt>
      <trkpt lat="47.199338" lon="10.929304">
        <ele>1680.769242</ele>
        <time>2026-07-21T12:50:11.979Z</time>
      </trkpt>
      <trkpt lat="47.199234" lon="10.929298">
        <ele>1681.892100</ele>
        <time>2026-07-21T12:50:16.977Z</time>
      </trkpt>
      <trkpt lat="47.199151" lon="10.929236">
        <ele>1682.896271</ele>
        <time>2026-07-21T12:50:21.978Z</time>
      </trkpt>
      <trkpt lat="47.199066" lon="10.929186">
        <ele>1683.883819</ele>
        <time>2026-07-21T12:50:30.976Z</time>
      </trkpt>
      <trkpt lat="47.199000" lon="10.929053">
        <ele>1685.091075</ele>
        <time>2026-07-21T12:52:25.979Z</time>
      </trkpt>
      <trkpt lat="47.198908" lon="10.929044">
        <ele>1686.085801</ele>
        <time>2026-07-21T12:52:30.982Z</time>
      </trkpt>
      <trkpt lat="47.198922" lon="10.929175">
        <ele>1687.057871</ele>
        <time>2026-07-21T12:52:37.976Z</time>
      </trkpt>
      <trkpt lat="47.199010" lon="10.929244">
        <ele>1688.133578</ele>
        <time>2026-07-21T12:52:42.972Z</time>
      </trkpt>
      <trkpt lat="47.199083" lon="10.929340">
        <ele>1689.189723</ele>
        <time>2026-07-21T12:52:48.978Z</time>
      </trkpt>
      <trkpt lat="47.199150" lon="10.929446">
        <ele>1690.250954</ele>
        <time>2026-07-21T12:52:55.981Z</time>
      </trkpt>
      <trkpt lat="47.199210" lon="10.929559">
        <ele>1691.302196</ele>
        <time>2026-07-21T12:53:02.978Z</time>
      </trkpt>
      <trkpt lat="47.199287" lon="10.929637">
        <ele>1692.345015</ele>
        <time>2026-07-21T12:53:09.979Z</time>
      </trkpt>
      <trkpt lat="47.199376" lon="10.929697">
        <ele>1693.724413</ele>
        <time>2026-07-21T12:53:16.979Z</time>
      </trkpt>
      <trkpt lat="47.199308" lon="10.929794">
        <ele>1695.058794</ele>
        <time>2026-07-21T12:53:28.978Z</time>
      </trkpt>
      <trkpt lat="47.199207" lon="10.929753">
        <ele>1696.535120</ele>
        <time>2026-07-21T12:53:35.978Z</time>
      </trkpt>
      <trkpt lat="47.199109" lon="10.929702">
        <ele>1697.999816</ele>
        <time>2026-07-21T12:53:41.980Z</time>
      </trkpt>
      <trkpt lat="47.199014" lon="10.929665">
        <ele>1699.384533</ele>
        <time>2026-07-21T12:53:47.980Z</time>
      </trkpt>
      <trkpt lat="47.198920" lon="10.929641">
        <ele>1700.728864</ele>
        <time>2026-07-21T12:53:53.977Z</time>
      </trkpt>
      <trkpt lat="47.198819" lon="10.929613">
        <ele>1702.177076</ele>
        <time>2026-07-21T12:53:59.979Z</time>
      </trkpt>
      <trkpt lat="47.198722" lon="10.929587">
        <ele>1703.566380</ele>
        <time>2026-07-21T12:54:05.978Z</time>
      </trkpt>
      <trkpt lat="47.198623" lon="10.929588">
        <ele>1704.961415</ele>
        <time>2026-07-21T12:54:12.979Z</time>
      </trkpt>
      <trkpt lat="47.198664" lon="10.929710">
        <ele>1706.264534</ele>
        <time>2026-07-21T12:54:18.977Z</time>
      </trkpt>
      <trkpt lat="47.198758" lon="10.929747">
        <ele>1707.635634</ele>
        <time>2026-07-21T12:54:24.979Z</time>
      </trkpt>
      <trkpt lat="47.198840" lon="10.929826">
        <ele>1709.016634</ele>
        <time>2026-07-21T12:54:30.978Z</time>
      </trkpt>
      <trkpt lat="47.198890" lon="10.929940">
        <ele>1710.315734</ele>
        <time>2026-07-21T12:54:36.977Z</time>
      </trkpt>
      <trkpt lat="47.198954" lon="10.930042">
        <ele>1711.645003</ele>
        <time>2026-07-21T12:54:42.977Z</time>
      </trkpt>
      <trkpt lat="47.199012" lon="10.930146">
        <ele>1712.933171</ele>
        <time>2026-07-21T12:54:48.979Z</time>
      </trkpt>
      <trkpt lat="47.199096" lon="10.930221">
        <ele>1714.317588</ele>
        <time>2026-07-21T12:54:54.976Z</time>
      </trkpt>
      <trkpt lat="47.199190" lon="10.930274">
        <ele>1715.736006</ele>
        <time>2026-07-21T12:55:00.977Z</time>
      </trkpt>
      <trkpt lat="47.199265" lon="10.930348">
        <ele>1717.008334</ele>
        <time>2026-07-21T12:55:06.978Z</time>
      </trkpt>
      <trkpt lat="47.199324" lon="10.930467">
        <ele>1718.362150</ele>
        <time>2026-07-21T12:55:13.978Z</time>
      </trkpt>
      <trkpt lat="47.199366" lon="10.930590">
        <ele>1719.594964</ele>
        <time>2026-07-21T12:55:19.978Z</time>
      </trkpt>
      <trkpt lat="47.199425" lon="10.930704">
        <ele>1720.878339</ele>
        <time>2026-07-21T12:55:25.977Z</time>
      </trkpt>
      <trkpt lat="47.199465" lon="10.930822">
        <ele>1722.059310</ele>
        <time>2026-07-21T12:55:31.978Z</time>
      </trkpt>
      <trkpt lat="47.199508" lon="10.930956">
        <ele>1723.386459</ele>
        <time>2026-07-21T12:55:37.979Z</time>
      </trkpt>
      <trkpt lat="47.199576" lon="10.931062">
        <ele>1724.692009</ele>
        <time>2026-07-21T12:55:43.977Z</time>
      </trkpt>
      <trkpt lat="47.199668" lon="10.931112">
        <ele>1725.984657</ele>
        <time>2026-07-21T12:55:49.977Z</time>
      </trkpt>
      <trkpt lat="47.199686" lon="10.931252">
        <ele>1727.260677</ele>
        <time>2026-07-21T12:55:55.977Z</time>
      </trkpt>
      <trkpt lat="47.199591" lon="10.931260">
        <ele>1728.514882</ele>
        <time>2026-07-21T12:56:01.979Z</time>
      </trkpt>
      <trkpt lat="47.199522" lon="10.931170">
        <ele>1729.730099</ele>
        <time>2026-07-21T12:56:06.980Z</time>
      </trkpt>
      <trkpt lat="47.199447" lon="10.931067">
        <ele>1731.082164</ele>
        <time>2026-07-21T12:56:12.985Z</time>
      </trkpt>
      <trkpt lat="47.199364" lon="10.930991">
        <ele>1732.370597</ele>
        <time>2026-07-21T12:56:18.977Z</time>
      </trkpt>
      <trkpt lat="47.199276" lon="10.930949">
        <ele>1733.589952</ele>
        <time>2026-07-21T12:56:24.974Z</time>
      </trkpt>
      <trkpt lat="47.199185" lon="10.930949">
        <ele>1734.789387</ele>
        <time>2026-07-21T12:56:30.981Z</time>
      </trkpt>
      <trkpt lat="47.199089" lon="10.930960">
        <ele>1736.058554</ele>
        <time>2026-07-21T12:56:36.976Z</time>
      </trkpt>
      <trkpt lat="47.198994" lon="10.930962">
        <ele>1737.310839</ele>
        <time>2026-07-21T12:56:41.980Z</time>
      </trkpt>
      <trkpt lat="47.198894" lon="10.930929">
        <ele>1738.661625</ele>
        <time>2026-07-21T12:56:47.978Z</time>
      </trkpt>
      <trkpt lat="47.198807" lon="10.930894">
        <ele>1739.850405</ele>
        <time>2026-07-21T12:56:53.980Z</time>
      </trkpt>
      <trkpt lat="47.198714" lon="10.930849">
        <ele>1741.140750</ele>
        <time>2026-07-21T12:56:59.977Z</time>
      </trkpt>
      <trkpt lat="47.198617" lon="10.930810">
        <ele>1742.672774</ele>
        <time>2026-07-21T12:57:05.978Z</time>
      </trkpt>
      <trkpt lat="47.198513" lon="10.930827">
        <ele>1744.286388</ele>
        <time>2026-07-21T12:57:11.978Z</time>
      </trkpt>
      <trkpt lat="47.198413" lon="10.930871">
        <ele>1745.895898</ele>
        <time>2026-07-21T12:57:17.977Z</time>
      </trkpt>
      <trkpt lat="47.198321" lon="10.930911">
        <ele>1747.375214</ele>
        <time>2026-07-21T12:57:23.976Z</time>
      </trkpt>
      <trkpt lat="47.198230" lon="10.930945">
        <ele>1748.823011</ele>
        <time>2026-07-21T12:57:29.978Z</time>
      </trkpt>
      <trkpt lat="47.198136" lon="10.931010">
        <ele>1750.424580</ele>
        <time>2026-07-21T12:57:36.978Z</time>
      </trkpt>
      <trkpt lat="47.198041" lon="10.931049">
        <ele>1751.945471</ele>
        <time>2026-07-21T12:57:42.976Z</time>
      </trkpt>
      <trkpt lat="47.197944" lon="10.931069">
        <ele>1753.455887</ele>
        <time>2026-07-21T12:57:48.979Z</time>
      </trkpt>
      <trkpt lat="47.197859" lon="10.931133">
        <ele>1754.928222</ele>
        <time>2026-07-21T12:57:55.982Z</time>
      </trkpt>
      <trkpt lat="47.197939" lon="10.931198">
        <ele>1756.337390</ele>
        <time>2026-07-21T12:58:01.978Z</time>
      </trkpt>
      <trkpt lat="47.198040" lon="10.931179">
        <ele>1757.907552</ele>
        <time>2026-07-21T12:58:07.979Z</time>
      </trkpt>
      <trkpt lat="47.198135" lon="10.931190">
        <ele>1759.377045</ele>
        <time>2026-07-21T12:58:13.978Z</time>
      </trkpt>
      <trkpt lat="47.198235" lon="10.931225">
        <ele>1760.962121</ele>
        <time>2026-07-21T12:58:20.977Z</time>
      </trkpt>
      <trkpt lat="47.198337" lon="10.931264">
        <ele>1762.587247</ele>
        <time>2026-07-21T12:58:26.981Z</time>
      </trkpt>
      <trkpt lat="47.198437" lon="10.931301">
        <ele>1764.177301</ele>
        <time>2026-07-21T12:58:32.978Z</time>
      </trkpt>
      <trkpt lat="47.198520" lon="10.931354">
        <ele>1765.572497</ele>
        <time>2026-07-21T12:58:39.977Z</time>
      </trkpt>
      <trkpt lat="47.198588" lon="10.931459">
        <ele>1767.092345</ele>
        <time>2026-07-21T12:58:46.971Z</time>
      </trkpt>
      <trkpt lat="47.198660" lon="10.931555">
        <ele>1768.590512</ele>
        <time>2026-07-21T12:58:52.976Z</time>
      </trkpt>
      <trkpt lat="47.198737" lon="10.931660">
        <ele>1770.079593</ele>
        <time>2026-07-21T12:58:58.976Z</time>
      </trkpt>
      <trkpt lat="47.198807" lon="10.931775">
        <ele>1771.525812</ele>
        <time>2026-07-21T12:59:05.976Z</time>
      </trkpt>
      <trkpt lat="47.198885" lon="10.931871">
        <ele>1772.927534</ele>
        <time>2026-07-21T12:59:11.975Z</time>
      </trkpt>
      <trkpt lat="47.198958" lon="10.931961">
        <ele>1774.240327</ele>
        <time>2026-07-21T12:59:17.973Z</time>
      </trkpt>
      <trkpt lat="47.199037" lon="10.932034">
        <ele>1775.526261</ele>
        <time>2026-07-21T12:59:23.977Z</time>
      </trkpt>
      <trkpt lat="47.199108" lon="10.932120">
        <ele>1776.793904</ele>
        <time>2026-07-21T12:59:29.977Z</time>
      </trkpt>
      <trkpt lat="47.199205" lon="10.932171">
        <ele>1778.213886</ele>
        <time>2026-07-21T12:59:35.978Z</time>
      </trkpt>
      <trkpt lat="47.199295" lon="10.932157">
        <ele>1779.461512</ele>
        <time>2026-07-21T12:59:40.978Z</time>
      </trkpt>
      <trkpt lat="47.199386" lon="10.932193">
        <ele>1780.760542</ele>
        <time>2026-07-21T12:59:46.977Z</time>
      </trkpt>
      <trkpt lat="47.199469" lon="10.932245">
        <ele>1782.004111</ele>
        <time>2026-07-21T12:59:52.977Z</time>
      </trkpt>
      <trkpt lat="47.199541" lon="10.932351">
        <ele>1783.408030</ele>
        <time>2026-07-21T12:59:58.977Z</time>
      </trkpt>
      <trkpt lat="47.199581" lon="10.932479">
        <ele>1784.727695</ele>
        <time>2026-07-21T13:00:04.978Z</time>
      </trkpt>
      <trkpt lat="47.199624" lon="10.932608">
        <ele>1786.073572</ele>
        <time>2026-07-21T13:00:10.975Z</time>
      </trkpt>
      <trkpt lat="47.199667" lon="10.932730">
        <ele>1787.360907</ele>
        <time>2026-07-21T13:00:16.977Z</time>
      </trkpt>
      <trkpt lat="47.199706" lon="10.932856">
        <ele>1788.657799</ele>
        <time>2026-07-21T13:00:22.977Z</time>
      </trkpt>
      <trkpt lat="47.199728" lon="10.932988">
        <ele>1789.930850</ele>
        <time>2026-07-21T13:00:28.976Z</time>
      </trkpt>
      <trkpt lat="47.199738" lon="10.933145">
        <ele>1791.407860</ele>
        <time>2026-07-21T13:00:34.975Z</time>
      </trkpt>
      <trkpt lat="47.199757" lon="10.933285">
        <ele>1792.745093</ele>
        <time>2026-07-21T13:00:40.976Z</time>
      </trkpt>
      <trkpt lat="47.199801" lon="10.933403">
        <ele>1794.041801</ele>
        <time>2026-07-21T13:00:46.977Z</time>
      </trkpt>
      <trkpt lat="47.199880" lon="10.933502">
        <ele>1795.701916</ele>
        <time>2026-07-21T13:00:52.977Z</time>
      </trkpt>
      <trkpt lat="47.199984" lon="10.933537">
        <ele>1797.408861</ele>
        <time>2026-07-21T13:00:58.976Z</time>
      </trkpt>
      <trkpt lat="47.200006" lon="10.933669">
        <ele>1798.886383</ele>
        <time>2026-07-21T13:01:06.977Z</time>
      </trkpt>
      <trkpt lat="47.199903" lon="10.933656">
        <ele>1800.540430</ele>
        <time>2026-07-21T13:01:12.976Z</time>
      </trkpt>
      <trkpt lat="47.199808" lon="10.933616">
        <ele>1802.121406</ele>
        <time>2026-07-21T13:01:18.980Z</time>
      </trkpt>
      <trkpt lat="47.199713" lon="10.933594">
        <ele>1803.660106</ele>
        <time>2026-07-21T13:01:24.976Z</time>
      </trkpt>
      <trkpt lat="47.199613" lon="10.933560">
        <ele>1805.302243</ele>
        <time>2026-07-21T13:01:30.978Z</time>
      </trkpt>
      <trkpt lat="47.199524" lon="10.933513">
        <ele>1806.815133</ele>
        <time>2026-07-21T13:01:36.980Z</time>
      </trkpt>
      <trkpt lat="47.199445" lon="10.933436">
        <ele>1808.331179</ele>
        <time>2026-07-21T13:01:42.977Z</time>
      </trkpt>
      <trkpt lat="47.199372" lon="10.933343">
        <ele>1809.875971</ele>
        <time>2026-07-21T13:01:48.975Z</time>
      </trkpt>
      <trkpt lat="47.199298" lon="10.933266">
        <ele>1811.325992</ele>
        <time>2026-07-21T13:01:54.977Z</time>
      </trkpt>
      <trkpt lat="47.199216" lon="10.933199">
        <ele>1812.826614</ele>
        <time>2026-07-21T13:02:00.981Z</time>
      </trkpt>
      <trkpt lat="47.199134" lon="10.933129">
        <ele>1814.343334</ele>
        <time>2026-07-21T13:02:06.978Z</time>
      </trkpt>
      <trkpt lat="47.199053" lon="10.933060">
        <ele>1815.840761</ele>
        <time>2026-07-21T13:02:12.973Z</time>
      </trkpt>
      <trkpt lat="47.198968" lon="10.932986">
        <ele>1817.420879</ele>
        <time>2026-07-21T13:02:18.975Z</time>
      </trkpt>
      <trkpt lat="47.198883" lon="10.932910">
        <ele>1819.012178</ele>
        <time>2026-07-21T13:02:24.977Z</time>
      </trkpt>
      <trkpt lat="47.198793" lon="10.932835">
        <ele>1820.666986</ele>
        <time>2026-07-21T13:02:30.978Z</time>
      </trkpt>
      <trkpt lat="47.198690" lon="10.932801">
        <ele>1822.355927</ele>
        <time>2026-07-21T13:02:36.976Z</time>
      </trkpt>
      <trkpt lat="47.198581" lon="10.932798">
        <ele>1823.665820</ele>
        <time>2026-07-21T13:02:42.976Z</time>
      </trkpt>
      <trkpt lat="47.198492" lon="10.932780">
        <ele>1824.697700</ele>
        <time>2026-07-21T13:02:48.973Z</time>
      </trkpt>
      <trkpt lat="47.198388" lon="10.932759">
        <ele>1825.903456</ele>
        <time>2026-07-21T13:02:54.975Z</time>
      </trkpt>
      <trkpt lat="47.198296" lon="10.932786">
        <ele>1826.980991</ele>
        <time>2026-07-21T13:02:59.977Z</time>
      </trkpt>
      <trkpt lat="47.198209" lon="10.932854">
        <ele>1828.112471</ele>
        <time>2026-07-21T13:03:04.976Z</time>
      </trkpt>
      <trkpt lat="47.198122" lon="10.932947">
        <ele>1829.347546</ele>
        <time>2026-07-21T13:03:10.977Z</time>
      </trkpt>
      <trkpt lat="47.198041" lon="10.933022">
        <ele>1830.446741</ele>
        <time>2026-07-21T13:03:15.976Z</time>
      </trkpt>
      <trkpt lat="47.197954" lon="10.933086">
        <ele>1831.563920</ele>
        <time>2026-07-21T13:03:20.976Z</time>
      </trkpt>
      <trkpt lat="47.197860" lon="10.933114">
        <ele>1832.665515</ele>
        <time>2026-07-21T13:03:25.977Z</time>
      </trkpt>
      <trkpt lat="47.197783" lon="10.933211">
        <ele>1833.829705</ele>
        <time>2026-07-21T13:03:31.978Z</time>
      </trkpt>
      <trkpt lat="47.197875" lon="10.933261">
        <ele>1834.956185</ele>
        <time>2026-07-21T13:03:37.976Z</time>
      </trkpt>
      <trkpt lat="47.197967" lon="10.933227">
        <ele>1836.045723</ele>
        <time>2026-07-21T13:03:42.974Z</time>
      </trkpt>
      <trkpt lat="47.198065" lon="10.933198">
        <ele>1837.193899</ele>
        <time>2026-07-21T13:03:47.977Z</time>
      </trkpt>
      <trkpt lat="47.198157" lon="10.933172">
        <ele>1838.269936</ele>
        <time>2026-07-21T13:03:51.977Z</time>
      </trkpt>
      <trkpt lat="47.198258" lon="10.933116">
        <ele>1839.509638</ele>
        <time>2026-07-21T13:03:56.974Z</time>
      </trkpt>
      <trkpt lat="47.198354" lon="10.933101">
        <ele>1840.618511</ele>
        <time>2026-07-21T13:04:01.976Z</time>
      </trkpt>
      <trkpt lat="47.198445" lon="10.933157">
        <ele>1841.751448</ele>
        <time>2026-07-21T13:04:06.976Z</time>
      </trkpt>
      <trkpt lat="47.198538" lon="10.933241">
        <ele>1843.004789</ele>
        <time>2026-07-21T13:04:11.975Z</time>
      </trkpt>
      <trkpt lat="47.198616" lon="10.933327">
        <ele>1844.090215</ele>
        <time>2026-07-21T13:04:16.980Z</time>
      </trkpt>
      <trkpt lat="47.198693" lon="10.933421">
        <ele>1845.196078</ele>
        <time>2026-07-21T13:04:21.977Z</time>
      </trkpt>
      <trkpt lat="47.198601" lon="10.933466">
        <ele>1846.267746</ele>
        <time>2026-07-21T13:04:31.977Z</time>
      </trkpt>
      <trkpt lat="47.198516" lon="10.933397">
        <ele>1847.340787</ele>
        <time>2026-07-21T13:04:36.975Z</time>
      </trkpt>
      <trkpt lat="47.198422" lon="10.933390">
        <ele>1848.381199</ele>
        <time>2026-07-21T13:04:41.978Z</time>
      </trkpt>
      <trkpt lat="47.198324" lon="10.933449">
        <ele>1849.551629</ele>
        <time>2026-07-21T13:04:46.983Z</time>
      </trkpt>
      <trkpt lat="47.198245" lon="10.933526">
        <ele>1850.599042</ele>
        <time>2026-07-21T13:04:51.976Z</time>
      </trkpt>
      <trkpt lat="47.198159" lon="10.933618">
        <ele>1851.774292</ele>
        <time>2026-07-21T13:04:56.977Z</time>
      </trkpt>
      <trkpt lat="47.198069" lon="10.933699">
        <ele>1852.940433</ele>
        <time>2026-07-21T13:05:01.978Z</time>
      </trkpt>
      <trkpt lat="47.197979" lon="10.933764">
        <ele>1854.048632</ele>
        <time>2026-07-21T13:05:06.979Z</time>
      </trkpt>
      <trkpt lat="47.197893" lon="10.933857">
        <ele>1855.228316</ele>
        <time>2026-07-21T13:05:11.979Z</time>
      </trkpt>
      <trkpt lat="47.197810" lon="10.933941">
        <ele>1856.341796</ele>
        <time>2026-07-21T13:05:16.980Z</time>
      </trkpt>
      <trkpt lat="47.197724" lon="10.933986">
        <ele>1857.350742</ele>
        <time>2026-07-21T13:05:20.976Z</time>
      </trkpt>
      <trkpt lat="47.197628" lon="10.934018">
        <ele>1858.438811</ele>
        <time>2026-07-21T13:05:25.977Z</time>
      </trkpt>
      <trkpt lat="47.197627" lon="10.934152">
        <ele>1859.445336</ele>
        <time>2026-07-21T13:05:30.977Z</time>
      </trkpt>
      <trkpt lat="47.197813" lon="10.934201">
        <ele>1861.534072</ele>
        <time>2026-07-21T13:05:50.978Z</time>
      </trkpt>
      <trkpt lat="47.197912" lon="10.934188">
        <ele>1862.632772</ele>
        <time>2026-07-21T13:05:55.978Z</time>
      </trkpt>
      <trkpt lat="47.198008" lon="10.934182">
        <ele>1863.783533</ele>
        <time>2026-07-21T13:06:00.977Z</time>
      </trkpt>
      <trkpt lat="47.198111" lon="10.934158">
        <ele>1865.108651</ele>
        <time>2026-07-21T13:06:06.978Z</time>
      </trkpt>
      <trkpt lat="47.198206" lon="10.934151">
        <ele>1866.317324</ele>
        <time>2026-07-21T13:06:11.978Z</time>
      </trkpt>
      <trkpt lat="47.198301" lon="10.934152">
        <ele>1867.524515</ele>
        <time>2026-07-21T13:06:16.980Z</time>
      </trkpt>
      <trkpt lat="47.198392" lon="10.934225">
        <ele>1868.841463</ele>
        <time>2026-07-21T13:06:21.981Z</time>
      </trkpt>
      <trkpt lat="47.198457" lon="10.934322">
        <ele>1870.017720</ele>
        <time>2026-07-21T13:06:26.977Z</time>
      </trkpt>
      <trkpt lat="47.198525" lon="10.934424">
        <ele>1871.251485</ele>
        <time>2026-07-21T13:06:31.979Z</time>
      </trkpt>
      <trkpt lat="47.198600" lon="10.934507">
        <ele>1872.443870</ele>
        <time>2026-07-21T13:06:36.977Z</time>
      </trkpt>
      <trkpt lat="47.198690" lon="10.934565">
        <ele>1873.692326</ele>
        <time>2026-07-21T13:06:41.976Z</time>
      </trkpt>
      <trkpt lat="47.198774" lon="10.934639">
        <ele>1874.936315</ele>
        <time>2026-07-21T13:06:46.973Z</time>
      </trkpt>
      <trkpt lat="47.198861" lon="10.934718">
        <ele>1876.235300</ele>
        <time>2026-07-21T13:06:51.978Z</time>
      </trkpt>
      <trkpt lat="47.198926" lon="10.934827">
        <ele>1877.487434</ele>
        <time>2026-07-21T13:06:56.977Z</time>
      </trkpt>
      <trkpt lat="47.198996" lon="10.934933">
        <ele>1878.763657</ele>
        <time>2026-07-21T13:07:01.977Z</time>
      </trkpt>
      <trkpt lat="47.199073" lon="10.935035">
        <ele>1880.080044</ele>
        <time>2026-07-21T13:07:06.976Z</time>
      </trkpt>
      <trkpt lat="47.199129" lon="10.935158">
        <ele>1881.358366</ele>
        <time>2026-07-21T13:07:11.976Z</time>
      </trkpt>
      <trkpt lat="47.199169" lon="10.935284">
        <ele>1882.559105</ele>
        <time>2026-07-21T13:07:16.978Z</time>
      </trkpt>
      <trkpt lat="47.199219" lon="10.935409">
        <ele>1883.811456</ele>
        <time>2026-07-21T13:07:21.980Z</time>
      </trkpt>
      <trkpt lat="47.199288" lon="10.935509">
        <ele>1885.041967</ele>
        <time>2026-07-21T13:07:26.978Z</time>
      </trkpt>
      <trkpt lat="47.199359" lon="10.935612">
        <ele>1886.213965</ele>
        <time>2026-07-21T13:07:31.979Z</time>
      </trkpt>
      <trkpt lat="47.199420" lon="10.935724">
        <ele>1887.118752</ele>
        <time>2026-07-21T13:07:36.977Z</time>
      </trkpt>
      <trkpt lat="47.199484" lon="10.935832">
        <ele>1888.022051</ele>
        <time>2026-07-21T13:07:41.975Z</time>
      </trkpt>
      <trkpt lat="47.199549" lon="10.935947">
        <ele>1888.964956</ele>
        <time>2026-07-21T13:07:46.981Z</time>
      </trkpt>
      <trkpt lat="47.199612" lon="10.936046">
        <ele>1889.819939</ele>
        <time>2026-07-21T13:07:51.978Z</time>
      </trkpt>
      <trkpt lat="47.199693" lon="10.936125">
        <ele>1890.721400</ele>
        <time>2026-07-21T13:07:56.976Z</time>
      </trkpt>
      <trkpt lat="47.199790" lon="10.936183">
        <ele>1891.692705</ele>
        <time>2026-07-21T13:08:03.977Z</time>
      </trkpt>
      <trkpt lat="47.199892" lon="10.936179">
        <ele>1892.639303</ele>
        <time>2026-07-21T13:08:09.977Z</time>
      </trkpt>
      <trkpt lat="47.199981" lon="10.936220">
        <ele>1893.504464</ele>
        <time>2026-07-21T13:08:15.977Z</time>
      </trkpt>
      <trkpt lat="47.200079" lon="10.936248">
        <ele>1894.430590</ele>
        <time>2026-07-21T13:08:21.979Z</time>
      </trkpt>
      <trkpt lat="47.200170" lon="10.936258">
        <ele>1895.277155</ele>
        <time>2026-07-21T13:08:26.977Z</time>
      </trkpt>
      <trkpt lat="47.200264" lon="10.936298">
        <ele>1896.184917</ele>
        <time>2026-07-21T13:08:32.975Z</time>
      </trkpt>
      <trkpt lat="47.200352" lon="10.936382">
        <ele>1897.157963</ele>
        <time>2026-07-21T13:08:36.975Z</time>
      </trkpt>
      <trkpt lat="47.200449" lon="10.936438">
        <ele>1898.124593</ele>
        <time>2026-07-21T13:08:40.977Z</time>
      </trkpt>
      <trkpt lat="47.200540" lon="10.936397">
        <ele>1899.007477</ele>
        <time>2026-07-21T13:08:44.978Z</time>
      </trkpt>
      <trkpt lat="47.200627" lon="10.936347">
        <ele>1899.873932</ele>
        <time>2026-07-21T13:08:49.979Z</time>
      </trkpt>
      <trkpt lat="47.200742" lon="10.936364">
        <ele>1900.946165</ele>
        <time>2026-07-21T13:08:54.977Z</time>
      </trkpt>
      <trkpt lat="47.200857" lon="10.936381">
        <ele>1902.018397</ele>
        <time>2026-07-21T13:08:57.979Z</time>
      </trkpt>
      <trkpt lat="47.200950" lon="10.936298">
        <ele>1902.818425</ele>
        <time>2026-07-21T13:09:00.976Z</time>
      </trkpt>
      <trkpt lat="47.201007" lon="10.936178">
        <ele>1903.238656</ele>
        <time>2026-07-21T13:09:04.980Z</time>
      </trkpt>
      <trkpt lat="47.201047" lon="10.936034">
        <ele>1903.685154</ele>
        <time>2026-07-21T13:09:08.977Z</time>
      </trkpt>
      <trkpt lat="47.201095" lon="10.935906">
        <ele>1904.104765</ele>
        <time>2026-07-21T13:09:12.978Z</time>
      </trkpt>
      <trkpt lat="47.201160" lon="10.935779">
        <ele>1904.561111</ele>
        <time>2026-07-21T13:09:16.976Z</time>
      </trkpt>
      <trkpt lat="47.201241" lon="10.935674">
        <ele>1905.017063</ele>
        <time>2026-07-21T13:09:20.978Z</time>
      </trkpt>
      <trkpt lat="47.201338" lon="10.935596">
        <ele>1905.483981</ele>
        <time>2026-07-21T13:09:24.977Z</time>
      </trkpt>
      <trkpt lat="47.201437" lon="10.935571">
        <ele>1905.908293</ele>
        <time>2026-07-21T13:09:28.976Z</time>
      </trkpt>
      <trkpt lat="47.201536" lon="10.935558">
        <ele>1906.328155</ele>
        <time>2026-07-21T13:09:32.977Z</time>
      </trkpt>
      <trkpt lat="47.201629" lon="10.935527">
        <ele>1906.730959</ele>
        <time>2026-07-21T13:09:36.977Z</time>
      </trkpt>
      <trkpt lat="47.201716" lon="10.935478">
        <ele>1907.124458</ele>
        <time>2026-07-21T13:09:40.977Z</time>
      </trkpt>
      <trkpt lat="47.201804" lon="10.935445">
        <ele>1907.508067</ele>
        <time>2026-07-21T13:09:44.977Z</time>
      </trkpt>
      <trkpt lat="47.201899" lon="10.935429">
        <ele>1907.911990</ele>
        <time>2026-07-21T13:09:48.978Z</time>
      </trkpt>
      <trkpt lat="47.201990" lon="10.935396">
        <ele>1908.307893</ele>
        <time>2026-07-21T13:09:52.975Z</time>
      </trkpt>
      <trkpt lat="47.202089" lon="10.935380">
        <ele>1908.728607</ele>
        <time>2026-07-21T13:09:56.974Z</time>
      </trkpt>
      <trkpt lat="47.202197" lon="10.935404">
        <ele>1909.189997</ele>
        <time>2026-07-21T13:10:00.979Z</time>
      </trkpt>
      <trkpt lat="47.202295" lon="10.935437">
        <ele>1909.614669</ele>
        <time>2026-07-21T13:10:03.975Z</time>
      </trkpt>
      <trkpt lat="47.202412" lon="10.935435">
        <ele>1910.108940</ele>
        <time>2026-07-21T13:10:07.976Z</time>
      </trkpt>
      <trkpt lat="47.202512" lon="10.935426">
        <ele>1910.413891</ele>
        <time>2026-07-21T13:10:10.978Z</time>
      </trkpt>
      <trkpt lat="47.202607" lon="10.935450">
        <ele>1910.655305</ele>
        <time>2026-07-21T13:10:13.977Z</time>
      </trkpt>
      <trkpt lat="47.202713" lon="10.935483">
        <ele>1910.926663</ele>
        <time>2026-07-21T13:10:17.978Z</time>
      </trkpt>
      <trkpt lat="47.202803" lon="10.935514">
        <ele>1911.158164</ele>
        <time>2026-07-21T13:10:20.978Z</time>
      </trkpt>
      <trkpt lat="47.202927" lon="10.935566">
        <ele>1911.481090</ele>
        <time>2026-07-21T13:10:23.984Z</time>
      </trkpt>
      <trkpt lat="47.203026" lon="10.935573">
        <ele>1911.729329</ele>
        <time>2026-07-21T13:10:25.980Z</time>
      </trkpt>
      <trkpt lat="47.203148" lon="10.935556">
        <ele>1912.036253</ele>
        <time>2026-07-21T13:10:28.977Z</time>
      </trkpt>
      <trkpt lat="47.203343" lon="10.935737">
        <ele>1912.613647</ele>
        <time>2026-07-21T13:15:00.977Z</time>
      </trkpt>
      <trkpt lat="47.203437" lon="10.935791">
        <ele>1912.866373</ele>
        <time>2026-07-21T13:15:03.975Z</time>
      </trkpt>
      <trkpt lat="47.203529" lon="10.935812">
        <ele>1913.099548</ele>
        <time>2026-07-21T13:15:06.980Z</time>
      </trkpt>
      <trkpt lat="47.203631" lon="10.935761">
        <ele>1913.369351</ele>
        <time>2026-07-21T13:15:09.977Z</time>
      </trkpt>
      <trkpt lat="47.203701" lon="10.935654">
        <ele>1913.622109</ele>
        <time>2026-07-21T13:15:12.977Z</time>
      </trkpt>
      <trkpt lat="47.203777" lon="10.935527">
        <ele>1913.910089</ele>
        <time>2026-07-21T13:15:16.978Z</time>
      </trkpt>
      <trkpt lat="47.203897" lon="10.935520">
        <ele>1914.210873</ele>
        <time>2026-07-21T13:15:20.976Z</time>
      </trkpt>
      <trkpt lat="47.204004" lon="10.935551">
        <ele>1914.484005</ele>
        <time>2026-07-21T13:15:24.978Z</time>
      </trkpt>
      <trkpt lat="47.204098" lon="10.935531">
        <ele>1914.721881</ele>
        <time>2026-07-21T13:15:28.976Z</time>
      </trkpt>
      <trkpt lat="47.204177" lon="10.935461">
        <ele>1915.609046</ele>
        <time>2026-07-21T13:15:32.977Z</time>
      </trkpt>
      <trkpt lat="47.204222" lon="10.935316">
        <ele>1916.742921</ele>
        <time>2026-07-21T13:15:36.979Z</time>
      </trkpt>
      <trkpt lat="47.204216" lon="10.935162">
        <ele>1917.840100</ele>
        <time>2026-07-21T13:15:40.977Z</time>
      </trkpt>
      <trkpt lat="47.204213" lon="10.935001">
        <ele>1918.985699</ele>
        <time>2026-07-21T13:15:44.976Z</time>
      </trkpt>
      <trkpt lat="47.204200" lon="10.934840">
        <ele>1920.138928</ele>
        <time>2026-07-21T13:15:48.976Z</time>
      </trkpt>
      <trkpt lat="47.204198" lon="10.934682">
        <ele>1921.262954</ele>
        <time>2026-07-21T13:15:53.980Z</time>
      </trkpt>
      <trkpt lat="47.204200" lon="10.934534">
        <ele>1922.315864</ele>
        <time>2026-07-21T13:15:57.977Z</time>
      </trkpt>
      <trkpt lat="47.204194" lon="10.934388">
        <ele>1923.356239</ele>
        <time>2026-07-21T13:16:01.975Z</time>
      </trkpt>
      <trkpt lat="47.204214" lon="10.934246">
        <ele>1924.387741</ele>
        <time>2026-07-21T13:16:05.978Z</time>
      </trkpt>
      <trkpt lat="47.204221" lon="10.934095">
        <ele>1925.464279</ele>
        <time>2026-07-21T13:16:09.977Z</time>
      </trkpt>
      <trkpt lat="47.204225" lon="10.933953">
        <ele>1926.475171</ele>
        <time>2026-07-21T13:16:13.977Z</time>
      </trkpt>
      <trkpt lat="47.204222" lon="10.933792">
        <ele>1927.620771</ele>
        <time>2026-07-21T13:16:18.979Z</time>
      </trkpt>
      <trkpt lat="47.204238" lon="10.933640">
        <ele>1928.714824</ele>
        <time>2026-07-21T13:16:22.977Z</time>
      </trkpt>
      <trkpt lat="47.204268" lon="10.933484">
        <ele>1929.868024</ele>
        <time>2026-07-21T13:16:26.976Z</time>
      </trkpt>
      <trkpt lat="47.204313" lon="10.933338">
        <ele>1931.008371</ele>
        <time>2026-07-21T13:16:30.977Z</time>
      </trkpt>
      <trkpt lat="47.204372" lon="10.933219">
        <ele>1932.056223</ele>
        <time>2026-07-21T13:16:34.978Z</time>
      </trkpt>
      <trkpt lat="47.204418" lon="10.933081">
        <ele>1933.149574</ele>
        <time>2026-07-21T13:16:38.982Z</time>
      </trkpt>
      <trkpt lat="47.204451" lon="10.932944">
        <ele>1933.580389</ele>
        <time>2026-07-21T13:16:42.976Z</time>
      </trkpt>
      <trkpt lat="47.204481" lon="10.932804">
        <ele>1933.585554</ele>
        <time>2026-07-21T13:16:46.976Z</time>
      </trkpt>
      <trkpt lat="47.204521" lon="10.932649">
        <ele>1933.591389</ele>
        <time>2026-07-21T13:16:50.977Z</time>
      </trkpt>
      <trkpt lat="47.204603" lon="10.932528">
        <ele>1933.597402</ele>
        <time>2026-07-21T13:16:54.975Z</time>
      </trkpt>
      <trkpt lat="47.204679" lon="10.932454">
        <ele>1933.602122</ele>
        <time>2026-07-21T13:16:57.977Z</time>
      </trkpt>
      <trkpt lat="47.204766" lon="10.932351">
        <ele>1933.607905</ele>
        <time>2026-07-21T13:17:00.977Z</time>
      </trkpt>
      <trkpt lat="47.204854" lon="10.932217">
        <ele>1933.614463</ele>
        <time>2026-07-21T13:17:03.976Z</time>
      </trkpt>
      <trkpt lat="47.204916" lon="10.932094">
        <ele>1933.619852</ele>
        <time>2026-07-21T13:17:06.975Z</time>
      </trkpt>
      <trkpt lat="47.204973" lon="10.931967">
        <ele>1933.625208</ele>
        <time>2026-07-21T13:17:09.977Z</time>
      </trkpt>
      <trkpt lat="47.205038" lon="10.931823">
        <ele>1933.631291</ele>
        <time>2026-07-21T13:17:12.978Z</time>
      </trkpt>
      <trkpt lat="47.205083" lon="10.931708">
        <ele>1933.635961</ele>
        <time>2026-07-21T13:17:14.976Z</time>
      </trkpt>
      <trkpt lat="47.205136" lon="10.931593">
        <ele>1933.640851</ele>
        <time>2026-07-21T13:17:16.978Z</time>
      </trkpt>
      <trkpt lat="47.205191" lon="10.931473">
        <ele>1933.645944</ele>
        <time>2026-07-21T13:17:18.979Z</time>
      </trkpt>
      <trkpt lat="47.205272" lon="10.931312">
        <ele>1933.652993</ele>
        <time>2026-07-21T13:17:21.977Z</time>
      </trkpt>
      <trkpt lat="47.205344" lon="10.931166">
        <ele>1933.659342</ele>
        <time>2026-07-21T13:17:24.977Z</time>
      </trkpt>
      <trkpt lat="47.205415" lon="10.931014">
        <ele>1933.665832</ele>
        <time>2026-07-21T13:17:27.977Z</time>
      </trkpt>
      <trkpt lat="47.205485" lon="10.930917">
        <ele>1933.708396</ele>
        <time>2026-07-21T13:17:29.977Z</time>
      </trkpt>
      <trkpt lat="47.205579" lon="10.930811">
        <ele>1934.590083</ele>
        <time>2026-07-21T13:17:31.976Z</time>
      </trkpt>
      <trkpt lat="47.205676" lon="10.930711">
        <ele>1935.471849</ele>
        <time>2026-07-21T13:17:33.977Z</time>
      </trkpt>
      <trkpt lat="47.205770" lon="10.930610">
        <ele>1936.338385</ele>
        <time>2026-07-21T13:17:35.977Z</time>
      </trkpt>
      <trkpt lat="47.205867" lon="10.930510">
        <ele>1937.220150</ele>
        <time>2026-07-21T13:17:37.977Z</time>
      </trkpt>
      <trkpt lat="47.205953" lon="10.930440">
        <ele>1937.951868</ele>
        <time>2026-07-21T13:17:39.980Z</time>
      </trkpt>
      <trkpt lat="47.206045" lon="10.930376">
        <ele>1938.709528</ele>
        <time>2026-07-21T13:17:42.974Z</time>
      </trkpt>
      <trkpt lat="47.206119" lon="10.930293">
        <ele>1939.402247</ele>
        <time>2026-07-21T13:17:45.978Z</time>
      </trkpt>
      <trkpt lat="47.206208" lon="10.930214">
        <ele>1940.176087</ele>
        <time>2026-07-21T13:17:48.976Z</time>
      </trkpt>
      <trkpt lat="47.206288" lon="10.930147">
        <ele>1940.861416</ele>
        <time>2026-07-21T13:17:51.977Z</time>
      </trkpt>
      <trkpt lat="47.206371" lon="10.930081">
        <ele>1941.563828</ele>
        <time>2026-07-21T13:17:54.976Z</time>
      </trkpt>
      <trkpt lat="47.206453" lon="10.930018">
        <ele>1942.252545</ele>
        <time>2026-07-21T13:17:58.977Z</time>
      </trkpt>
      <trkpt lat="47.206542" lon="10.929939">
        <ele>1943.026384</ele>
        <time>2026-07-21T13:18:02.976Z</time>
      </trkpt>
      <trkpt lat="47.206636" lon="10.929869">
        <ele>1943.810758</ele>
        <time>2026-07-21T13:18:06.978Z</time>
      </trkpt>
      <trkpt lat="47.206717" lon="10.929777">
        <ele>1944.572536</ele>
        <time>2026-07-21T13:18:10.976Z</time>
      </trkpt>
      <trkpt lat="47.206803" lon="10.929697">
        <ele>1945.330024</ele>
        <time>2026-07-21T13:18:14.974Z</time>
      </trkpt>
      <trkpt lat="47.206892" lon="10.929627">
        <ele>1946.081365</ele>
        <time>2026-07-21T13:18:18.976Z</time>
      </trkpt>
      <trkpt lat="47.206989" lon="10.929564">
        <ele>1946.870786</ele>
        <time>2026-07-21T13:18:22.977Z</time>
      </trkpt>
      <trkpt lat="47.207081" lon="10.929514">
        <ele>1948.105160</ele>
        <time>2026-07-21T13:18:26.978Z</time>
      </trkpt>
      <trkpt lat="47.207166" lon="10.929445">
        <ele>1949.505039</ele>
        <time>2026-07-21T13:18:32.978Z</time>
      </trkpt>
      <trkpt lat="47.207268" lon="10.929390">
        <ele>1951.071627</ele>
        <time>2026-07-21T13:18:38.977Z</time>
      </trkpt>
      <trkpt lat="47.207360" lon="10.929352">
        <ele>1952.449655</ele>
        <time>2026-07-21T13:18:43.979Z</time>
      </trkpt>
      <trkpt lat="47.207439" lon="10.929272">
        <ele>1953.832523</ele>
        <time>2026-07-21T13:18:48.978Z</time>
      </trkpt>
      <trkpt lat="47.207525" lon="10.929207">
        <ele>1955.226715</ele>
        <time>2026-07-21T13:18:53.979Z</time>
      </trkpt>
      <trkpt lat="47.207602" lon="10.929134">
        <ele>1956.547559</ele>
        <time>2026-07-21T13:18:58.978Z</time>
      </trkpt>
      <trkpt lat="47.207696" lon="10.929087">
        <ele>1957.979256</ele>
        <time>2026-07-21T13:19:04.976Z</time>
      </trkpt>
      <trkpt lat="47.207650" lon="10.929219">
        <ele>1959.432711</ele>
        <time>2026-07-21T13:19:12.978Z</time>
      </trkpt>
      <trkpt lat="47.207571" lon="10.929324">
        <ele>1960.967719</ele>
        <time>2026-07-21T13:19:18.975Z</time>
      </trkpt>
      <trkpt lat="47.207501" lon="10.929409">
        <ele>1962.276384</ele>
        <time>2026-07-21T13:19:23.978Z</time>
      </trkpt>
      <trkpt lat="47.207432" lon="10.929495">
        <ele>1963.580267</ele>
        <time>2026-07-21T13:19:28.977Z</time>
      </trkpt>
      <trkpt lat="47.207359" lon="10.929589">
        <ele>1964.979005</ele>
        <time>2026-07-21T13:19:33.976Z</time>
      </trkpt>
      <trkpt lat="47.207291" lon="10.929681">
        <ele>1966.310971</ele>
        <time>2026-07-21T13:19:38.971Z</time>
      </trkpt>
      <trkpt lat="47.207222" lon="10.929773">
        <ele>1967.653591</ele>
        <time>2026-07-21T13:19:43.978Z</time>
      </trkpt>
      <trkpt lat="47.207159" lon="10.929871">
        <ele>1968.975460</ele>
        <time>2026-07-21T13:19:48.978Z</time>
      </trkpt>
      <trkpt lat="47.207077" lon="10.929966">
        <ele>1970.480368</ele>
        <time>2026-07-21T13:19:54.977Z</time>
      </trkpt>
      <trkpt lat="47.207016" lon="10.930078">
        <ele>1971.886769</ele>
        <time>2026-07-21T13:20:00.980Z</time>
      </trkpt>
      <trkpt lat="47.207105" lon="10.930123">
        <ele>1973.130759</ele>
        <time>2026-07-21T13:20:06.981Z</time>
      </trkpt>
      <trkpt lat="47.207182" lon="10.930041">
        <ele>1973.859996</ele>
        <time>2026-07-21T13:20:11.977Z</time>
      </trkpt>
      <trkpt lat="47.207268" lon="10.929995">
        <ele>1974.562098</ele>
        <time>2026-07-21T13:20:16.979Z</time>
      </trkpt>
      <trkpt lat="47.207360" lon="10.929932">
        <ele>1975.340671</ele>
        <time>2026-07-21T13:20:22.976Z</time>
      </trkpt>
      <trkpt lat="47.207453" lon="10.929865">
        <ele>1976.135151</ele>
        <time>2026-07-21T13:20:28.977Z</time>
      </trkpt>
      <trkpt lat="47.207544" lon="10.929788">
        <ele>1976.940545</ele>
        <time>2026-07-21T13:20:34.979Z</time>
      </trkpt>
      <trkpt lat="47.207624" lon="10.929715">
        <ele>1977.662770</ele>
        <time>2026-07-21T13:20:39.977Z</time>
      </trkpt>
      <trkpt lat="47.207719" lon="10.929654">
        <ele>1978.458048</ele>
        <time>2026-07-21T13:20:44.977Z</time>
      </trkpt>
      <trkpt lat="47.207811" lon="10.929583">
        <ele>1979.255107</ele>
        <time>2026-07-21T13:20:49.976Z</time>
      </trkpt>
      <trkpt lat="47.207902" lon="10.929538">
        <ele>1979.991707</ele>
        <time>2026-07-21T13:20:53.978Z</time>
      </trkpt>
      <trkpt lat="47.208008" lon="10.929523">
        <ele>1980.808805</ele>
        <time>2026-07-21T13:20:57.978Z</time>
      </trkpt>
      <trkpt lat="47.208114" lon="10.929480">
        <ele>1981.652473</ele>
        <time>2026-07-21T13:21:01.977Z</time>
      </trkpt>
      <trkpt lat="47.208207" lon="10.929426">
        <ele>1982.419581</ele>
        <time>2026-07-21T13:21:04.978Z</time>
      </trkpt>
      <trkpt lat="47.208304" lon="10.929375">
        <ele>1983.209923</ele>
        <time>2026-07-21T13:21:07.976Z</time>
      </trkpt>
      <trkpt lat="47.208414" lon="10.929347">
        <ele>1984.066490</ele>
        <time>2026-07-21T13:21:10.976Z</time>
      </trkpt>
      <trkpt lat="47.208539" lon="10.929338">
        <ele>1985.026775</ele>
        <time>2026-07-21T13:21:13.977Z</time>
      </trkpt>
      <trkpt lat="47.208635" lon="10.929319">
        <ele>1985.770020</ele>
        <time>2026-07-21T13:21:15.974Z</time>
      </trkpt>
      <trkpt lat="47.208736" lon="10.929287">
        <ele>1986.562751</ele>
        <time>2026-07-21T13:21:17.981Z</time>
      </trkpt>
      <trkpt lat="47.208857" lon="10.929240">
        <ele>1987.172660</ele>
        <time>2026-07-21T13:21:20.977Z</time>
      </trkpt>
      <trkpt lat="47.208966" lon="10.929199">
        <ele>1987.615710</ele>
        <time>2026-07-21T13:21:24.976Z</time>
      </trkpt>
      <trkpt lat="47.209077" lon="10.929202">
        <ele>1988.052917</ele>
        <time>2026-07-21T13:21:28.977Z</time>
      </trkpt>
      <trkpt lat="47.209187" lon="10.929269">
        <ele>1988.521730</ele>
        <time>2026-07-21T13:21:32.978Z</time>
      </trkpt>
      <trkpt lat="47.209264" lon="10.929352">
        <ele>1988.897573</ele>
        <time>2026-07-21T13:21:35.982Z</time>
      </trkpt>
      <trkpt lat="47.209346" lon="10.929435">
        <ele>1989.289474</ele>
        <time>2026-07-21T13:21:38.976Z</time>
      </trkpt>
      <trkpt lat="47.209438" lon="10.929511">
        <ele>1989.704934</ele>
        <time>2026-07-21T13:21:41.978Z</time>
      </trkpt>
      <trkpt lat="47.209530" lon="10.929560">
        <ele>1990.090228</ele>
        <time>2026-07-21T13:21:44.977Z</time>
      </trkpt>
      <trkpt lat="47.209632" lon="10.929591">
        <ele>1990.500390</ele>
        <time>2026-07-21T13:21:47.977Z</time>
      </trkpt>
      <trkpt lat="47.209732" lon="10.929593">
        <ele>1990.894240</ele>
        <time>2026-07-21T13:21:50.978Z</time>
      </trkpt>
      <trkpt lat="47.209834" lon="10.929557">
        <ele>1991.307314</ele>
        <time>2026-07-21T13:21:53.979Z</time>
      </trkpt>
      <trkpt lat="47.209931" lon="10.929529">
        <ele>1991.696589</ele>
        <time>2026-07-21T13:21:56.978Z</time>
      </trkpt>
      <trkpt lat="47.210020" lon="10.929507">
        <ele>1992.051990</ele>
        <time>2026-07-21T13:21:59.979Z</time>
      </trkpt>
      <trkpt lat="47.210135" lon="10.929512">
        <ele>1992.505074</ele>
        <time>2026-07-21T13:22:03.978Z</time>
      </trkpt>
      <trkpt lat="47.210219" lon="10.929594">
        <ele>1992.902004</ele>
        <time>2026-07-21T13:22:07.977Z</time>
      </trkpt>
      <trkpt lat="47.210289" lon="10.929708">
        <ele>1993.313104</ele>
        <time>2026-07-21T13:22:11.977Z</time>
      </trkpt>
      <trkpt lat="47.210342" lon="10.929826">
        <ele>1993.691542</ele>
        <time>2026-07-21T13:22:15.978Z</time>
      </trkpt>
      <trkpt lat="47.210392" lon="10.929967">
        <ele>1994.306159</ele>
        <time>2026-07-21T13:22:20.974Z</time>
      </trkpt>
      <trkpt lat="47.210438" lon="10.930083">
        <ele>1994.960355</ele>
        <time>2026-07-21T13:22:24.976Z</time>
      </trkpt>
      <trkpt lat="47.210497" lon="10.930220">
        <ele>1995.750402</ele>
        <time>2026-07-21T13:22:28.979Z</time>
      </trkpt>
      <trkpt lat="47.210554" lon="10.930369">
        <ele>1996.583264</ele>
        <time>2026-07-21T13:22:32.981Z</time>
      </trkpt>
      <trkpt lat="47.210612" lon="10.930506">
        <ele>1997.369493</ele>
        <time>2026-07-21T13:22:36.981Z</time>
      </trkpt>
      <trkpt lat="47.210675" lon="10.930643">
        <ele>1998.175258</ele>
        <time>2026-07-21T13:22:40.981Z</time>
      </trkpt>
      <trkpt lat="47.210712" lon="10.930788">
        <ele>1998.929656</ele>
        <time>2026-07-21T13:22:44.981Z</time>
      </trkpt>
      <trkpt lat="47.210741" lon="10.930939">
        <ele>1999.693923</ele>
        <time>2026-07-21T13:22:48.979Z</time>
      </trkpt>
      <trkpt lat="47.210788" lon="10.931075">
        <ele>2000.437095</ele>
        <time>2026-07-21T13:22:52.976Z</time>
      </trkpt>
      <trkpt lat="47.210880" lon="10.931176">
        <ele>2001.259942</ele>
        <time>2026-07-21T13:22:56.976Z</time>
      </trkpt>
      <trkpt lat="47.210993" lon="10.931212">
        <ele>2002.088883</ele>
        <time>2026-07-21T13:23:00.974Z</time>
      </trkpt>
      <trkpt lat="47.211105" lon="10.931215">
        <ele>2002.892031</ele>
        <time>2026-07-21T13:23:04.978Z</time>
      </trkpt>
      <trkpt lat="47.211215" lon="10.931201">
        <ele>2003.683648</ele>
        <time>2026-07-21T13:23:08.976Z</time>
      </trkpt>
      <trkpt lat="47.211321" lon="10.931173">
        <ele>2004.455783</ele>
        <time>2026-07-21T13:23:12.977Z</time>
      </trkpt>
      <trkpt lat="47.211423" lon="10.931166">
        <ele>2005.187894</ele>
        <time>2026-07-21T13:23:16.977Z</time>
      </trkpt>
      <trkpt lat="47.211529" lon="10.931183">
        <ele>2005.952387</ele>
        <time>2026-07-21T13:23:20.975Z</time>
      </trkpt>
      <trkpt lat="47.211639" lon="10.931174">
        <ele>2006.742280</ele>
        <time>2026-07-21T13:23:24.975Z</time>
      </trkpt>
      <trkpt lat="47.211727" lon="10.931091">
        <ele>2007.266287</ele>
        <time>2026-07-21T13:23:28.975Z</time>
      </trkpt>
      <trkpt lat="47.211817" lon="10.931004">
        <ele>2007.792967</ele>
        <time>2026-07-21T13:23:32.976Z</time>
      </trkpt>
      <trkpt lat="47.211901" lon="10.930888">
        <ele>2008.356358</ele>
        <time>2026-07-21T13:23:36.977Z</time>
      </trkpt>
      <trkpt lat="47.211976" lon="10.930771">
        <ele>2008.890906</ele>
        <time>2026-07-21T13:23:40.978Z</time>
      </trkpt>
      <trkpt lat="47.212052" lon="10.930690">
        <ele>2009.349874</ele>
        <time>2026-07-21T13:23:46.976Z</time>
      </trkpt>
      <trkpt lat="47.211944" lon="10.930816">
        <ele>2010.023959</ele>
        <time>2026-07-21T13:24:32.985Z</time>
      </trkpt>
      <trkpt lat="47.211845" lon="10.930930">
        <ele>2010.638788</ele>
        <time>2026-07-21T13:24:35.973Z</time>
      </trkpt>
      <trkpt lat="47.211743" lon="10.931057">
        <ele>2011.292268</ele>
        <time>2026-07-21T13:24:38.983Z</time>
      </trkpt>
      <trkpt lat="47.211660" lon="10.931160">
        <ele>2011.823286</ele>
        <time>2026-07-21T13:24:41.972Z</time>
      </trkpt>
      <trkpt lat="47.211646" lon="10.931294">
        <ele>2012.273785</ele>
        <time>2026-07-21T13:24:46.975Z</time>
      </trkpt>
      <trkpt lat="47.211740" lon="10.931346">
        <ele>2012.764994</ele>
        <time>2026-07-21T13:24:50.980Z</time>
      </trkpt>
      <trkpt lat="47.211826" lon="10.931433">
        <ele>2013.275431</ele>
        <time>2026-07-21T13:24:54.970Z</time>
      </trkpt>
      <trkpt lat="47.211885" lon="10.931545">
        <ele>2013.746384</ele>
        <time>2026-07-21T13:24:58.976Z</time>
      </trkpt>
      <trkpt lat="47.211890" lon="10.931701">
        <ele>2014.265325</ele>
        <time>2026-07-21T13:25:02.973Z</time>
      </trkpt>
      <trkpt lat="47.211912" lon="10.931842">
        <ele>2014.746047</ele>
        <time>2026-07-21T13:25:06.975Z</time>
      </trkpt>
      <trkpt lat="47.211950" lon="10.931983">
        <ele>2015.250096</ele>
        <time>2026-07-21T13:25:10.978Z</time>
      </trkpt>
      <trkpt lat="47.212009" lon="10.932118">
        <ele>2015.267565</ele>
        <time>2026-07-21T13:25:14.973Z</time>
      </trkpt>
      <trkpt lat="47.212087" lon="10.932212">
        <ele>2014.505532</ele>
        <time>2026-07-21T13:25:18.978Z</time>
      </trkpt>
      <trkpt lat="47.212180" lon="10.932232">
        <ele>2013.795023</ele>
        <time>2026-07-21T13:25:23.976Z</time>
      </trkpt>
      <trkpt lat="47.212281" lon="10.932230">
        <ele>2013.031430</ele>
        <time>2026-07-21T13:25:28.977Z</time>
      </trkpt>
      <trkpt lat="47.212392" lon="10.932249">
        <ele>2012.186657</ele>
        <time>2026-07-21T13:25:33.981Z</time>
      </trkpt>
      <trkpt lat="47.212478" lon="10.932296">
        <ele>2011.493174</ele>
        <time>2026-07-21T13:25:38.975Z</time>
      </trkpt>
      <trkpt lat="47.212503" lon="10.932436">
        <ele>2010.749830</ele>
        <time>2026-07-21T13:25:41.974Z</time>
      </trkpt>
      <trkpt lat="47.212554" lon="10.932591">
        <ele>2009.865427</ele>
        <time>2026-07-21T13:25:44.972Z</time>
      </trkpt>
      <trkpt lat="47.212660" lon="10.932708">
        <ele>2008.863884</ele>
        <time>2026-07-21T13:25:47.973Z</time>
      </trkpt>
      <trkpt lat="47.212759" lon="10.932734">
        <ele>2008.103664</ele>
        <time>2026-07-21T13:25:49.972Z</time>
      </trkpt>
      <trkpt lat="47.212885" lon="10.932731">
        <ele>2007.151025</ele>
        <time>2026-07-21T13:25:51.972Z</time>
      </trkpt>
      <trkpt lat="47.213025" lon="10.932744">
        <ele>2006.090571</ele>
        <time>2026-07-21T13:25:53.973Z</time>
      </trkpt>
      <trkpt lat="47.213157" lon="10.932767">
        <ele>2005.085733</ele>
        <time>2026-07-21T13:25:55.974Z</time>
      </trkpt>
      <trkpt lat="47.213292" lon="10.932780">
        <ele>2004.063001</ele>
        <time>2026-07-21T13:25:57.973Z</time>
      </trkpt>
      <trkpt lat="47.213437" lon="10.932787">
        <ele>2002.966263</ele>
        <time>2026-07-21T13:25:59.983Z</time>
      </trkpt>
      <trkpt lat="47.213551" lon="10.932777">
        <ele>2002.102935</ele>
        <time>2026-07-21T13:26:01.971Z</time>
      </trkpt>
      <trkpt lat="47.213658" lon="10.932762">
        <ele>2000.884684</ele>
        <time>2026-07-21T13:26:03.975Z</time>
      </trkpt>
      <trkpt lat="47.213766" lon="10.932723">
        <ele>1999.552116</ele>
        <time>2026-07-21T13:26:05.971Z</time>
      </trkpt>
      <trkpt lat="47.213888" lon="10.932702">
        <ele>1998.080187</ele>
        <time>2026-07-21T13:26:07.977Z</time>
      </trkpt>
      <trkpt lat="47.214020" lon="10.932726">
        <ele>1996.486366</ele>
        <time>2026-07-21T13:26:09.973Z</time>
      </trkpt>
      <trkpt lat="47.214140" lon="10.932762">
        <ele>1995.018809</ele>
        <time>2026-07-21T13:26:11.972Z</time>
      </trkpt>
      <trkpt lat="47.214255" lon="10.932802">
        <ele>1993.602783</ele>
        <time>2026-07-21T13:26:13.977Z</time>
      </trkpt>
      <trkpt lat="47.214378" lon="10.932833">
        <ele>1992.107386</ele>
        <time>2026-07-21T13:26:15.977Z</time>
      </trkpt>
      <trkpt lat="47.214522" lon="10.932866">
        <ele>1990.361001</ele>
        <time>2026-07-21T13:26:17.977Z</time>
      </trkpt>
      <trkpt lat="47.214652" lon="10.932888">
        <ele>1988.792906</ele>
        <time>2026-07-21T13:26:19.977Z</time>
      </trkpt>
      <trkpt lat="47.214785" lon="10.932909">
        <ele>1987.189980</ele>
        <time>2026-07-21T13:26:21.972Z</time>
      </trkpt>
      <trkpt lat="47.214910" lon="10.932935">
        <ele>1985.677183</ele>
        <time>2026-07-21T13:26:23.975Z</time>
      </trkpt>
      <trkpt lat="47.215043" lon="10.932988">
        <ele>1984.026043</ele>
        <time>2026-07-21T13:26:25.976Z</time>
      </trkpt>
      <trkpt lat="47.215155" lon="10.933072">
        <ele>1982.519783</ele>
        <time>2026-07-21T13:26:27.979Z</time>
      </trkpt>
      <trkpt lat="47.215254" lon="10.933163">
        <ele>1981.121183</ele>
        <time>2026-07-21T13:26:29.978Z</time>
      </trkpt>
      <trkpt lat="47.215346" lon="10.933247">
        <ele>1979.868006</ele>
        <time>2026-07-21T13:26:31.973Z</time>
      </trkpt>
      <trkpt lat="47.215427" lon="10.933341">
        <ele>1978.721991</ele>
        <time>2026-07-21T13:26:33.977Z</time>
      </trkpt>
      <trkpt lat="47.215526" lon="10.933413">
        <ele>1977.495068</ele>
        <time>2026-07-21T13:26:36.972Z</time>
      </trkpt>
      <trkpt lat="47.215544" lon="10.933247">
        <ele>1976.226353</ele>
        <time>2026-07-21T13:26:40.976Z</time>
      </trkpt>
      <trkpt lat="47.215480" lon="10.933070">
        <ele>1974.712994</ele>
        <time>2026-07-21T13:26:43.985Z</time>
      </trkpt>
      <trkpt lat="47.215423" lon="10.932937">
        <ele>1973.526096</ele>
        <time>2026-07-21T13:26:45.973Z</time>
      </trkpt>
      <trkpt lat="47.215342" lon="10.932788">
        <ele>1972.085733</ele>
        <time>2026-07-21T13:26:47.973Z</time>
      </trkpt>
      <trkpt lat="47.215263" lon="10.932628">
        <ele>1970.592830</ele>
        <time>2026-07-21T13:26:49.981Z</time>
      </trkpt>
      <trkpt lat="47.215187" lon="10.932480">
        <ele>1969.192537</ele>
        <time>2026-07-21T13:26:51.977Z</time>
      </trkpt>
      <trkpt lat="47.215114" lon="10.932346">
        <ele>1967.896100</ele>
        <time>2026-07-21T13:26:53.981Z</time>
      </trkpt>
      <trkpt lat="47.215019" lon="10.932210">
        <ele>1966.423746</ele>
        <time>2026-07-21T13:26:55.980Z</time>
      </trkpt>
      <trkpt lat="47.214913" lon="10.932060">
        <ele>1964.790074</ele>
        <time>2026-07-21T13:26:57.979Z</time>
      </trkpt>
      <trkpt lat="47.214811" lon="10.931900">
        <ele>1963.133948</ele>
        <time>2026-07-21T13:26:59.978Z</time>
      </trkpt>
      <trkpt lat="47.214723" lon="10.931756">
        <ele>1961.672003</ele>
        <time>2026-07-21T13:27:01.976Z</time>
      </trkpt>
      <trkpt lat="47.214657" lon="10.931620">
        <ele>1960.439333</ele>
        <time>2026-07-21T13:27:03.977Z</time>
      </trkpt>
      <trkpt lat="47.214597" lon="10.931519">
        <ele>1960.283507</ele>
        <time>2026-07-21T13:27:05.978Z</time>
      </trkpt>
      <trkpt lat="47.214529" lon="10.931395">
        <ele>1960.098427</ele>
        <time>2026-07-21T13:27:08.978Z</time>
      </trkpt>
      <trkpt lat="47.214614" lon="10.931308">
        <ele>1959.921429</ele>
        <time>2026-07-21T13:27:13.977Z</time>
      </trkpt>
      <trkpt lat="47.214691" lon="10.931406">
        <ele>1959.747404</ele>
        <time>2026-07-21T13:27:16.977Z</time>
      </trkpt>
      <trkpt lat="47.214774" lon="10.931504">
        <ele>1959.565496</ele>
        <time>2026-07-21T13:27:19.977Z</time>
      </trkpt>
      <trkpt lat="47.214853" lon="10.931576">
        <ele>1959.406640</ele>
        <time>2026-07-21T13:27:21.985Z</time>
      </trkpt>
      <trkpt lat="47.214938" lon="10.931666">
        <ele>1959.227630</ele>
        <time>2026-07-21T13:27:23.978Z</time>
      </trkpt>
      <trkpt lat="47.215025" lon="10.931757">
        <ele>1959.045164</ele>
        <time>2026-07-21T13:27:25.976Z</time>
      </trkpt>
      <trkpt lat="47.215123" lon="10.931849">
        <ele>1958.846444</ele>
        <time>2026-07-21T13:27:27.978Z</time>
      </trkpt>
      <trkpt lat="47.215227" lon="10.931932">
        <ele>1958.644187</ele>
        <time>2026-07-21T13:27:29.976Z</time>
      </trkpt>
      <trkpt lat="47.215321" lon="10.932027">
        <ele>1958.449248</ele>
        <time>2026-07-21T13:27:31.978Z</time>
      </trkpt>
      <trkpt lat="47.215423" lon="10.932110">
        <ele>1958.249990</ele>
        <time>2026-07-21T13:27:33.978Z</time>
      </trkpt>
      <trkpt lat="47.215519" lon="10.932199">
        <ele>1958.056024</ele>
        <time>2026-07-21T13:27:35.978Z</time>
      </trkpt>
      <trkpt lat="47.215615" lon="10.932284">
        <ele>1957.864494</ele>
        <time>2026-07-21T13:27:37.974Z</time>
      </trkpt>
      <trkpt lat="47.215700" lon="10.932382">
        <ele>1957.679906</ele>
        <time>2026-07-21T13:27:39.976Z</time>
      </trkpt>
      <trkpt lat="47.215787" lon="10.932488">
        <ele>1957.486829</ele>
        <time>2026-07-21T13:27:41.978Z</time>
      </trkpt>
      <trkpt lat="47.215872" lon="10.932587">
        <ele>1957.319023</ele>
        <time>2026-07-21T13:27:43.979Z</time>
      </trkpt>
      <trkpt lat="47.215957" lon="10.932678">
        <ele>1957.185673</ele>
        <time>2026-07-21T13:27:45.978Z</time>
      </trkpt>
      <trkpt lat="47.216049" lon="10.932784">
        <ele>1957.037444</ele>
        <time>2026-07-21T13:27:48.982Z</time>
      </trkpt>
      <trkpt lat="47.216101" lon="10.932915">
        <ele>1956.906679</ele>
        <time>2026-07-21T13:27:54.977Z</time>
      </trkpt>
      <trkpt lat="47.216157" lon="10.933028">
        <ele>1956.786127</ele>
        <time>2026-07-21T13:27:58.978Z</time>
      </trkpt>
      <trkpt lat="47.216189" lon="10.933160">
        <ele>1956.665337</ele>
        <time>2026-07-21T13:28:03.978Z</time>
      </trkpt>
      <trkpt lat="47.216260" lon="10.933257">
        <ele>1956.542439</ele>
        <time>2026-07-21T13:29:12.978Z</time>
      </trkpt>
      <trkpt lat="47.216331" lon="10.933354">
        <ele>1956.419541</ele>
        <time>2026-07-21T13:55:37.975Z</time>
      </trkpt>
      <trkpt lat="47.216240" lon="10.933270">
        <ele>1956.283260</ele>
        <time>2026-07-21T13:56:01.979Z</time>
      </trkpt>
      <trkpt lat="47.216179" lon="10.933132">
        <ele>1956.141361</ele>
        <time>2026-07-21T13:57:18.978Z</time>
      </trkpt>
      <trkpt lat="47.216138" lon="10.933009">
        <ele>1956.023279</ele>
        <time>2026-07-21T13:57:21.973Z</time>
      </trkpt>
      <trkpt lat="47.216090" lon="10.932873">
        <ele>1955.891192</ele>
        <time>2026-07-21T13:57:24.982Z</time>
      </trkpt>
      <trkpt lat="47.216019" lon="10.932744">
        <ele>1955.748099</ele>
        <time>2026-07-21T13:57:27.975Z</time>
      </trkpt>
      <trkpt lat="47.215946" lon="10.932656">
        <ele>1955.628387</ele>
        <time>2026-07-21T13:57:29.981Z</time>
      </trkpt>
      <trkpt lat="47.215841" lon="10.932537">
        <ele>1955.460258</ele>
        <time>2026-07-21T13:57:32.973Z</time>
      </trkpt>
      <trkpt lat="47.215757" lon="10.932452">
        <ele>1955.330929</ele>
        <time>2026-07-21T13:57:34.976Z</time>
      </trkpt>
      <trkpt lat="47.215665" lon="10.932347">
        <ele>1955.183229</ele>
        <time>2026-07-21T13:57:36.981Z</time>
      </trkpt>
      <trkpt lat="47.215576" lon="10.932246">
        <ele>1955.031035</ele>
        <time>2026-07-21T13:57:38.975Z</time>
      </trkpt>
      <trkpt lat="47.215480" lon="10.932160">
        <ele>1954.859017</ele>
        <time>2026-07-21T13:57:40.979Z</time>
      </trkpt>
      <trkpt lat="47.215381" lon="10.932076">
        <ele>1954.684107</ele>
        <time>2026-07-21T13:57:42.976Z</time>
      </trkpt>
      <trkpt lat="47.215284" lon="10.931990">
        <ele>1954.510780</ele>
        <time>2026-07-21T13:57:44.974Z</time>
      </trkpt>
      <trkpt lat="47.215186" lon="10.931900">
        <ele>1954.333974</ele>
        <time>2026-07-21T13:57:46.976Z</time>
      </trkpt>
      <trkpt lat="47.215095" lon="10.931812">
        <ele>1954.167314</ele>
        <time>2026-07-21T13:57:48.981Z</time>
      </trkpt>
      <trkpt lat="47.215009" lon="10.931726">
        <ele>1954.008173</ele>
        <time>2026-07-21T13:57:50.975Z</time>
      </trkpt>
      <trkpt lat="47.214929" lon="10.931647">
        <ele>1953.860717</ele>
        <time>2026-07-21T13:57:52.979Z</time>
      </trkpt>
      <trkpt lat="47.214849" lon="10.931581">
        <ele>1953.720341</ele>
        <time>2026-07-21T13:57:54.981Z</time>
      </trkpt>
      <trkpt lat="47.214765" lon="10.931524">
        <ele>1953.578757</ele>
        <time>2026-07-21T13:57:56.981Z</time>
      </trkpt>
      <trkpt lat="47.214657" lon="10.931426">
        <ele>1953.384558</ele>
        <time>2026-07-21T13:57:59.976Z</time>
      </trkpt>
      <trkpt lat="47.214541" lon="10.931301">
        <ele>1953.164508</ele>
        <time>2026-07-21T13:58:02.982Z</time>
      </trkpt>
      <trkpt lat="47.214455" lon="10.931198">
        <ele>1952.994804</ele>
        <time>2026-07-21T13:58:04.980Z</time>
      </trkpt>
      <trkpt lat="47.214364" lon="10.931045">
        <ele>1952.783353</ele>
        <time>2026-07-21T13:58:06.978Z</time>
      </trkpt>
      <trkpt lat="47.214314" lon="10.930845">
        <ele>1952.561763</ele>
        <time>2026-07-21T13:58:08.980Z</time>
      </trkpt>
      <trkpt lat="47.214317" lon="10.930655">
        <ele>1952.364154</ele>
        <time>2026-07-21T13:58:10.973Z</time>
      </trkpt>
      <trkpt lat="47.214323" lon="10.930475">
        <ele>1951.992088</ele>
        <time>2026-07-21T13:58:12.981Z</time>
      </trkpt>
      <trkpt lat="47.214319" lon="10.930293">
        <ele>1951.580319</ele>
        <time>2026-07-21T13:58:14.975Z</time>
      </trkpt>
      <trkpt lat="47.214314" lon="10.930122">
        <ele>1951.193281</ele>
        <time>2026-07-21T13:58:16.979Z</time>
      </trkpt>
      <trkpt lat="47.214330" lon="10.929954">
        <ele>1950.809670</ele>
        <time>2026-07-21T13:58:18.977Z</time>
      </trkpt>
      <trkpt lat="47.214365" lon="10.929820">
        <ele>1950.485028</ele>
        <time>2026-07-21T13:58:20.976Z</time>
      </trkpt>
      <trkpt lat="47.214422" lon="10.929646">
        <ele>1950.048198</ele>
        <time>2026-07-21T13:58:23.988Z</time>
      </trkpt>
      <trkpt lat="47.214477" lon="10.929496">
        <ele>1949.662743</ele>
        <time>2026-07-21T13:58:26.982Z</time>
      </trkpt>
      <trkpt lat="47.214531" lon="10.929361">
        <ele>1949.308472</ele>
        <time>2026-07-21T13:58:29.974Z</time>
      </trkpt>
      <trkpt lat="47.214574" lon="10.929236">
        <ele>1948.991631</ele>
        <time>2026-07-21T13:58:32.983Z</time>
      </trkpt>
      <trkpt lat="47.214619" lon="10.929075">
        <ele>1948.597949</ele>
        <time>2026-07-21T13:58:36.980Z</time>
      </trkpt>
      <trkpt lat="47.214648" lon="10.928934">
        <ele>1948.264814</ele>
        <time>2026-07-21T13:58:39.976Z</time>
      </trkpt>
      <trkpt lat="47.214684" lon="10.928800">
        <ele>1947.938965</ele>
        <time>2026-07-21T13:58:41.977Z</time>
      </trkpt>
      <trkpt lat="47.214728" lon="10.928668">
        <ele>1947.606473</ele>
        <time>2026-07-21T13:58:43.985Z</time>
      </trkpt>
      <trkpt lat="47.214785" lon="10.928534">
        <ele>1947.248951</ele>
        <time>2026-07-21T13:58:45.979Z</time>
      </trkpt>
      <trkpt lat="47.214846" lon="10.928401">
        <ele>1946.886063</ele>
        <time>2026-07-21T13:58:47.981Z</time>
      </trkpt>
      <trkpt lat="47.214901" lon="10.928253">
        <ele>1946.504584</ele>
        <time>2026-07-21T13:58:49.978Z</time>
      </trkpt>
      <trkpt lat="47.214943" lon="10.928097">
        <ele>1945.375589</ele>
        <time>2026-07-21T13:58:51.975Z</time>
      </trkpt>
      <trkpt lat="47.214990" lon="10.927943">
        <ele>1943.699438</ele>
        <time>2026-07-21T13:58:53.974Z</time>
      </trkpt>
      <trkpt lat="47.215045" lon="10.927773">
        <ele>1941.830009</ele>
        <time>2026-07-21T13:58:55.972Z</time>
      </trkpt>
      <trkpt lat="47.215119" lon="10.927595">
        <ele>1939.758109</ele>
        <time>2026-07-21T13:58:57.974Z</time>
      </trkpt>
      <trkpt lat="47.215188" lon="10.927431">
        <ele>1937.842883</ele>
        <time>2026-07-21T13:58:59.974Z</time>
      </trkpt>
      <trkpt lat="47.215243" lon="10.927272">
        <ele>1936.071433</ele>
        <time>2026-07-21T13:59:01.975Z</time>
      </trkpt>
      <trkpt lat="47.215291" lon="10.927132">
        <ele>1934.514493</ele>
        <time>2026-07-21T13:59:03.975Z</time>
      </trkpt>
      <trkpt lat="47.215336" lon="10.926998">
        <ele>1933.030438</ele>
        <time>2026-07-21T13:59:05.983Z</time>
      </trkpt>
      <trkpt lat="47.215374" lon="10.926874">
        <ele>1931.679883</ele>
        <time>2026-07-21T13:59:07.976Z</time>
      </trkpt>
      <trkpt lat="47.215431" lon="10.926698">
        <ele>1929.744116</ele>
        <time>2026-07-21T13:59:10.977Z</time>
      </trkpt>
      <trkpt lat="47.215486" lon="10.926517">
        <ele>1927.775546</ele>
        <time>2026-07-21T13:59:13.988Z</time>
      </trkpt>
      <trkpt lat="47.215531" lon="10.926373">
        <ele>1926.201885</ele>
        <time>2026-07-21T13:59:15.977Z</time>
      </trkpt>
      <trkpt lat="47.215577" lon="10.926238">
        <ele>1924.702433</ele>
        <time>2026-07-21T13:59:17.979Z</time>
      </trkpt>
      <trkpt lat="47.215616" lon="10.926097">
        <ele>1923.190990</ele>
        <time>2026-07-21T13:59:19.986Z</time>
      </trkpt>
      <trkpt lat="47.215651" lon="10.925954">
        <ele>1921.681948</ele>
        <time>2026-07-21T13:59:21.975Z</time>
      </trkpt>
      <trkpt lat="47.215683" lon="10.925813">
        <ele>1920.206048</ele>
        <time>2026-07-21T13:59:23.978Z</time>
      </trkpt>
      <trkpt lat="47.215706" lon="10.925669">
        <ele>1918.924116</ele>
        <time>2026-07-21T13:59:25.983Z</time>
      </trkpt>
      <trkpt lat="47.215714" lon="10.925521">
        <ele>1917.658665</ele>
        <time>2026-07-21T13:59:27.978Z</time>
      </trkpt>
      <trkpt lat="47.215696" lon="10.925337">
        <ele>1916.074178</ele>
        <time>2026-07-21T13:59:30.977Z</time>
      </trkpt>
      <trkpt lat="47.215645" lon="10.925185">
        <ele>1914.629176</ele>
        <time>2026-07-21T13:59:33.976Z</time>
      </trkpt>
      <trkpt lat="47.215563" lon="10.925060">
        <ele>1913.147988</ele>
        <time>2026-07-21T13:59:37.985Z</time>
      </trkpt>
      <trkpt lat="47.215442" lon="10.924994">
        <ele>1911.528767</ele>
        <time>2026-07-21T13:59:40.974Z</time>
      </trkpt>
      <trkpt lat="47.215326" lon="10.924908">
        <ele>1909.899001</ele>
        <time>2026-07-21T13:59:43.975Z</time>
      </trkpt>
      <trkpt lat="47.215281" lon="10.924744">
        <ele>1908.391407</ele>
        <time>2026-07-21T13:59:46.974Z</time>
      </trkpt>
      <trkpt lat="47.215301" lon="10.924605">
        <ele>1907.180356</ele>
        <time>2026-07-21T13:59:48.980Z</time>
      </trkpt>
      <trkpt lat="47.215351" lon="10.924461">
        <ele>1905.801909</ele>
        <time>2026-07-21T13:59:50.976Z</time>
      </trkpt>
      <trkpt lat="47.215395" lon="10.924317">
        <ele>1904.456062</ele>
        <time>2026-07-21T13:59:52.979Z</time>
      </trkpt>
      <trkpt lat="47.215420" lon="10.924158">
        <ele>1903.064999</ele>
        <time>2026-07-21T13:59:54.978Z</time>
      </trkpt>
      <trkpt lat="47.215396" lon="10.923967">
        <ele>1901.409399</ele>
        <time>2026-07-21T13:59:57.978Z</time>
      </trkpt>
      <trkpt lat="47.215320" lon="10.923887">
        <ele>1900.237024</ele>
        <time>2026-07-21T13:59:59.980Z</time>
      </trkpt>
      <trkpt lat="47.215230" lon="10.923848">
        <ele>1899.059760</ele>
        <time>2026-07-21T14:00:01.983Z</time>
      </trkpt>
      <trkpt lat="47.215118" lon="10.923864">
        <ele>1897.647735</ele>
        <time>2026-07-21T14:00:03.999Z</time>
      </trkpt>
      <trkpt lat="47.215010" lon="10.923879">
        <ele>1896.377380</ele>
        <time>2026-07-21T14:00:05.982Z</time>
      </trkpt>
      <trkpt lat="47.214906" lon="10.923893">
        <ele>1895.166131</ele>
        <time>2026-07-21T14:00:07.974Z</time>
      </trkpt>
      <trkpt lat="47.214810" lon="10.923942">
        <ele>1893.987679</ele>
        <time>2026-07-21T14:00:09.984Z</time>
      </trkpt>
      <trkpt lat="47.214708" lon="10.923980">
        <ele>1892.767368</ele>
        <time>2026-07-21T14:00:11.975Z</time>
      </trkpt>
      <trkpt lat="47.214611" lon="10.924007">
        <ele>1891.622406</ele>
        <time>2026-07-21T14:00:13.977Z</time>
      </trkpt>
      <trkpt lat="47.214521" lon="10.924044">
        <ele>1890.538628</ele>
        <time>2026-07-21T14:00:15.983Z</time>
      </trkpt>
      <trkpt lat="47.214421" lon="10.924069">
        <ele>1889.362200</ele>
        <time>2026-07-21T14:00:17.980Z</time>
      </trkpt>
      <trkpt lat="47.214314" lon="10.924043">
        <ele>1888.104397</ele>
        <time>2026-07-21T14:00:20.985Z</time>
      </trkpt>
      <trkpt lat="47.214306" lon="10.923910">
        <ele>1887.052496</ele>
        <time>2026-07-21T14:00:23.982Z</time>
      </trkpt>
      <trkpt lat="47.214424" lon="10.923846">
        <ele>1885.593980</ele>
        <time>2026-07-21T14:00:26.977Z</time>
      </trkpt>
      <trkpt lat="47.214519" lon="10.923803">
        <ele>1884.441246</ele>
        <time>2026-07-21T14:00:28.984Z</time>
      </trkpt>
      <trkpt lat="47.214611" lon="10.923738">
        <ele>1883.257693</ele>
        <time>2026-07-21T14:00:30.976Z</time>
      </trkpt>
      <trkpt lat="47.214713" lon="10.923673">
        <ele>1881.968599</ele>
        <time>2026-07-21T14:00:32.979Z</time>
      </trkpt>
      <trkpt lat="47.214802" lon="10.923636">
        <ele>1880.895988</ele>
        <time>2026-07-21T14:00:34.982Z</time>
      </trkpt>
      <trkpt lat="47.214931" lon="10.923601">
        <ele>1879.374619</ele>
        <time>2026-07-21T14:00:37.974Z</time>
      </trkpt>
      <trkpt lat="47.215060" lon="10.923534">
        <ele>1877.788068</ele>
        <time>2026-07-21T14:00:40.983Z</time>
      </trkpt>
      <trkpt lat="47.215142" lon="10.923469">
        <ele>1876.707916</ele>
        <time>2026-07-21T14:00:42.982Z</time>
      </trkpt>
      <trkpt lat="47.215225" lon="10.923395">
        <ele>1875.412300</ele>
        <time>2026-07-21T14:00:44.978Z</time>
      </trkpt>
      <trkpt lat="47.215321" lon="10.923322">
        <ele>1873.954669</ele>
        <time>2026-07-21T14:00:46.978Z</time>
      </trkpt>
      <trkpt lat="47.215401" lon="10.923245">
        <ele>1872.665259</ele>
        <time>2026-07-21T14:00:48.975Z</time>
      </trkpt>
      <trkpt lat="47.215491" lon="10.923184">
        <ele>1871.328634</ele>
        <time>2026-07-21T14:00:50.983Z</time>
      </trkpt>
      <trkpt lat="47.215580" lon="10.923141">
        <ele>1870.064987</ele>
        <time>2026-07-21T14:00:52.975Z</time>
      </trkpt>
      <trkpt lat="47.215687" lon="10.923087">
        <ele>1868.539057</ele>
        <time>2026-07-21T14:00:55.979Z</time>
      </trkpt>
      <trkpt lat="47.215699" lon="10.922947">
        <ele>1867.246031</ele>
        <time>2026-07-21T14:00:58.979Z</time>
      </trkpt>
      <trkpt lat="47.215597" lon="10.922879">
        <ele>1865.735504</ele>
        <time>2026-07-21T14:01:01.977Z</time>
      </trkpt>
      <trkpt lat="47.215456" lon="10.922898">
        <ele>1863.825404</ele>
        <time>2026-07-21T14:01:03.981Z</time>
      </trkpt>
      <trkpt lat="47.215347" lon="10.922856">
        <ele>1862.305419</ele>
        <time>2026-07-21T14:01:05.976Z</time>
      </trkpt>
      <trkpt lat="47.215254" lon="10.922819">
        <ele>1861.005807</ele>
        <time>2026-07-21T14:01:07.974Z</time>
      </trkpt>
      <trkpt lat="47.215161" lon="10.922823">
        <ele>1859.750663</ele>
        <time>2026-07-21T14:01:09.976Z</time>
      </trkpt>
      <trkpt lat="47.215073" lon="10.922874">
        <ele>1858.474834</ele>
        <time>2026-07-21T14:01:11.980Z</time>
      </trkpt>
      <trkpt lat="47.214966" lon="10.922960">
        <ele>1856.830256</ele>
        <time>2026-07-21T14:01:13.984Z</time>
      </trkpt>
      <trkpt lat="47.214859" lon="10.923038">
        <ele>1855.219518</ele>
        <time>2026-07-21T14:01:15.980Z</time>
      </trkpt>
      <trkpt lat="47.214743" lon="10.923086">
        <ele>1853.593992</ele>
        <time>2026-07-21T14:01:17.977Z</time>
      </trkpt>
      <trkpt lat="47.214650" lon="10.923150">
        <ele>1852.219030</ele>
        <time>2026-07-21T14:01:19.975Z</time>
      </trkpt>
      <trkpt lat="47.214538" lon="10.923207">
        <ele>1850.724858</ele>
        <time>2026-07-21T14:01:22.977Z</time>
      </trkpt>
      <trkpt lat="47.214525" lon="10.923064">
        <ele>1849.489212</ele>
        <time>2026-07-21T14:01:25.978Z</time>
      </trkpt>
      <trkpt lat="47.214648" lon="10.923001">
        <ele>1847.847163</ele>
        <time>2026-07-21T14:01:28.981Z</time>
      </trkpt>
      <trkpt lat="47.214744" lon="10.922904">
        <ele>1846.379067</ele>
        <time>2026-07-21T14:01:30.975Z</time>
      </trkpt>
      <trkpt lat="47.214840" lon="10.922779">
        <ele>1844.763130</ele>
        <time>2026-07-21T14:01:32.977Z</time>
      </trkpt>
      <trkpt lat="47.214923" lon="10.922669">
        <ele>1843.355032</ele>
        <time>2026-07-21T14:01:34.976Z</time>
      </trkpt>
      <trkpt lat="47.215015" lon="10.922553">
        <ele>1841.827748</ele>
        <time>2026-07-21T14:01:36.978Z</time>
      </trkpt>
      <trkpt lat="47.215113" lon="10.922410">
        <ele>1840.087990</ele>
        <time>2026-07-21T14:01:38.977Z</time>
      </trkpt>
      <trkpt lat="47.215208" lon="10.922265">
        <ele>1838.362604</ele>
        <time>2026-07-21T14:01:40.982Z</time>
      </trkpt>
      <trkpt lat="47.215284" lon="10.922168">
        <ele>1837.094376</ele>
        <time>2026-07-21T14:01:42.975Z</time>
      </trkpt>
      <trkpt lat="47.215375" lon="10.922069">
        <ele>1835.667702</ele>
        <time>2026-07-21T14:01:44.978Z</time>
      </trkpt>
      <trkpt lat="47.215458" lon="10.921987">
        <ele>1834.407384</ele>
        <time>2026-07-21T14:01:46.981Z</time>
      </trkpt>
      <trkpt lat="47.215543" lon="10.921894">
        <ele>1833.072088</ele>
        <time>2026-07-21T14:01:48.981Z</time>
      </trkpt>
      <trkpt lat="47.215632" lon="10.921769">
        <ele>1831.521173</ele>
        <time>2026-07-21T14:01:50.978Z</time>
      </trkpt>
      <trkpt lat="47.215700" lon="10.921659">
        <ele>1830.247349</ele>
        <time>2026-07-21T14:01:52.982Z</time>
      </trkpt>
      <trkpt lat="47.215749" lon="10.921524">
        <ele>1829.043829</ele>
        <time>2026-07-21T14:01:54.982Z</time>
      </trkpt>
      <trkpt lat="47.215764" lon="10.921352">
        <ele>1827.772367</ele>
        <time>2026-07-21T14:01:56.979Z</time>
      </trkpt>
      <trkpt lat="47.215740" lon="10.921177">
        <ele>1826.463369</ele>
        <time>2026-07-21T14:01:58.978Z</time>
      </trkpt>
      <trkpt lat="47.215703" lon="10.921033">
        <ele>1825.334538</ele>
        <time>2026-07-21T14:02:00.982Z</time>
      </trkpt>
      <trkpt lat="47.215708" lon="10.920887">
        <ele>1824.262700</ele>
        <time>2026-07-21T14:02:02.986Z</time>
      </trkpt>
      <trkpt lat="47.215750" lon="10.920713">
        <ele>1822.908764</ele>
        <time>2026-07-21T14:02:04.976Z</time>
      </trkpt>
      <trkpt lat="47.215802" lon="10.920555">
        <ele>1821.621478</ele>
        <time>2026-07-21T14:02:06.981Z</time>
      </trkpt>
      <trkpt lat="47.215853" lon="10.920370">
        <ele>1820.157594</ele>
        <time>2026-07-21T14:02:08.970Z</time>
      </trkpt>
      <trkpt lat="47.215923" lon="10.920172">
        <ele>1818.520982</ele>
        <time>2026-07-21T14:02:10.977Z</time>
      </trkpt>
      <trkpt lat="47.215969" lon="10.919993">
        <ele>1817.117761</ele>
        <time>2026-07-21T14:02:12.975Z</time>
      </trkpt>
      <trkpt lat="47.215992" lon="10.919839">
        <ele>1815.961660</ele>
        <time>2026-07-21T14:02:14.979Z</time>
      </trkpt>
      <trkpt lat="47.216022" lon="10.919699">
        <ele>1814.885310</ele>
        <time>2026-07-21T14:02:16.977Z</time>
      </trkpt>
      <trkpt lat="47.216076" lon="10.919571">
        <ele>1813.780526</ele>
        <time>2026-07-21T14:02:18.982Z</time>
      </trkpt>
      <trkpt lat="47.216154" lon="10.919443">
        <ele>1812.519699</ele>
        <time>2026-07-21T14:02:20.980Z</time>
      </trkpt>
      <trkpt lat="47.216240" lon="10.919326">
        <ele>1811.255707</ele>
        <time>2026-07-21T14:02:22.985Z</time>
      </trkpt>
      <trkpt lat="47.216320" lon="10.919180">
        <ele>1810.071523</ele>
        <time>2026-07-21T14:02:24.977Z</time>
      </trkpt>
      <trkpt lat="47.216369" lon="10.919007">
        <ele>1809.376130</ele>
        <time>2026-07-21T14:02:26.981Z</time>
      </trkpt>
      <trkpt lat="47.216378" lon="10.918851">
        <ele>1808.795290</ele>
        <time>2026-07-21T14:02:28.974Z</time>
      </trkpt>
      <trkpt lat="47.216389" lon="10.918713">
        <ele>1808.279800</ele>
        <time>2026-07-21T14:02:30.983Z</time>
      </trkpt>
      <trkpt lat="47.216411" lon="10.918558">
        <ele>1807.692333</ele>
        <time>2026-07-21T14:02:32.981Z</time>
      </trkpt>
      <trkpt lat="47.216447" lon="10.918408">
        <ele>1807.102119</ele>
        <time>2026-07-21T14:02:34.974Z</time>
      </trkpt>
      <trkpt lat="47.216482" lon="10.918266">
        <ele>1806.541690</ele>
        <time>2026-07-21T14:02:36.980Z</time>
      </trkpt>
      <trkpt lat="47.216516" lon="10.918117">
        <ele>1805.958544</ele>
        <time>2026-07-21T14:02:38.983Z</time>
      </trkpt>
      <trkpt lat="47.216545" lon="10.917973">
        <ele>1805.401321</ele>
        <time>2026-07-21T14:02:40.985Z</time>
      </trkpt>
      <trkpt lat="47.216606" lon="10.917848">
        <ele>1804.830295</ele>
        <time>2026-07-21T14:02:42.976Z</time>
      </trkpt>
      <trkpt lat="47.216685" lon="10.917758">
        <ele>1804.284696</ele>
        <time>2026-07-21T14:02:44.977Z</time>
      </trkpt>
      <trkpt lat="47.216755" lon="10.917662">
        <ele>1803.762172</ele>
        <time>2026-07-21T14:02:46.987Z</time>
      </trkpt>
      <trkpt lat="47.216773" lon="10.917520">
        <ele>1803.226264</ele>
        <time>2026-07-21T14:02:48.974Z</time>
      </trkpt>
      <trkpt lat="47.216746" lon="10.917390">
        <ele>1802.721927</ele>
        <time>2026-07-21T14:02:50.975Z</time>
      </trkpt>
      <trkpt lat="47.216730" lon="10.917256">
        <ele>1802.217170</ele>
        <time>2026-07-21T14:02:52.973Z</time>
      </trkpt>
      <trkpt lat="47.216756" lon="10.917108">
        <ele>1801.650030</ele>
        <time>2026-07-21T14:02:54.986Z</time>
      </trkpt>
      <trkpt lat="47.216815" lon="10.916953">
        <ele>1800.990845</ele>
        <time>2026-07-21T14:02:56.981Z</time>
      </trkpt>
      <trkpt lat="47.216894" lon="10.916791">
        <ele>1800.167680</ele>
        <time>2026-07-21T14:02:58.976Z</time>
      </trkpt>
      <trkpt lat="47.216944" lon="10.916640">
        <ele>1799.274289</ele>
        <time>2026-07-21T14:03:00.978Z</time>
      </trkpt>
      <trkpt lat="47.216975" lon="10.916464">
        <ele>1798.307329</ele>
        <time>2026-07-21T14:03:02.972Z</time>
      </trkpt>
      <trkpt lat="47.217009" lon="10.916302">
        <ele>1797.405593</ele>
        <time>2026-07-21T14:03:04.974Z</time>
      </trkpt>
      <trkpt lat="47.217053" lon="10.916157">
        <ele>1796.560999</ele>
        <time>2026-07-21T14:03:06.975Z</time>
      </trkpt>
      <trkpt lat="47.217123" lon="10.916048">
        <ele>1795.763235</ele>
        <time>2026-07-21T14:03:08.979Z</time>
      </trkpt>
      <trkpt lat="47.217223" lon="10.915933">
        <ele>1794.769708</ele>
        <time>2026-07-21T14:03:10.976Z</time>
      </trkpt>
      <trkpt lat="47.217337" lon="10.915849">
        <ele>1793.771564</ele>
        <time>2026-07-21T14:03:12.980Z</time>
      </trkpt>
      <trkpt lat="47.217443" lon="10.915785">
        <ele>1792.874527</ele>
        <time>2026-07-21T14:03:14.978Z</time>
      </trkpt>
      <trkpt lat="47.217548" lon="10.915733">
        <ele>1792.007134</ele>
        <time>2026-07-21T14:03:16.980Z</time>
      </trkpt>
      <trkpt lat="47.217640" lon="10.915700">
        <ele>1791.265723</ele>
        <time>2026-07-21T14:03:18.976Z</time>
      </trkpt>
      <trkpt lat="47.217757" lon="10.915641">
        <ele>1790.297392</ele>
        <time>2026-07-21T14:03:21.981Z</time>
      </trkpt>
      <trkpt lat="47.217751" lon="10.915498">
        <ele>1789.535454</ele>
        <time>2026-07-21T14:03:24.981Z</time>
      </trkpt>
      <trkpt lat="47.217633" lon="10.915457">
        <ele>1788.586158</ele>
        <time>2026-07-21T14:03:27.994Z</time>
      </trkpt>
      <trkpt lat="47.217526" lon="10.915476">
        <ele>1787.742299</ele>
        <time>2026-07-21T14:03:29.982Z</time>
      </trkpt>
      <trkpt lat="47.217417" lon="10.915506">
        <ele>1786.874067</ele>
        <time>2026-07-21T14:03:31.987Z</time>
      </trkpt>
      <trkpt lat="47.217304" lon="10.915552">
        <ele>1785.826823</ele>
        <time>2026-07-21T14:03:33.973Z</time>
      </trkpt>
      <trkpt lat="47.217201" lon="10.915567">
        <ele>1784.757101</ele>
        <time>2026-07-21T14:03:35.988Z</time>
      </trkpt>
      <trkpt lat="47.217161" lon="10.915405">
        <ele>1783.547068</ele>
        <time>2026-07-21T14:03:38.978Z</time>
      </trkpt>
      <trkpt lat="47.217232" lon="10.915276">
        <ele>1782.381516</ele>
        <time>2026-07-21T14:03:41.979Z</time>
      </trkpt>
      <trkpt lat="47.217228" lon="10.915130">
        <ele>1781.355779</ele>
        <time>2026-07-21T14:03:44.980Z</time>
      </trkpt>
      <trkpt lat="47.217125" lon="10.915097">
        <ele>1780.266338</ele>
        <time>2026-07-21T14:03:47.977Z</time>
      </trkpt>
      <trkpt lat="47.217037" lon="10.915173">
        <ele>1779.211908</ele>
        <time>2026-07-21T14:03:49.975Z</time>
      </trkpt>
      <trkpt lat="47.216991" lon="10.915289">
        <ele>1778.268974</ele>
        <time>2026-07-21T14:03:51.973Z</time>
      </trkpt>
      <trkpt lat="47.216928" lon="10.915427">
        <ele>1777.101742</ele>
        <time>2026-07-21T14:03:54.983Z</time>
      </trkpt>
      <trkpt lat="47.216845" lon="10.915374">
        <ele>1776.166710</ele>
        <time>2026-07-21T14:03:57.980Z</time>
      </trkpt>
      <trkpt lat="47.216874" lon="10.915199">
        <ele>1774.902188</ele>
        <time>2026-07-21T14:04:00.977Z</time>
      </trkpt>
      <trkpt lat="47.216921" lon="10.915073">
        <ele>1773.893071</ele>
        <time>2026-07-21T14:04:02.982Z</time>
      </trkpt>
      <trkpt lat="47.216957" lon="10.914943">
        <ele>1772.907548</ele>
        <time>2026-07-21T14:04:04.974Z</time>
      </trkpt>
      <trkpt lat="47.217019" lon="10.914845">
        <ele>1771.967399</ele>
        <time>2026-07-21T14:04:06.984Z</time>
      </trkpt>
      <trkpt lat="47.217123" lon="10.914740">
        <ele>1770.664084</ele>
        <time>2026-07-21T14:04:08.975Z</time>
      </trkpt>
      <trkpt lat="47.217253" lon="10.914680">
        <ele>1769.256035</ele>
        <time>2026-07-21T14:04:10.981Z</time>
      </trkpt>
      <trkpt lat="47.217372" lon="10.914658">
        <ele>1768.016487</ele>
        <time>2026-07-21T14:04:12.978Z</time>
      </trkpt>
      <trkpt lat="47.217469" lon="10.914685">
        <ele>1766.930718</ele>
        <time>2026-07-21T14:04:14.974Z</time>
      </trkpt>
      <trkpt lat="47.217559" lon="10.914671">
        <ele>1765.916282</ele>
        <time>2026-07-21T14:04:16.982Z</time>
      </trkpt>
      <trkpt lat="47.217652" lon="10.914613">
        <ele>1764.784165</ele>
        <time>2026-07-21T14:04:18.984Z</time>
      </trkpt>
      <trkpt lat="47.217745" lon="10.914510">
        <ele>1763.479697</ele>
        <time>2026-07-21T14:04:20.974Z</time>
      </trkpt>
      <trkpt lat="47.217818" lon="10.914407">
        <ele>1762.346342</ele>
        <time>2026-07-21T14:04:22.975Z</time>
      </trkpt>
      <trkpt lat="47.217928" lon="10.914359">
        <ele>1761.060323</ele>
        <time>2026-07-21T14:04:25.984Z</time>
      </trkpt>
      <trkpt lat="47.217991" lon="10.914518">
        <ele>1759.658877</ele>
        <time>2026-07-21T14:04:28.981Z</time>
      </trkpt>
      <trkpt lat="47.218032" lon="10.914656">
        <ele>1758.512118</ele>
        <time>2026-07-21T14:04:30.979Z</time>
      </trkpt>
      <trkpt lat="47.218061" lon="10.914836">
        <ele>1757.103690</ele>
        <time>2026-07-21T14:04:32.979Z</time>
      </trkpt>
      <trkpt lat="47.218074" lon="10.915013">
        <ele>1755.748272</ele>
        <time>2026-07-21T14:04:34.976Z</time>
      </trkpt>
      <trkpt lat="47.218102" lon="10.915171">
        <ele>1754.505094</ele>
        <time>2026-07-21T14:04:36.974Z</time>
      </trkpt>
      <trkpt lat="47.218171" lon="10.915317">
        <ele>1753.150942</ele>
        <time>2026-07-21T14:04:38.977Z</time>
      </trkpt>
      <trkpt lat="47.218263" lon="10.915472">
        <ele>1751.583777</ele>
        <time>2026-07-21T14:04:40.976Z</time>
      </trkpt>
      <trkpt lat="47.218359" lon="10.915611">
        <ele>1750.074528</ele>
        <time>2026-07-21T14:04:42.981Z</time>
      </trkpt>
      <trkpt lat="47.218426" lon="10.915746">
        <ele>1748.801587</ele>
        <time>2026-07-21T14:04:44.979Z</time>
      </trkpt>
      <trkpt lat="47.218454" lon="10.915878">
        <ele>1747.748763</ele>
        <time>2026-07-21T14:04:46.977Z</time>
      </trkpt>
      <trkpt lat="47.218458" lon="10.916032">
        <ele>1747.378039</ele>
        <time>2026-07-21T14:04:48.983Z</time>
      </trkpt>
      <trkpt lat="47.218451" lon="10.916199">
        <ele>1747.092833</ele>
        <time>2026-07-21T14:04:50.974Z</time>
      </trkpt>
      <trkpt lat="47.218428" lon="10.916370">
        <ele>1746.795690</ele>
        <time>2026-07-21T14:04:52.975Z</time>
      </trkpt>
      <trkpt lat="47.218396" lon="10.916525">
        <ele>1746.519544</ele>
        <time>2026-07-21T14:04:54.981Z</time>
      </trkpt>
      <trkpt lat="47.218374" lon="10.916707">
        <ele>1746.204436</ele>
        <time>2026-07-21T14:04:56.974Z</time>
      </trkpt>
      <trkpt lat="47.218351" lon="10.916883">
        <ele>1745.898927</ele>
        <time>2026-07-21T14:04:58.977Z</time>
      </trkpt>
      <trkpt lat="47.218355" lon="10.917064">
        <ele>1745.590234</ele>
        <time>2026-07-21T14:05:00.975Z</time>
      </trkpt>
      <trkpt lat="47.218368" lon="10.917242">
        <ele>1745.285070</ele>
        <time>2026-07-21T14:05:02.973Z</time>
      </trkpt>
      <trkpt lat="47.218351" lon="10.917383">
        <ele>1745.040967</ele>
        <time>2026-07-21T14:05:04.976Z</time>
      </trkpt>
      <trkpt lat="47.218330" lon="10.917541">
        <ele>1744.766535</ele>
        <time>2026-07-21T14:05:06.977Z</time>
      </trkpt>
      <trkpt lat="47.218291" lon="10.917707">
        <ele>1744.467124</ele>
        <time>2026-07-21T14:05:08.983Z</time>
      </trkpt>
      <trkpt lat="47.218260" lon="10.917879">
        <ele>1744.163789</ele>
        <time>2026-07-21T14:05:10.972Z</time>
      </trkpt>
      <trkpt lat="47.218212" lon="10.918045">
        <ele>1743.856253</ele>
        <time>2026-07-21T14:05:12.981Z</time>
      </trkpt>
      <trkpt lat="47.218171" lon="10.918213">
        <ele>1743.551957</ele>
        <time>2026-07-21T14:05:14.981Z</time>
      </trkpt>
      <trkpt lat="47.218137" lon="10.918388">
        <ele>1743.241690</ele>
        <time>2026-07-21T14:05:16.977Z</time>
      </trkpt>
      <trkpt lat="47.218130" lon="10.918564">
        <ele>1742.883195</ele>
        <time>2026-07-21T14:05:18.978Z</time>
      </trkpt>
      <trkpt lat="47.218144" lon="10.918729">
        <ele>1742.493332</ele>
        <time>2026-07-21T14:05:20.973Z</time>
      </trkpt>
      <trkpt lat="47.218150" lon="10.918899">
        <ele>1742.094214</ele>
        <time>2026-07-21T14:05:22.974Z</time>
      </trkpt>
      <trkpt lat="47.218177" lon="10.919089">
        <ele>1741.639098</ele>
        <time>2026-07-21T14:05:24.976Z</time>
      </trkpt>
      <trkpt lat="47.218194" lon="10.919260">
        <ele>1741.233902</ele>
        <time>2026-07-21T14:05:26.975Z</time>
      </trkpt>
      <trkpt lat="47.218235" lon="10.919412">
        <ele>1740.850451</ele>
        <time>2026-07-21T14:05:28.981Z</time>
      </trkpt>
      <trkpt lat="47.218251" lon="10.919566">
        <ele>1740.485186</ele>
        <time>2026-07-21T14:05:30.972Z</time>
      </trkpt>
      <trkpt lat="47.218267" lon="10.919726">
        <ele>1740.106009</ele>
        <time>2026-07-21T14:05:32.978Z</time>
      </trkpt>
      <trkpt lat="47.218230" lon="10.919889">
        <ele>1739.703064</ele>
        <time>2026-07-21T14:05:34.982Z</time>
      </trkpt>
      <trkpt lat="47.218192" lon="10.920063">
        <ele>1739.274537</ele>
        <time>2026-07-21T14:05:36.972Z</time>
      </trkpt>
      <trkpt lat="47.218135" lon="10.920234">
        <ele>1738.827934</ele>
        <time>2026-07-21T14:05:38.976Z</time>
      </trkpt>
      <trkpt lat="47.218092" lon="10.920396">
        <ele>1738.420137</ele>
        <time>2026-07-21T14:05:40.975Z</time>
      </trkpt>
      <trkpt lat="47.218078" lon="10.920571">
        <ele>1738.006998</ele>
        <time>2026-07-21T14:05:42.978Z</time>
      </trkpt>
      <trkpt lat="47.218081" lon="10.920743">
        <ele>1737.603596</ele>
        <time>2026-07-21T14:05:44.972Z</time>
      </trkpt>
      <trkpt lat="47.218090" lon="10.920904">
        <ele>1737.224841</ele>
        <time>2026-07-21T14:05:46.981Z</time>
      </trkpt>
      <trkpt lat="47.218107" lon="10.921060">
        <ele>1736.878144</ele>
        <time>2026-07-21T14:05:48.974Z</time>
      </trkpt>
      <trkpt lat="47.218126" lon="10.921226">
        <ele>1736.772883</ele>
        <time>2026-07-21T14:05:50.973Z</time>
      </trkpt>
      <trkpt lat="47.218152" lon="10.921425">
        <ele>1736.646170</ele>
        <time>2026-07-21T14:05:52.976Z</time>
      </trkpt>
      <trkpt lat="47.218138" lon="10.921609">
        <ele>1736.530397</ele>
        <time>2026-07-21T14:05:54.974Z</time>
      </trkpt>
      <trkpt lat="47.218099" lon="10.921797">
        <ele>1736.407483</ele>
        <time>2026-07-21T14:05:56.970Z</time>
      </trkpt>
      <trkpt lat="47.218083" lon="10.921982">
        <ele>1736.290870</ele>
        <time>2026-07-21T14:05:58.974Z</time>
      </trkpt>
      <trkpt lat="47.218083" lon="10.922158">
        <ele>1736.180820</ele>
        <time>2026-07-21T14:06:00.975Z</time>
      </trkpt>
      <trkpt lat="47.218095" lon="10.922347">
        <ele>1736.062125</ele>
        <time>2026-07-21T14:06:02.972Z</time>
      </trkpt>
      <trkpt lat="47.218083" lon="10.922528">
        <ele>1735.948411</ele>
        <time>2026-07-21T14:06:04.976Z</time>
      </trkpt>
      <trkpt lat="47.218078" lon="10.922704">
        <ele>1735.838264</ele>
        <time>2026-07-21T14:06:06.973Z</time>
      </trkpt>
      <trkpt lat="47.218101" lon="10.922874">
        <ele>1735.729877</ele>
        <time>2026-07-21T14:06:08.973Z</time>
      </trkpt>
      <trkpt lat="47.218143" lon="10.923049">
        <ele>1735.613821</ele>
        <time>2026-07-21T14:06:10.976Z</time>
      </trkpt>
      <trkpt lat="47.218181" lon="10.923202">
        <ele>1735.511957</ele>
        <time>2026-07-21T14:06:12.976Z</time>
      </trkpt>
      <trkpt lat="47.218214" lon="10.923339">
        <ele>1735.421065</ele>
        <time>2026-07-21T14:06:14.978Z</time>
      </trkpt>
      <trkpt lat="47.218236" lon="10.923476">
        <ele>1735.333039</ele>
        <time>2026-07-21T14:06:16.978Z</time>
      </trkpt>
      <trkpt lat="47.218250" lon="10.923685">
        <ele>1735.375784</ele>
        <time>2026-07-21T14:06:19.973Z</time>
      </trkpt>
      <trkpt lat="47.218263" lon="10.923837">
        <ele>1735.850884</ele>
        <time>2026-07-21T14:06:21.994Z</time>
      </trkpt>
      <trkpt lat="47.218259" lon="10.923988">
        <ele>1736.319516</ele>
        <time>2026-07-21T14:06:23.977Z</time>
      </trkpt>
      <trkpt lat="47.218221" lon="10.924129">
        <ele>1736.789945</ele>
        <time>2026-07-21T14:06:25.982Z</time>
      </trkpt>
      <trkpt lat="47.218205" lon="10.924272">
        <ele>1737.239389</ele>
        <time>2026-07-21T14:06:27.971Z</time>
      </trkpt>
      <trkpt lat="47.218191" lon="10.924407">
        <ele>1737.662899</ele>
        <time>2026-07-21T14:06:29.974Z</time>
      </trkpt>
      <trkpt lat="47.218189" lon="10.924592">
        <ele>1738.236688</ele>
        <time>2026-07-21T14:06:32.975Z</time>
      </trkpt>
      <trkpt lat="47.218219" lon="10.924787">
        <ele>1738.856735</ele>
        <time>2026-07-21T14:06:35.978Z</time>
      </trkpt>
      <trkpt lat="47.218243" lon="10.924949">
        <ele>1739.370937</ele>
        <time>2026-07-21T14:06:38.974Z</time>
      </trkpt>
      <trkpt lat="47.218288" lon="10.925090">
        <ele>1739.854068</ele>
        <time>2026-07-21T14:06:41.973Z</time>
      </trkpt>
      <trkpt lat="47.218329" lon="10.925238">
        <ele>1740.349748</ele>
        <time>2026-07-21T14:06:44.975Z</time>
      </trkpt>
      <trkpt lat="47.218384" lon="10.925380">
        <ele>1740.856684</ele>
        <time>2026-07-21T14:06:47.982Z</time>
      </trkpt>
      <trkpt lat="47.218436" lon="10.925520">
        <ele>1741.351525</ele>
        <time>2026-07-21T14:06:50.976Z</time>
      </trkpt>
      <trkpt lat="47.218491" lon="10.925664">
        <ele>1741.863856</ele>
        <time>2026-07-21T14:06:53.974Z</time>
      </trkpt>
      <trkpt lat="47.218552" lon="10.925816">
        <ele>1742.411366</ele>
        <time>2026-07-21T14:06:56.975Z</time>
      </trkpt>
      <trkpt lat="47.218611" lon="10.925983">
        <ele>1742.995130</ele>
        <time>2026-07-21T14:06:59.980Z</time>
      </trkpt>
      <trkpt lat="47.218673" lon="10.926141">
        <ele>1743.416900</ele>
        <time>2026-07-21T14:07:02.977Z</time>
      </trkpt>
      <trkpt lat="47.218738" lon="10.926311">
        <ele>1743.281322</ele>
        <time>2026-07-21T14:07:05.979Z</time>
      </trkpt>
      <trkpt lat="47.218781" lon="10.926432">
        <ele>1743.186416</ele>
        <time>2026-07-21T14:07:07.977Z</time>
      </trkpt>
      <trkpt lat="47.218842" lon="10.926546">
        <ele>1743.085557</ele>
        <time>2026-07-21T14:07:09.983Z</time>
      </trkpt>
      <trkpt lat="47.218898" lon="10.926715">
        <ele>1742.954876</ele>
        <time>2026-07-21T14:07:12.974Z</time>
      </trkpt>
      <trkpt lat="47.218935" lon="10.926837">
        <ele>1742.862022</ele>
        <time>2026-07-21T14:07:14.978Z</time>
      </trkpt>
      <trkpt lat="47.218987" lon="10.927019">
        <ele>1742.724803</ele>
        <time>2026-07-21T14:07:17.976Z</time>
      </trkpt>
      <trkpt lat="47.219028" lon="10.927197">
        <ele>1742.594180</ele>
        <time>2026-07-21T14:07:20.971Z</time>
      </trkpt>
      <trkpt lat="47.219063" lon="10.927374">
        <ele>1742.466064</ele>
        <time>2026-07-21T14:07:23.981Z</time>
      </trkpt>
      <trkpt lat="47.219093" lon="10.927502">
        <ele>1742.371962</ele>
        <time>2026-07-21T14:07:25.972Z</time>
      </trkpt>
      <trkpt lat="47.219159" lon="10.927680">
        <ele>1742.231025</ele>
        <time>2026-07-21T14:07:28.972Z</time>
      </trkpt>
      <trkpt lat="47.219192" lon="10.927807">
        <ele>1742.136527</ele>
        <time>2026-07-21T14:07:30.975Z</time>
      </trkpt>
      <trkpt lat="47.219230" lon="10.927928">
        <ele>1742.043883</ele>
        <time>2026-07-21T14:07:32.972Z</time>
      </trkpt>
      <trkpt lat="47.219251" lon="10.928079">
        <ele>1741.936766</ele>
        <time>2026-07-21T14:07:35.978Z</time>
      </trkpt>
      <trkpt lat="47.219307" lon="10.928237">
        <ele>1741.812911</ele>
        <time>2026-07-21T14:07:39.978Z</time>
      </trkpt>
      <trkpt lat="47.219370" lon="10.928377">
        <ele>1741.696200</ele>
        <time>2026-07-21T14:07:42.980Z</time>
      </trkpt>
      <trkpt lat="47.219418" lon="10.928560">
        <ele>1740.994715</ele>
        <time>2026-07-21T14:07:45.971Z</time>
      </trkpt>
      <trkpt lat="47.219446" lon="10.928704">
        <ele>1739.523201</ele>
        <time>2026-07-21T14:07:47.979Z</time>
      </trkpt>
      <trkpt lat="47.219471" lon="10.928874">
        <ele>1737.814393</ele>
        <time>2026-07-21T14:07:49.977Z</time>
      </trkpt>
      <trkpt lat="47.219486" lon="10.929026">
        <ele>1736.305440</ele>
        <time>2026-07-21T14:07:51.974Z</time>
      </trkpt>
      <trkpt lat="47.219479" lon="10.929170">
        <ele>1734.887142</ele>
        <time>2026-07-21T14:07:53.986Z</time>
      </trkpt>
      <trkpt lat="47.219464" lon="10.929320">
        <ele>1733.397631</ele>
        <time>2026-07-21T14:07:55.974Z</time>
      </trkpt>
      <trkpt lat="47.219452" lon="10.929454">
        <ele>1732.069799</ele>
        <time>2026-07-21T14:07:57.980Z</time>
      </trkpt>
      <trkpt lat="47.219435" lon="10.929588">
        <ele>1730.730591</ele>
        <time>2026-07-21T14:07:59.971Z</time>
      </trkpt>
      <trkpt lat="47.219462" lon="10.929768">
        <ele>1728.919629</ele>
        <time>2026-07-21T14:08:02.976Z</time>
      </trkpt>
      <trkpt lat="47.219527" lon="10.929872">
        <ele>1727.531156</ele>
        <time>2026-07-21T14:08:04.980Z</time>
      </trkpt>
      <trkpt lat="47.219620" lon="10.929948">
        <ele>1725.992643</ele>
        <time>2026-07-21T14:08:06.976Z</time>
      </trkpt>
      <trkpt lat="47.219718" lon="10.929994">
        <ele>1724.504831</ele>
        <time>2026-07-21T14:08:08.975Z</time>
      </trkpt>
      <trkpt lat="47.219811" lon="10.930037">
        <ele>1723.094863</ele>
        <time>2026-07-21T14:08:10.972Z</time>
      </trkpt>
      <trkpt lat="47.219919" lon="10.930111">
        <ele>1721.371824</ele>
        <time>2026-07-21T14:08:12.983Z</time>
      </trkpt>
      <trkpt lat="47.220041" lon="10.930210">
        <ele>1719.356887</ele>
        <time>2026-07-21T14:08:14.977Z</time>
      </trkpt>
      <trkpt lat="47.220148" lon="10.930302">
        <ele>1717.564611</ele>
        <time>2026-07-21T14:08:16.975Z</time>
      </trkpt>
      <trkpt lat="47.220246" lon="10.930382">
        <ele>1715.943797</ele>
        <time>2026-07-21T14:08:18.979Z</time>
      </trkpt>
      <trkpt lat="47.220314" lon="10.930502">
        <ele>1714.357444</ele>
        <time>2026-07-21T14:08:20.976Z</time>
      </trkpt>
      <trkpt lat="47.220374" lon="10.930663">
        <ele>1712.475157</ele>
        <time>2026-07-21T14:08:22.974Z</time>
      </trkpt>
      <trkpt lat="47.220415" lon="10.930829">
        <ele>1710.664708</ele>
        <time>2026-07-21T14:08:24.978Z</time>
      </trkpt>
      <trkpt lat="47.220465" lon="10.931025">
        <ele>1708.518750</ele>
        <time>2026-07-21T14:08:26.974Z</time>
      </trkpt>
      <trkpt lat="47.220510" lon="10.931218">
        <ele>1706.427255</ele>
        <time>2026-07-21T14:08:28.979Z</time>
      </trkpt>
      <trkpt lat="47.220549" lon="10.931386">
        <ele>1704.607517</ele>
        <time>2026-07-21T14:08:30.980Z</time>
      </trkpt>
      <trkpt lat="47.220579" lon="10.931534">
        <ele>1703.024458</ele>
        <time>2026-07-21T14:08:32.981Z</time>
      </trkpt>
      <trkpt lat="47.220612" lon="10.931661">
        <ele>1701.630748</ele>
        <time>2026-07-21T14:08:34.976Z</time>
      </trkpt>
      <trkpt lat="47.220655" lon="10.931792">
        <ele>1700.139465</ele>
        <time>2026-07-21T14:08:36.979Z</time>
      </trkpt>
      <trkpt lat="47.220700" lon="10.931927">
        <ele>1698.598108</ele>
        <time>2026-07-21T14:08:38.988Z</time>
      </trkpt>
      <trkpt lat="47.220777" lon="10.932089">
        <ele>1696.571457</ele>
        <time>2026-07-21T14:08:41.980Z</time>
      </trkpt>
      <trkpt lat="47.220847" lon="10.932214">
        <ele>1694.910916</ele>
        <time>2026-07-21T14:08:43.974Z</time>
      </trkpt>
      <trkpt lat="47.220906" lon="10.932342">
        <ele>1693.325369</ele>
        <time>2026-07-21T14:08:45.977Z</time>
      </trkpt>
      <trkpt lat="47.220954" lon="10.932461">
        <ele>1691.906788</ele>
        <time>2026-07-21T14:08:47.981Z</time>
      </trkpt>
      <trkpt lat="47.221010" lon="10.932577">
        <ele>1690.448094</ele>
        <time>2026-07-21T14:08:49.979Z</time>
      </trkpt>
      <trkpt lat="47.221074" lon="10.932692">
        <ele>1688.924233</ele>
        <time>2026-07-21T14:08:51.976Z</time>
      </trkpt>
      <trkpt lat="47.221140" lon="10.932809">
        <ele>1687.435016</ele>
        <time>2026-07-21T14:08:53.980Z</time>
      </trkpt>
      <trkpt lat="47.221182" lon="10.932947">
        <ele>1685.985279</ele>
        <time>2026-07-21T14:08:55.980Z</time>
      </trkpt>
      <trkpt lat="47.221222" lon="10.933066">
        <ele>1684.712376</ele>
        <time>2026-07-21T14:08:57.978Z</time>
      </trkpt>
      <trkpt lat="47.221293" lon="10.933158">
        <ele>1683.377351</ele>
        <time>2026-07-21T14:08:59.989Z</time>
      </trkpt>
      <trkpt lat="47.221419" lon="10.933225">
        <ele>1681.486374</ele>
        <time>2026-07-21T14:09:02.979Z</time>
      </trkpt>
      <trkpt lat="47.221518" lon="10.933235">
        <ele>1680.085660</ele>
        <time>2026-07-21T14:09:04.978Z</time>
      </trkpt>
      <trkpt lat="47.221622" lon="10.933295">
        <ele>1678.508986</ele>
        <time>2026-07-21T14:09:06.976Z</time>
      </trkpt>
      <trkpt lat="47.221725" lon="10.933394">
        <ele>1676.772737</ele>
        <time>2026-07-21T14:09:08.980Z</time>
      </trkpt>
      <trkpt lat="47.221822" lon="10.933525">
        <ele>1674.914815</ele>
        <time>2026-07-21T14:09:10.972Z</time>
      </trkpt>
      <trkpt lat="47.221924" lon="10.933650">
        <ele>1673.041594</ele>
        <time>2026-07-21T14:09:12.980Z</time>
      </trkpt>
      <trkpt lat="47.222012" lon="10.933782">
        <ele>1671.268379</ele>
        <time>2026-07-21T14:09:14.974Z</time>
      </trkpt>
      <trkpt lat="47.222082" lon="10.933928">
        <ele>1669.555101</ele>
        <time>2026-07-21T14:09:16.977Z</time>
      </trkpt>
      <trkpt lat="47.222161" lon="10.934077">
        <ele>1667.742965</ele>
        <time>2026-07-21T14:09:18.977Z</time>
      </trkpt>
      <trkpt lat="47.222234" lon="10.934208">
        <ele>1666.118487</ele>
        <time>2026-07-21T14:09:20.975Z</time>
      </trkpt>
      <trkpt lat="47.222316" lon="10.934321">
        <ele>1664.533169</ele>
        <time>2026-07-21T14:09:22.980Z</time>
      </trkpt>
      <trkpt lat="47.222412" lon="10.934446">
        <ele>1662.735634</ele>
        <time>2026-07-21T14:09:24.976Z</time>
      </trkpt>
      <trkpt lat="47.222509" lon="10.934556">
        <ele>1661.067111</ele>
        <time>2026-07-21T14:09:26.980Z</time>
      </trkpt>
      <trkpt lat="47.222607" lon="10.934637">
        <ele>1659.535545</ele>
        <time>2026-07-21T14:09:28.980Z</time>
      </trkpt>
      <trkpt lat="47.222712" lon="10.934703">
        <ele>1657.979681</ele>
        <time>2026-07-21T14:09:30.976Z</time>
      </trkpt>
      <trkpt lat="47.222829" lon="10.934769">
        <ele>1656.272207</ele>
        <time>2026-07-21T14:09:32.981Z</time>
      </trkpt>
      <trkpt lat="47.222960" lon="10.934846">
        <ele>1654.349959</ele>
        <time>2026-07-21T14:09:34.972Z</time>
      </trkpt>
      <trkpt lat="47.223088" lon="10.934924">
        <ele>1652.462102</ele>
        <time>2026-07-21T14:09:36.980Z</time>
      </trkpt>
      <trkpt lat="47.223178" lon="10.935045">
        <ele>1650.801229</ele>
        <time>2026-07-21T14:09:38.975Z</time>
      </trkpt>
      <trkpt lat="47.223259" lon="10.935167">
        <ele>1649.222150</ele>
        <time>2026-07-21T14:09:40.974Z</time>
      </trkpt>
      <trkpt lat="47.223337" lon="10.935261">
        <ele>1647.848535</ele>
        <time>2026-07-21T14:09:42.980Z</time>
      </trkpt>
      <trkpt lat="47.223413" lon="10.935369">
        <ele>1646.409138</ele>
        <time>2026-07-21T14:09:44.977Z</time>
      </trkpt>
      <trkpt lat="47.223492" lon="10.935473">
        <ele>1644.964984</ele>
        <time>2026-07-21T14:09:46.978Z</time>
      </trkpt>
      <trkpt lat="47.223571" lon="10.935538">
        <ele>1643.731698</ele>
        <time>2026-07-21T14:09:48.975Z</time>
      </trkpt>
      <trkpt lat="47.223671" lon="10.935585">
        <ele>1642.301165</ele>
        <time>2026-07-21T14:09:51.985Z</time>
      </trkpt>
      <trkpt lat="47.223761" lon="10.935517">
        <ele>1640.922607</ele>
        <time>2026-07-21T14:09:55.974Z</time>
      </trkpt>
      <trkpt lat="47.223740" lon="10.935374">
        <ele>1639.568521</ele>
        <time>2026-07-21T14:09:58.980Z</time>
      </trkpt>
      <trkpt lat="47.223664" lon="10.935210">
        <ele>1637.873975</ele>
        <time>2026-07-21T14:10:01.980Z</time>
      </trkpt>
      <trkpt lat="47.223605" lon="10.935072">
        <ele>1636.630740</ele>
        <time>2026-07-21T14:10:03.977Z</time>
      </trkpt>
      <trkpt lat="47.223544" lon="10.934939">
        <ele>1635.407170</ele>
        <time>2026-07-21T14:10:05.984Z</time>
      </trkpt>
      <trkpt lat="47.223495" lon="10.934800">
        <ele>1634.213170</ele>
        <time>2026-07-21T14:10:07.978Z</time>
      </trkpt>
      <trkpt lat="47.223450" lon="10.934659">
        <ele>1633.025398</ele>
        <time>2026-07-21T14:10:09.981Z</time>
      </trkpt>
      <trkpt lat="47.223411" lon="10.934538">
        <ele>1632.004267</ele>
        <time>2026-07-21T14:10:11.978Z</time>
      </trkpt>
      <trkpt lat="47.223345" lon="10.934443">
        <ele>1630.968145</ele>
        <time>2026-07-21T14:10:13.981Z</time>
      </trkpt>
      <trkpt lat="47.223285" lon="10.934310">
        <ele>1629.750818</ele>
        <time>2026-07-21T14:10:15.980Z</time>
      </trkpt>
      <trkpt lat="47.223275" lon="10.934118">
        <ele>1628.282697</ele>
        <time>2026-07-21T14:10:18.977Z</time>
      </trkpt>
      <trkpt lat="47.223294" lon="10.933980">
        <ele>1627.209172</ele>
        <time>2026-07-21T14:10:20.979Z</time>
      </trkpt>
      <trkpt lat="47.223337" lon="10.933848">
        <ele>1626.093012</ele>
        <time>2026-07-21T14:10:22.977Z</time>
      </trkpt>
      <trkpt lat="47.223347" lon="10.933710">
        <ele>1625.034919</ele>
        <time>2026-07-21T14:10:24.971Z</time>
      </trkpt>
      <trkpt lat="47.223328" lon="10.933555">
        <ele>1623.834093</ele>
        <time>2026-07-21T14:10:26.980Z</time>
      </trkpt>
      <trkpt lat="47.223287" lon="10.933393">
        <ele>1622.516020</ele>
        <time>2026-07-21T14:10:28.978Z</time>
      </trkpt>
      <trkpt lat="47.223267" lon="10.933244">
        <ele>1621.358058</ele>
        <time>2026-07-21T14:10:30.974Z</time>
      </trkpt>
      <trkpt lat="47.223212" lon="10.933107">
        <ele>1620.144715</ele>
        <time>2026-07-21T14:10:32.989Z</time>
      </trkpt>
      <trkpt lat="47.223132" lon="10.932966">
        <ele>1618.743940</ele>
        <time>2026-07-21T14:10:34.978Z</time>
      </trkpt>
      <trkpt lat="47.223045" lon="10.932841">
        <ele>1617.346139</ele>
        <time>2026-07-21T14:10:36.974Z</time>
      </trkpt>
      <trkpt lat="47.222961" lon="10.932743">
        <ele>1616.101896</ele>
        <time>2026-07-21T14:10:38.978Z</time>
      </trkpt>
      <trkpt lat="47.222892" lon="10.932602">
        <ele>1614.731596</ele>
        <time>2026-07-21T14:10:40.978Z</time>
      </trkpt>
      <trkpt lat="47.222828" lon="10.932439">
        <ele>1613.247048</ele>
        <time>2026-07-21T14:10:42.975Z</time>
      </trkpt>
      <trkpt lat="47.222785" lon="10.932289">
        <ele>1611.963284</ele>
        <time>2026-07-21T14:10:44.981Z</time>
      </trkpt>
      <trkpt lat="47.222750" lon="10.932131">
        <ele>1610.652891</ele>
        <time>2026-07-21T14:10:46.976Z</time>
      </trkpt>
      <trkpt lat="47.222694" lon="10.931974">
        <ele>1609.254632</ele>
        <time>2026-07-21T14:10:48.983Z</time>
      </trkpt>
      <trkpt lat="47.222637" lon="10.931822">
        <ele>1607.885577</ele>
        <time>2026-07-21T14:10:50.975Z</time>
      </trkpt>
      <trkpt lat="47.222560" lon="10.931640">
        <ele>1606.194869</ele>
        <time>2026-07-21T14:10:52.974Z</time>
      </trkpt>
      <trkpt lat="47.222493" lon="10.931474">
        <ele>1604.672292</ele>
        <time>2026-07-21T14:10:54.976Z</time>
      </trkpt>
      <trkpt lat="47.222439" lon="10.931294">
        <ele>1603.120720</ele>
        <time>2026-07-21T14:10:56.976Z</time>
      </trkpt>
      <trkpt lat="47.222398" lon="10.931137">
        <ele>1601.794435</ele>
        <time>2026-07-21T14:10:58.982Z</time>
      </trkpt>
      <trkpt lat="47.222358" lon="10.931012">
        <ele>1600.704902</ele>
        <time>2026-07-21T14:11:00.985Z</time>
      </trkpt>
      <trkpt lat="47.222280" lon="10.930854">
        <ele>1599.164742</ele>
        <time>2026-07-21T14:11:02.976Z</time>
      </trkpt>
      <trkpt lat="47.222230" lon="10.930679">
        <ele>1597.667756</ele>
        <time>2026-07-21T14:11:04.976Z</time>
      </trkpt>
      <trkpt lat="47.222207" lon="10.930476">
        <ele>1596.017708</ele>
        <time>2026-07-21T14:11:06.972Z</time>
      </trkpt>
      <trkpt lat="47.222178" lon="10.930321">
        <ele>1594.725721</ele>
        <time>2026-07-21T14:11:08.972Z</time>
      </trkpt>
      <trkpt lat="47.222103" lon="10.930201">
        <ele>1593.415204</ele>
        <time>2026-07-21T14:11:10.975Z</time>
      </trkpt>
      <trkpt lat="47.222023" lon="10.930123">
        <ele>1592.279894</ele>
        <time>2026-07-21T14:11:12.981Z</time>
      </trkpt>
      <trkpt lat="47.221935" lon="10.930026">
        <ele>1590.979194</ele>
        <time>2026-07-21T14:11:15.985Z</time>
      </trkpt>
      <trkpt lat="47.221977" lon="10.929894">
        <ele>1589.807790</ele>
        <time>2026-07-21T14:11:19.974Z</time>
      </trkpt>
      <trkpt lat="47.222078" lon="10.929889">
        <ele>1588.612045</ele>
        <time>2026-07-21T14:11:22.976Z</time>
      </trkpt>
      <trkpt lat="47.222164" lon="10.929947">
        <ele>1587.492795</ele>
        <time>2026-07-21T14:11:24.974Z</time>
      </trkpt>
      <trkpt lat="47.222252" lon="10.929988">
        <ele>1586.400661</ele>
        <time>2026-07-21T14:11:26.979Z</time>
      </trkpt>
      <trkpt lat="47.222340" lon="10.930064">
        <ele>1585.193515</ele>
        <time>2026-07-21T14:11:28.976Z</time>
      </trkpt>
      <trkpt lat="47.222428" lon="10.930120">
        <ele>1584.059180</ele>
        <time>2026-07-21T14:11:30.980Z</time>
      </trkpt>
      <trkpt lat="47.222513" lon="10.930166">
        <ele>1582.987647</ele>
        <time>2026-07-21T14:11:32.972Z</time>
      </trkpt>
      <trkpt lat="47.222609" lon="10.930241">
        <ele>1581.701748</ele>
        <time>2026-07-21T14:11:34.977Z</time>
      </trkpt>
      <trkpt lat="47.222708" lon="10.930332">
        <ele>1580.320823</ele>
        <time>2026-07-21T14:11:36.981Z</time>
      </trkpt>
      <trkpt lat="47.222829" lon="10.930428">
        <ele>1578.694492</ele>
        <time>2026-07-21T14:11:38.973Z</time>
      </trkpt>
      <trkpt lat="47.222923" lon="10.930498">
        <ele>1577.448093</ele>
        <time>2026-07-21T14:11:40.973Z</time>
      </trkpt>
      <trkpt lat="47.223024" lon="10.930564">
        <ele>1576.140774</ele>
        <time>2026-07-21T14:11:42.981Z</time>
      </trkpt>
      <trkpt lat="47.223120" lon="10.930590">
        <ele>1574.989709</ele>
        <time>2026-07-21T14:11:44.974Z</time>
      </trkpt>
      <trkpt lat="47.223219" lon="10.930615">
        <ele>1573.805213</ele>
        <time>2026-07-21T14:11:46.978Z</time>
      </trkpt>
      <trkpt lat="47.223349" lon="10.930599">
        <ele>1572.266850</ele>
        <time>2026-07-21T14:11:49.974Z</time>
      </trkpt>
      <trkpt lat="47.223449" lon="10.930572">
        <ele>1571.067945</ele>
        <time>2026-07-21T14:11:51.980Z</time>
      </trkpt>
      <trkpt lat="47.223559" lon="10.930585">
        <ele>1569.766606</ele>
        <time>2026-07-21T14:11:54.976Z</time>
      </trkpt>
      <trkpt lat="47.223680" lon="10.930583">
        <ele>1568.339631</ele>
        <time>2026-07-21T14:11:56.981Z</time>
      </trkpt>
      <trkpt lat="47.223802" lon="10.930607">
        <ele>1566.888171</ele>
        <time>2026-07-21T14:11:58.980Z</time>
      </trkpt>
      <trkpt lat="47.223921" lon="10.930692">
        <ele>1565.328474</ele>
        <time>2026-07-21T14:12:00.977Z</time>
      </trkpt>
      <trkpt lat="47.224006" lon="10.930830">
        <ele>1563.836437</ele>
        <time>2026-07-21T14:12:02.975Z</time>
      </trkpt>
      <trkpt lat="47.224061" lon="10.930941">
        <ele>1562.736024</ele>
        <time>2026-07-21T14:12:04.973Z</time>
      </trkpt>
      <trkpt lat="47.224170" lon="10.930944">
        <ele>1561.450424</ele>
        <time>2026-07-21T14:12:08.981Z</time>
      </trkpt>
      <trkpt lat="47.224168" lon="10.930752">
        <ele>1559.912588</ele>
        <time>2026-07-21T14:12:11.977Z</time>
      </trkpt>
      <trkpt lat="47.224148" lon="10.930585">
        <ele>1558.554513</ele>
        <time>2026-07-21T14:12:13.973Z</time>
      </trkpt>
      <trkpt lat="47.224127" lon="10.930418">
        <ele>1557.194339</ele>
        <time>2026-07-21T14:12:15.983Z</time>
      </trkpt>
      <trkpt lat="47.224103" lon="10.930251">
        <ele>1555.827281</ele>
        <time>2026-07-21T14:12:17.982Z</time>
      </trkpt>
      <trkpt lat="47.224080" lon="10.930110">
        <ele>1554.664785</ele>
        <time>2026-07-21T14:12:19.976Z</time>
      </trkpt>
      <trkpt lat="47.224030" lon="10.929951">
        <ele>1553.256265</ele>
        <time>2026-07-21T14:12:21.976Z</time>
      </trkpt>
      <trkpt lat="47.224021" lon="10.929793">
        <ele>1551.981696</ele>
        <time>2026-07-21T14:12:23.974Z</time>
      </trkpt>
      <trkpt lat="47.223996" lon="10.929662">
        <ele>1550.887843</ele>
        <time>2026-07-21T14:12:25.976Z</time>
      </trkpt>
      <trkpt lat="47.224000" lon="10.929483">
        <ele>1549.448141</ele>
        <time>2026-07-21T14:12:28.981Z</time>
      </trkpt>
      <trkpt lat="47.224059" lon="10.929377">
        <ele>1548.346423</ele>
        <time>2026-07-21T14:12:31.982Z</time>
      </trkpt>
      <trkpt lat="47.224153" lon="10.929424">
        <ele>1547.171381</ele>
        <time>2026-07-21T14:12:34.980Z</time>
      </trkpt>
      <trkpt lat="47.224208" lon="10.929533">
        <ele>1546.079790</ele>
        <time>2026-07-21T14:12:36.978Z</time>
      </trkpt>
      <trkpt lat="47.224268" lon="10.929643">
        <ele>1544.945647</ele>
        <time>2026-07-21T14:12:38.976Z</time>
      </trkpt>
      <trkpt lat="47.224334" lon="10.929761">
        <ele>1543.716799</ele>
        <time>2026-07-21T14:12:40.974Z</time>
      </trkpt>
      <trkpt lat="47.224422" lon="10.929841">
        <ele>1542.492647</ele>
        <time>2026-07-21T14:12:42.981Z</time>
      </trkpt>
      <trkpt lat="47.224510" lon="10.929893">
        <ele>1541.370278</ele>
        <time>2026-07-21T14:12:44.978Z</time>
      </trkpt>
      <trkpt lat="47.224593" lon="10.929954">
        <ele>1540.272261</ele>
        <time>2026-07-21T14:12:46.983Z</time>
      </trkpt>
      <trkpt lat="47.224695" lon="10.930051">
        <ele>1538.835019</ele>
        <time>2026-07-21T14:12:49.973Z</time>
      </trkpt>
      <trkpt lat="47.224785" lon="10.930163">
        <ele>1537.440231</ele>
        <time>2026-07-21T14:12:52.978Z</time>
      </trkpt>
      <trkpt lat="47.224861" lon="10.930244">
        <ele>1536.329729</ele>
        <time>2026-07-21T14:12:54.974Z</time>
      </trkpt>
      <trkpt lat="47.224962" lon="10.930343">
        <ele>1534.893572</ele>
        <time>2026-07-21T14:12:57.976Z</time>
      </trkpt>
      <trkpt lat="47.225035" lon="10.930471">
        <ele>1533.530711</ele>
        <time>2026-07-21T14:13:00.980Z</time>
      </trkpt>
      <trkpt lat="47.225075" lon="10.930647">
        <ele>1531.828345</ele>
        <time>2026-07-21T14:13:03.974Z</time>
      </trkpt>
      <trkpt lat="47.225124" lon="10.930768">
        <ele>1530.536129</ele>
        <time>2026-07-21T14:13:05.984Z</time>
      </trkpt>
      <trkpt lat="47.225212" lon="10.930906">
        <ele>1528.799765</ele>
        <time>2026-07-21T14:13:08.973Z</time>
      </trkpt>
      <trkpt lat="47.225295" lon="10.930980">
        <ele>1527.489252</ele>
        <time>2026-07-21T14:13:10.980Z</time>
      </trkpt>
      <trkpt lat="47.225418" lon="10.931046">
        <ele>1525.721092</ele>
        <time>2026-07-21T14:13:12.976Z</time>
      </trkpt>
      <trkpt lat="47.225517" lon="10.931090">
        <ele>1524.324371</ele>
        <time>2026-07-21T14:13:14.979Z</time>
      </trkpt>
      <trkpt lat="47.225611" lon="10.931153">
        <ele>1522.929441</ele>
        <time>2026-07-21T14:13:16.973Z</time>
      </trkpt>
      <trkpt lat="47.225699" lon="10.931249">
        <ele>1521.450229</ele>
        <time>2026-07-21T14:13:18.978Z</time>
      </trkpt>
      <trkpt lat="47.225783" lon="10.931329">
        <ele>1520.099066</ele>
        <time>2026-07-21T14:13:20.981Z</time>
      </trkpt>
      <trkpt lat="47.225878" lon="10.931402">
        <ele>1518.651749</ele>
        <time>2026-07-21T14:13:22.973Z</time>
      </trkpt>
      <trkpt lat="47.225979" lon="10.931457">
        <ele>1517.197303</ele>
        <time>2026-07-21T14:13:24.984Z</time>
      </trkpt>
      <trkpt lat="47.226089" lon="10.931467">
        <ele>1515.708762</ele>
        <time>2026-07-21T14:13:26.977Z</time>
      </trkpt>
      <trkpt lat="47.226194" lon="10.931415">
        <ele>1514.212525</ele>
        <time>2026-07-21T14:13:28.980Z</time>
      </trkpt>
      <trkpt lat="47.226310" lon="10.931421">
        <ele>1512.644808</ele>
        <time>2026-07-21T14:13:30.976Z</time>
      </trkpt>
      <trkpt lat="47.226402" lon="10.931460">
        <ele>1511.351748</ele>
        <time>2026-07-21T14:13:32.974Z</time>
      </trkpt>
      <trkpt lat="47.226493" lon="10.931563">
        <ele>1509.801521</ele>
        <time>2026-07-21T14:13:34.979Z</time>
      </trkpt>
      <trkpt lat="47.226586" lon="10.931643">
        <ele>1509.005029</ele>
        <time>2026-07-21T14:13:36.976Z</time>
      </trkpt>
      <trkpt lat="47.226696" lon="10.931735">
        <ele>1508.371418</ele>
        <time>2026-07-21T14:13:38.974Z</time>
      </trkpt>
      <trkpt lat="47.226788" lon="10.931812">
        <ele>1507.841397</ele>
        <time>2026-07-21T14:13:40.973Z</time>
      </trkpt>
      <trkpt lat="47.226871" lon="10.931875">
        <ele>1507.373705</ele>
        <time>2026-07-21T14:13:42.977Z</time>
      </trkpt>
      <trkpt lat="47.226970" lon="10.931859">
        <ele>1506.874875</ele>
        <time>2026-07-21T14:13:54.979Z</time>
      </trkpt>
      <trkpt lat="47.226951" lon="10.931708">
        <ele>1506.352534</ele>
        <time>2026-07-21T14:13:58.981Z</time>
      </trkpt>
      <trkpt lat="47.226856" lon="10.931598">
        <ele>1505.747234</ele>
        <time>2026-07-21T14:14:01.984Z</time>
      </trkpt>
      <trkpt lat="47.226757" lon="10.931499">
        <ele>1505.147853</ele>
        <time>2026-07-21T14:14:04.982Z</time>
      </trkpt>
      <trkpt lat="47.226667" lon="10.931404">
        <ele>1504.593228</ele>
        <time>2026-07-21T14:14:07.975Z</time>
      </trkpt>
      <trkpt lat="47.226638" lon="10.931278">
        <ele>1504.140714</ele>
        <time>2026-07-21T14:14:11.985Z</time>
      </trkpt>
      <trkpt lat="47.226532" lon="10.931179">
        <ele>1503.512019</ele>
        <time>2026-07-21T14:14:15.977Z</time>
      </trkpt>
      <trkpt lat="47.226438" lon="10.931148">
        <ele>1503.029548</ele>
        <time>2026-07-21T14:14:17.984Z</time>
      </trkpt>
      <trkpt lat="47.226336" lon="10.931110">
        <ele>1502.502573</ele>
        <time>2026-07-21T14:14:19.975Z</time>
      </trkpt>
      <trkpt lat="47.226227" lon="10.931065">
        <ele>1501.935585</ele>
        <time>2026-07-21T14:14:21.978Z</time>
      </trkpt>
      <trkpt lat="47.226127" lon="10.931011">
        <ele>1501.402108</ele>
        <time>2026-07-21T14:14:23.975Z</time>
      </trkpt>
      <trkpt lat="47.226022" lon="10.930942">
        <ele>1500.826212</ele>
        <time>2026-07-21T14:14:25.981Z</time>
      </trkpt>
      <trkpt lat="47.225930" lon="10.930856">
        <ele>1500.414465</ele>
        <time>2026-07-21T14:14:27.973Z</time>
      </trkpt>
      <trkpt lat="47.225835" lon="10.930758">
        <ele>1500.583185</ele>
        <time>2026-07-21T14:14:29.976Z</time>
      </trkpt>
      <trkpt lat="47.225769" lon="10.930636">
        <ele>1500.737264</ele>
        <time>2026-07-21T14:14:31.982Z</time>
      </trkpt>
      <trkpt lat="47.225695" lon="10.930501">
        <ele>1500.908640</ele>
        <time>2026-07-21T14:14:33.982Z</time>
      </trkpt>
      <trkpt lat="47.225626" lon="10.930364">
        <ele>1501.077128</ele>
        <time>2026-07-21T14:14:35.977Z</time>
      </trkpt>
      <trkpt lat="47.225564" lon="10.930240">
        <ele>1501.229237</ele>
        <time>2026-07-21T14:14:37.978Z</time>
      </trkpt>
      <trkpt lat="47.225511" lon="10.930131">
        <ele>1501.361663</ele>
        <time>2026-07-21T14:14:39.983Z</time>
      </trkpt>
      <trkpt lat="47.225448" lon="10.930034">
        <ele>1501.494249</ele>
        <time>2026-07-21T14:14:41.973Z</time>
      </trkpt>
      <trkpt lat="47.225382" lon="10.929917">
        <ele>1501.644496</ele>
        <time>2026-07-21T14:14:43.982Z</time>
      </trkpt>
      <trkpt lat="47.225315" lon="10.929805">
        <ele>1501.791936</ele>
        <time>2026-07-21T14:14:45.981Z</time>
      </trkpt>
      <trkpt lat="47.225247" lon="10.929690">
        <ele>1501.942563</ele>
        <time>2026-07-21T14:14:47.981Z</time>
      </trkpt>
      <trkpt lat="47.225156" lon="10.929558">
        <ele>1502.128368</ele>
        <time>2026-07-21T14:14:50.977Z</time>
      </trkpt>
      <trkpt lat="47.225087" lon="10.929465">
        <ele>1502.264432</ele>
        <time>2026-07-21T14:14:52.985Z</time>
      </trkpt>
      <trkpt lat="47.225022" lon="10.929351">
        <ele>1502.411473</ele>
        <time>2026-07-21T14:14:54.977Z</time>
      </trkpt>
      <trkpt lat="47.224961" lon="10.929243">
        <ele>1502.550235</ele>
        <time>2026-07-21T14:14:56.977Z</time>
      </trkpt>
      <trkpt lat="47.224886" lon="10.929099">
        <ele>1502.729500</ele>
        <time>2026-07-21T14:14:59.974Z</time>
      </trkpt>
      <trkpt lat="47.224831" lon="10.928992">
        <ele>1502.862062</ele>
        <time>2026-07-21T14:15:01.989Z</time>
      </trkpt>
      <trkpt lat="47.224781" lon="10.928865">
        <ele>1502.979564</ele>
        <time>2026-07-21T14:15:03.976Z</time>
      </trkpt>
      <trkpt lat="47.224740" lon="10.928730">
        <ele>1502.507956</ele>
        <time>2026-07-21T14:15:05.986Z</time>
      </trkpt>
      <trkpt lat="47.224726" lon="10.928593">
        <ele>1502.066139</ele>
        <time>2026-07-21T14:15:07.972Z</time>
      </trkpt>
      <trkpt lat="47.224744" lon="10.928454">
        <ele>1501.614876</ele>
        <time>2026-07-21T14:15:09.985Z</time>
      </trkpt>
      <trkpt lat="47.224768" lon="10.928322">
        <ele>1501.179098</ele>
        <time>2026-07-21T14:15:11.977Z</time>
      </trkpt>
      <trkpt lat="47.224800" lon="10.928192">
        <ele>1500.738131</ele>
        <time>2026-07-21T14:15:13.981Z</time>
      </trkpt>
      <trkpt lat="47.224835" lon="10.928015">
        <ele>1500.150231</ele>
        <time>2026-07-21T14:15:16.976Z</time>
      </trkpt>
      <trkpt lat="47.224840" lon="10.927616">
        <ele>1498.877591</ele>
        <time>2026-07-21T14:15:44.984Z</time>
      </trkpt>
      <trkpt lat="47.224798" lon="10.927479">
        <ele>1498.398240</ele>
        <time>2026-07-21T14:15:46.980Z</time>
      </trkpt>
      <trkpt lat="47.224716" lon="10.927364">
        <ele>1497.866483</ele>
        <time>2026-07-21T14:15:48.975Z</time>
      </trkpt>
      <trkpt lat="47.224609" lon="10.927279">
        <ele>1497.295575</ele>
        <time>2026-07-21T14:15:50.982Z</time>
      </trkpt>
      <trkpt lat="47.224480" lon="10.927252">
        <ele>1496.683727</ele>
        <time>2026-07-21T14:15:52.977Z</time>
      </trkpt>
      <trkpt lat="47.224332" lon="10.927285">
        <ele>1495.980824</ele>
        <time>2026-07-21T14:15:54.974Z</time>
      </trkpt>
      <trkpt lat="47.224179" lon="10.927352">
        <ele>1495.231266</ele>
        <time>2026-07-21T14:15:56.976Z</time>
      </trkpt>
      <trkpt lat="47.224013" lon="10.927446">
        <ele>1494.193233</ele>
        <time>2026-07-21T14:15:58.978Z</time>
      </trkpt>
      <trkpt lat="47.223853" lon="10.927539">
        <ele>1492.350787</ele>
        <time>2026-07-21T14:16:00.974Z</time>
      </trkpt>
      <trkpt lat="47.223701" lon="10.927590">
        <ele>1490.680986</ele>
        <time>2026-07-21T14:16:02.977Z</time>
      </trkpt>
      <trkpt lat="47.223568" lon="10.927557">
        <ele>1489.236344</ele>
        <time>2026-07-21T14:16:04.976Z</time>
      </trkpt>
      <trkpt lat="47.223451" lon="10.927412">
        <ele>1487.598357</ele>
        <time>2026-07-21T14:16:06.976Z</time>
      </trkpt>
      <trkpt lat="47.223319" lon="10.927290">
        <ele>1485.929060</ele>
        <time>2026-07-21T14:16:08.982Z</time>
      </trkpt>
      <trkpt lat="47.223159" lon="10.927251">
        <ele>1484.191982</ele>
        <time>2026-07-21T14:16:10.976Z</time>
      </trkpt>
      <trkpt lat="47.222977" lon="10.927279">
        <ele>1482.231974</ele>
        <time>2026-07-21T14:16:12.974Z</time>
      </trkpt>
      <trkpt lat="47.222883" lon="10.927302">
        <ele>1481.211336</ele>
        <time>2026-07-21T14:16:13.978Z</time>
      </trkpt>
      <trkpt lat="47.222786" lon="10.927330">
        <ele>1480.152595</ele>
        <time>2026-07-21T14:16:14.978Z</time>
      </trkpt>
      <trkpt lat="47.222682" lon="10.927354">
        <ele>1479.025056</ele>
        <time>2026-07-21T14:16:15.983Z</time>
      </trkpt>
      <trkpt lat="47.222584" lon="10.927388">
        <ele>1477.946636</ele>
        <time>2026-07-21T14:16:16.983Z</time>
      </trkpt>
      <trkpt lat="47.222490" lon="10.927416">
        <ele>1476.919409</ele>
        <time>2026-07-21T14:16:17.982Z</time>
      </trkpt>
      <trkpt lat="47.222327" lon="10.927456">
        <ele>1475.164665</ele>
        <time>2026-07-21T14:16:19.980Z</time>
      </trkpt>
      <trkpt lat="47.222218" lon="10.927452">
        <ele>1474.123972</ele>
        <time>2026-07-21T14:16:21.982Z</time>
      </trkpt>
      <trkpt lat="47.222182" lon="10.927305">
        <ele>1473.111010</ele>
        <time>2026-07-21T14:16:24.973Z</time>
      </trkpt>
      <trkpt lat="47.222269" lon="10.927247">
        <ele>1472.199472</ele>
        <time>2026-07-21T14:16:26.978Z</time>
      </trkpt>
      <trkpt lat="47.222387" lon="10.927227">
        <ele>1471.065762</ele>
        <time>2026-07-21T14:16:28.977Z</time>
      </trkpt>
      <trkpt lat="47.222535" lon="10.927187">
        <ele>1469.629549</ele>
        <time>2026-07-21T14:16:30.980Z</time>
      </trkpt>
      <trkpt lat="47.222704" lon="10.927118">
        <ele>1467.955633</ele>
        <time>2026-07-21T14:16:32.973Z</time>
      </trkpt>
      <trkpt lat="47.222793" lon="10.927061">
        <ele>1467.029278</ele>
        <time>2026-07-21T14:16:33.978Z</time>
      </trkpt>
      <trkpt lat="47.222882" lon="10.926985">
        <ele>1466.047282</ele>
        <time>2026-07-21T14:16:34.973Z</time>
      </trkpt>
      <trkpt lat="47.222970" lon="10.926901">
        <ele>1465.046294</ele>
        <time>2026-07-21T14:16:35.975Z</time>
      </trkpt>
      <trkpt lat="47.223060" lon="10.926820">
        <ele>1464.039513</ele>
        <time>2026-07-21T14:16:36.976Z</time>
      </trkpt>
      <trkpt lat="47.223152" lon="10.926742">
        <ele>1463.026240</ele>
        <time>2026-07-21T14:16:37.983Z</time>
      </trkpt>
      <trkpt lat="47.223247" lon="10.926685">
        <ele>1462.047104</ele>
        <time>2026-07-21T14:16:38.982Z</time>
      </trkpt>
      <trkpt lat="47.223344" lon="10.926652">
        <ele>1461.096879</ele>
        <time>2026-07-21T14:16:39.975Z</time>
      </trkpt>
      <trkpt lat="47.223446" lon="10.926647">
        <ele>1460.122782</ele>
        <time>2026-07-21T14:16:40.975Z</time>
      </trkpt>
      <trkpt lat="47.223541" lon="10.926638">
        <ele>1459.214162</ele>
        <time>2026-07-21T14:16:41.976Z</time>
      </trkpt>
      <trkpt lat="47.223633" lon="10.926628">
        <ele>1458.333661</ele>
        <time>2026-07-21T14:16:42.978Z</time>
      </trkpt>
      <trkpt lat="47.223757" lon="10.926584">
        <ele>1457.071677</ele>
        <time>2026-07-21T14:16:44.975Z</time>
      </trkpt>
      <trkpt lat="47.223771" lon="10.926416">
        <ele>1455.925886</ele>
        <time>2026-07-21T14:16:47.979Z</time>
      </trkpt>
      <trkpt lat="47.223639" lon="10.926387">
        <ele>1454.595589</ele>
        <time>2026-07-21T14:16:50.982Z</time>
      </trkpt>
      <trkpt lat="47.223520" lon="10.926401">
        <ele>1453.405656</ele>
        <time>2026-07-21T14:16:52.984Z</time>
      </trkpt>
      <trkpt lat="47.223384" lon="10.926375">
        <ele>1452.038674</ele>
        <time>2026-07-21T14:16:54.977Z</time>
      </trkpt>
      <trkpt lat="47.223225" lon="10.926334">
        <ele>1450.429696</ele>
        <time>2026-07-21T14:16:56.974Z</time>
      </trkpt>
      <trkpt lat="47.223069" lon="10.926376">
        <ele>1448.848959</ele>
        <time>2026-07-21T14:16:58.979Z</time>
      </trkpt>
      <trkpt lat="47.222921" lon="10.926469">
        <ele>1447.245023</ele>
        <time>2026-07-21T14:17:00.976Z</time>
      </trkpt>
      <trkpt lat="47.222817" lon="10.926538">
        <ele>1446.108010</ele>
        <time>2026-07-21T14:17:02.975Z</time>
      </trkpt>
      <trkpt lat="47.222724" lon="10.926525">
        <ele>1445.176849</ele>
        <time>2026-07-21T14:17:04.978Z</time>
      </trkpt>
      <trkpt lat="47.222763" lon="10.926359">
        <ele>1443.987766</ele>
        <time>2026-07-21T14:17:07.974Z</time>
      </trkpt>
      <trkpt lat="47.222894" lon="10.926297">
        <ele>1442.616205</ele>
        <time>2026-07-21T14:17:09.981Z</time>
      </trkpt>
      <trkpt lat="47.223042" lon="10.926215">
        <ele>1441.040008</ele>
        <time>2026-07-21T14:17:11.986Z</time>
      </trkpt>
      <trkpt lat="47.223204" lon="10.926122">
        <ele>1439.214850</ele>
        <time>2026-07-21T14:17:13.982Z</time>
      </trkpt>
      <trkpt lat="47.223306" lon="10.926019">
        <ele>1437.854096</ele>
        <time>2026-07-21T14:17:15.980Z</time>
      </trkpt>
      <trkpt lat="47.223258" lon="10.925870">
        <ele>1436.621874</ele>
        <time>2026-07-21T14:17:18.977Z</time>
      </trkpt>
      <trkpt lat="47.223134" lon="10.925866">
        <ele>1435.257295</ele>
        <time>2026-07-21T14:17:20.975Z</time>
      </trkpt>
      <trkpt lat="47.222985" lon="10.925854">
        <ele>1433.615543</ele>
        <time>2026-07-21T14:17:22.973Z</time>
      </trkpt>
      <trkpt lat="47.222860" lon="10.925714">
        <ele>1431.887652</ele>
        <time>2026-07-21T14:17:24.974Z</time>
      </trkpt>
      <trkpt lat="47.222798" lon="10.925474">
        <ele>1429.969016</ele>
        <time>2026-07-21T14:17:26.976Z</time>
      </trkpt>
      <trkpt lat="47.222793" lon="10.925329">
        <ele>1428.884178</ele>
        <time>2026-07-21T14:17:27.983Z</time>
      </trkpt>
      <trkpt lat="47.222805" lon="10.925178">
        <ele>1427.748205</ele>
        <time>2026-07-21T14:17:28.979Z</time>
      </trkpt>
      <trkpt lat="47.222826" lon="10.925022">
        <ele>1426.559893</ele>
        <time>2026-07-21T14:17:29.976Z</time>
      </trkpt>
      <trkpt lat="47.222852" lon="10.924890">
        <ele>1425.532943</ele>
        <time>2026-07-21T14:17:30.979Z</time>
      </trkpt>
      <trkpt lat="47.222863" lon="10.924753">
        <ele>1424.502149</ele>
        <time>2026-07-21T14:17:31.985Z</time>
      </trkpt>
      <trkpt lat="47.222862" lon="10.924617">
        <ele>1423.485896</ele>
        <time>2026-07-21T14:17:32.975Z</time>
      </trkpt>
      <trkpt lat="47.222857" lon="10.924483">
        <ele>1422.483136</ele>
        <time>2026-07-21T14:17:33.983Z</time>
      </trkpt>
      <trkpt lat="47.222812" lon="10.924356">
        <ele>1421.412802</ele>
        <time>2026-07-21T14:17:34.975Z</time>
      </trkpt>
      <trkpt lat="47.222745" lon="10.924232">
        <ele>1420.242332</ele>
        <time>2026-07-21T14:17:35.983Z</time>
      </trkpt>
      <trkpt lat="47.222676" lon="10.924111">
        <ele>1419.152467</ele>
        <time>2026-07-21T14:17:36.973Z</time>
      </trkpt>
      <trkpt lat="47.222597" lon="10.923990">
        <ele>1417.994673</ele>
        <time>2026-07-21T14:17:37.982Z</time>
      </trkpt>
      <trkpt lat="47.222519" lon="10.923856">
        <ele>1416.777287</ele>
        <time>2026-07-21T14:17:38.977Z</time>
      </trkpt>
      <trkpt lat="47.222445" lon="10.923731">
        <ele>1415.633436</ele>
        <time>2026-07-21T14:17:39.973Z</time>
      </trkpt>
      <trkpt lat="47.222375" lon="10.923627">
        <ele>1414.623413</ele>
        <time>2026-07-21T14:17:40.981Z</time>
      </trkpt>
      <trkpt lat="47.222313" lon="10.923531">
        <ele>1413.709587</ele>
        <time>2026-07-21T14:17:41.975Z</time>
      </trkpt>
      <trkpt lat="47.222206" lon="10.923385">
        <ele>1412.227906</ele>
        <time>2026-07-21T14:17:43.973Z</time>
      </trkpt>
      <trkpt lat="47.222171" lon="10.923249">
        <ele>1411.224672</ele>
        <time>2026-07-21T14:17:45.976Z</time>
      </trkpt>
      <trkpt lat="47.222232" lon="10.923149">
        <ele>1410.297474</ele>
        <time>2026-07-21T14:17:47.977Z</time>
      </trkpt>
      <trkpt lat="47.222355" lon="10.923213">
        <ele>1408.972474</ele>
        <time>2026-07-21T14:17:49.980Z</time>
      </trkpt>
      <trkpt lat="47.222493" lon="10.923318">
        <ele>1407.394753</ele>
        <time>2026-07-21T14:17:51.975Z</time>
      </trkpt>
      <trkpt lat="47.222647" lon="10.923459">
        <ele>1405.552862</ele>
        <time>2026-07-21T14:17:53.974Z</time>
      </trkpt>
      <trkpt lat="47.222728" lon="10.923546">
        <ele>1404.534534</ele>
        <time>2026-07-21T14:17:54.980Z</time>
      </trkpt>
      <trkpt lat="47.222814" lon="10.923631">
        <ele>1403.482506</ele>
        <time>2026-07-21T14:17:55.973Z</time>
      </trkpt>
      <trkpt lat="47.222899" lon="10.923721">
        <ele>1402.419136</ele>
        <time>2026-07-21T14:17:56.974Z</time>
      </trkpt>
      <trkpt lat="47.222974" lon="10.923803">
        <ele>1401.425010</ele>
        <time>2026-07-21T14:17:57.974Z</time>
      </trkpt>
      <trkpt lat="47.223095" lon="10.923945">
        <ele>1399.746481</ele>
        <time>2026-07-21T14:17:59.974Z</time>
      </trkpt>
      <trkpt lat="47.223195" lon="10.924004">
        <ele>1398.577824</ele>
        <time>2026-07-21T14:18:01.974Z</time>
      </trkpt>
      <trkpt lat="47.223268" lon="10.923925">
        <ele>1397.595032</ele>
        <time>2026-07-21T14:18:03.979Z</time>
      </trkpt>
      <trkpt lat="47.223288" lon="10.923735">
        <ele>1396.178509</ele>
        <time>2026-07-21T14:18:05.986Z</time>
      </trkpt>
      <trkpt lat="47.223271" lon="10.923508">
        <ele>1394.495968</ele>
        <time>2026-07-21T14:18:07.975Z</time>
      </trkpt>
      <trkpt lat="47.223246" lon="10.923378">
        <ele>1393.500547</ele>
        <time>2026-07-21T14:18:08.974Z</time>
      </trkpt>
      <trkpt lat="47.223223" lon="10.923241">
        <ele>1392.460828</ele>
        <time>2026-07-21T14:18:09.978Z</time>
      </trkpt>
      <trkpt lat="47.223201" lon="10.923095">
        <ele>1391.359026</ele>
        <time>2026-07-21T14:18:10.973Z</time>
      </trkpt>
      <trkpt lat="47.223167" lon="10.922942">
        <ele>1390.173000</ele>
        <time>2026-07-21T14:18:11.973Z</time>
      </trkpt>
      <trkpt lat="47.223142" lon="10.922785">
        <ele>1388.984945</ele>
        <time>2026-07-21T14:18:12.977Z</time>
      </trkpt>
      <trkpt lat="47.223105" lon="10.922635">
        <ele>1387.809195</ele>
        <time>2026-07-21T14:18:13.979Z</time>
      </trkpt>
      <trkpt lat="47.223064" lon="10.922486">
        <ele>1386.624765</ele>
        <time>2026-07-21T14:18:14.975Z</time>
      </trkpt>
      <trkpt lat="47.223023" lon="10.922333">
        <ele>1385.412970</ele>
        <time>2026-07-21T14:18:15.978Z</time>
      </trkpt>
      <trkpt lat="47.222968" lon="10.922188">
        <ele>1384.189364</ele>
        <time>2026-07-21T14:18:16.974Z</time>
      </trkpt>
      <trkpt lat="47.222917" lon="10.922048">
        <ele>1383.018908</ele>
        <time>2026-07-21T14:18:17.976Z</time>
      </trkpt>
      <trkpt lat="47.222867" lon="10.921917">
        <ele>1381.878173</ele>
        <time>2026-07-21T14:18:18.981Z</time>
      </trkpt>
      <trkpt lat="47.222817" lon="10.921794">
        <ele>1380.772216</ele>
        <time>2026-07-21T14:18:19.976Z</time>
      </trkpt>
      <trkpt lat="47.222769" lon="10.921669">
        <ele>1379.664347</ele>
        <time>2026-07-21T14:18:20.980Z</time>
      </trkpt>
      <trkpt lat="47.222730" lon="10.921544">
        <ele>1378.603060</ele>
        <time>2026-07-21T14:18:21.975Z</time>
      </trkpt>
      <trkpt lat="47.222695" lon="10.921409">
        <ele>1377.488209</ele>
        <time>2026-07-21T14:18:22.978Z</time>
      </trkpt>
      <trkpt lat="47.222694" lon="10.921263">
        <ele>1376.361744</ele>
        <time>2026-07-21T14:18:23.977Z</time>
      </trkpt>
      <trkpt lat="47.222692" lon="10.921111">
        <ele>1375.188825</ele>
        <time>2026-07-21T14:18:24.978Z</time>
      </trkpt>
      <trkpt lat="47.222705" lon="10.920947">
        <ele>1373.914956</ele>
        <time>2026-07-21T14:18:25.976Z</time>
      </trkpt>
      <trkpt lat="47.222718" lon="10.920789">
        <ele>1372.687053</ele>
        <time>2026-07-21T14:18:26.976Z</time>
      </trkpt>
      <trkpt lat="47.222725" lon="10.920624">
        <ele>1371.411578</ele>
        <time>2026-07-21T14:18:27.975Z</time>
      </trkpt>
      <trkpt lat="47.222720" lon="10.920459">
        <ele>1370.137316</ele>
        <time>2026-07-21T14:18:28.973Z</time>
      </trkpt>
      <trkpt lat="47.222704" lon="10.920291">
        <ele>1368.828494</ele>
        <time>2026-07-21T14:18:29.975Z</time>
      </trkpt>
      <trkpt lat="47.222682" lon="10.920112">
        <ele>1367.425055</ele>
        <time>2026-07-21T14:18:30.978Z</time>
      </trkpt>
      <trkpt lat="47.222661" lon="10.919938">
        <ele>1366.061591</ele>
        <time>2026-07-21T14:18:31.979Z</time>
      </trkpt>
      <trkpt lat="47.222638" lon="10.919775">
        <ele>1364.777170</ele>
        <time>2026-07-21T14:18:32.982Z</time>
      </trkpt>
      <trkpt lat="47.222622" lon="10.919621">
        <ele>1363.575217</ele>
        <time>2026-07-21T14:18:33.977Z</time>
      </trkpt>
      <trkpt lat="47.222610" lon="10.919462">
        <ele>1362.340959</ele>
        <time>2026-07-21T14:18:34.979Z</time>
      </trkpt>
      <trkpt lat="47.222637" lon="10.919300">
        <ele>1361.125241</ele>
        <time>2026-07-21T14:18:35.981Z</time>
      </trkpt>
      <trkpt lat="47.222668" lon="10.919134">
        <ele>1359.880129</ele>
        <time>2026-07-21T14:18:36.976Z</time>
      </trkpt>
      <trkpt lat="47.222699" lon="10.918961">
        <ele>1358.586134</ele>
        <time>2026-07-21T14:18:37.978Z</time>
      </trkpt>
      <trkpt lat="47.222730" lon="10.918793">
        <ele>1357.327070</ele>
        <time>2026-07-21T14:18:38.977Z</time>
      </trkpt>
      <trkpt lat="47.222765" lon="10.918623">
        <ele>1356.042338</ele>
        <time>2026-07-21T14:18:39.986Z</time>
      </trkpt>
      <trkpt lat="47.222798" lon="10.918444">
        <ele>1354.700921</ele>
        <time>2026-07-21T14:18:40.981Z</time>
      </trkpt>
      <trkpt lat="47.222836" lon="10.918262">
        <ele>1353.323858</ele>
        <time>2026-07-21T14:18:41.978Z</time>
      </trkpt>
      <trkpt lat="47.222876" lon="10.918076">
        <ele>1351.912835</ele>
        <time>2026-07-21T14:18:42.973Z</time>
      </trkpt>
      <trkpt lat="47.222914" lon="10.917885">
        <ele>1350.473431</ele>
        <time>2026-07-21T14:18:43.977Z</time>
      </trkpt>
      <trkpt lat="47.222952" lon="10.917688">
        <ele>1348.992334</ele>
        <time>2026-07-21T14:18:44.974Z</time>
      </trkpt>
      <trkpt lat="47.222990" lon="10.917505">
        <ele>1347.608360</ele>
        <time>2026-07-21T14:18:45.976Z</time>
      </trkpt>
      <trkpt lat="47.223028" lon="10.917317">
        <ele>1346.189767</ele>
        <time>2026-07-21T14:18:46.977Z</time>
      </trkpt>
      <trkpt lat="47.223060" lon="10.917128">
        <ele>1344.781046</ele>
        <time>2026-07-21T14:18:47.976Z</time>
      </trkpt>
      <trkpt lat="47.223095" lon="10.916952">
        <ele>1343.454735</ele>
        <time>2026-07-21T14:18:48.975Z</time>
      </trkpt>
      <trkpt lat="47.223124" lon="10.916776">
        <ele>1342.246270</ele>
        <time>2026-07-21T14:18:49.977Z</time>
      </trkpt>
      <trkpt lat="47.223146" lon="10.916592">
        <ele>1341.048350</ele>
        <time>2026-07-21T14:18:50.979Z</time>
      </trkpt>
      <trkpt lat="47.223168" lon="10.916405">
        <ele>1339.831481</ele>
        <time>2026-07-21T14:18:51.975Z</time>
      </trkpt>
      <trkpt lat="47.223182" lon="10.916211">
        <ele>1338.580585</ele>
        <time>2026-07-21T14:18:52.981Z</time>
      </trkpt>
      <trkpt lat="47.223198" lon="10.916023">
        <ele>1337.365734</ele>
        <time>2026-07-21T14:18:53.975Z</time>
      </trkpt>
      <trkpt lat="47.223215" lon="10.915840">
        <ele>1336.181445</ele>
        <time>2026-07-21T14:18:54.976Z</time>
      </trkpt>
      <trkpt lat="47.223230" lon="10.915660">
        <ele>1335.018662</ele>
        <time>2026-07-21T14:18:55.981Z</time>
      </trkpt>
      <trkpt lat="47.223245" lon="10.915482">
        <ele>1333.868606</ele>
        <time>2026-07-21T14:18:56.981Z</time>
      </trkpt>
      <trkpt lat="47.223261" lon="10.915299">
        <ele>1332.685560</ele>
        <time>2026-07-21T14:18:57.974Z</time>
      </trkpt>
      <trkpt lat="47.223273" lon="10.915124">
        <ele>1331.557788</ele>
        <time>2026-07-21T14:18:58.976Z</time>
      </trkpt>
      <trkpt lat="47.223282" lon="10.914948">
        <ele>1330.426115</ele>
        <time>2026-07-21T14:18:59.976Z</time>
      </trkpt>
      <trkpt lat="47.223292" lon="10.914767">
        <ele>1329.261743</ele>
        <time>2026-07-21T14:19:00.973Z</time>
      </trkpt>
      <trkpt lat="47.223307" lon="10.914589">
        <ele>1328.111688</ele>
        <time>2026-07-21T14:19:01.975Z</time>
      </trkpt>
      <trkpt lat="47.223315" lon="10.914407">
        <ele>1326.942298</ele>
        <time>2026-07-21T14:19:02.979Z</time>
      </trkpt>
      <trkpt lat="47.223320" lon="10.914224">
        <ele>1325.782844</ele>
        <time>2026-07-21T14:19:03.977Z</time>
      </trkpt>
      <trkpt lat="47.223335" lon="10.914040">
        <ele>1324.655642</ele>
        <time>2026-07-21T14:19:04.978Z</time>
      </trkpt>
      <trkpt lat="47.223336" lon="10.913849">
        <ele>1323.493863</ele>
        <time>2026-07-21T14:19:05.982Z</time>
      </trkpt>
      <trkpt lat="47.223335" lon="10.913657">
        <ele>1322.326002</ele>
        <time>2026-07-21T14:19:06.975Z</time>
      </trkpt>
      <trkpt lat="47.223328" lon="10.913462">
        <ele>1321.138272</ele>
        <time>2026-07-21T14:19:07.975Z</time>
      </trkpt>
      <trkpt lat="47.223315" lon="10.913263">
        <ele>1319.922282</ele>
        <time>2026-07-21T14:19:08.979Z</time>
      </trkpt>
      <trkpt lat="47.223301" lon="10.913066">
        <ele>1318.717500</ele>
        <time>2026-07-21T14:19:09.977Z</time>
      </trkpt>
      <trkpt lat="47.223286" lon="10.912866">
        <ele>1317.493617</ele>
        <time>2026-07-21T14:19:10.979Z</time>
      </trkpt>
      <trkpt lat="47.223268" lon="10.912661">
        <ele>1316.236339</ele>
        <time>2026-07-21T14:19:11.975Z</time>
      </trkpt>
      <trkpt lat="47.223256" lon="10.912459">
        <ele>1315.002995</ele>
        <time>2026-07-21T14:19:12.976Z</time>
      </trkpt>
      <trkpt lat="47.223244" lon="10.912264">
        <ele>1313.812060</ele>
        <time>2026-07-21T14:19:13.981Z</time>
      </trkpt>
      <trkpt lat="47.223238" lon="10.912078">
        <ele>1312.679450</ele>
        <time>2026-07-21T14:19:14.983Z</time>
      </trkpt>
      <trkpt lat="47.223227" lon="10.911894">
        <ele>1311.555953</ele>
        <time>2026-07-21T14:19:15.977Z</time>
      </trkpt>
      <trkpt lat="47.223215" lon="10.911715">
        <ele>1310.461904</ele>
        <time>2026-07-21T14:19:16.977Z</time>
      </trkpt>
      <trkpt lat="47.223206" lon="10.911547">
        <ele>1309.387477</ele>
        <time>2026-07-21T14:19:17.980Z</time>
      </trkpt>
      <trkpt lat="47.223192" lon="10.911383">
        <ele>1308.285019</ele>
        <time>2026-07-21T14:19:18.976Z</time>
      </trkpt>
      <trkpt lat="47.223180" lon="10.911216">
        <ele>1307.164942</ele>
        <time>2026-07-21T14:19:19.975Z</time>
      </trkpt>
      <trkpt lat="47.223172" lon="10.911057">
        <ele>1306.101534</ele>
        <time>2026-07-21T14:19:20.980Z</time>
      </trkpt>
      <trkpt lat="47.223162" lon="10.910899">
        <ele>1305.043135</ele>
        <time>2026-07-21T14:19:21.986Z</time>
      </trkpt>
      <trkpt lat="47.223147" lon="10.910742">
        <ele>1303.985661</ele>
        <time>2026-07-21T14:19:22.979Z</time>
      </trkpt>
      <trkpt lat="47.223131" lon="10.910587">
        <ele>1302.939965</ele>
        <time>2026-07-21T14:19:23.980Z</time>
      </trkpt>
      <trkpt lat="47.223111" lon="10.910443">
        <ele>1301.959631</ele>
        <time>2026-07-21T14:19:24.975Z</time>
      </trkpt>
      <trkpt lat="47.223087" lon="10.910293">
        <ele>1300.931766</ele>
        <time>2026-07-21T14:19:25.983Z</time>
      </trkpt>
      <trkpt lat="47.223068" lon="10.910144">
        <ele>1299.920595</ele>
        <time>2026-07-21T14:19:26.979Z</time>
      </trkpt>
      <trkpt lat="47.223044" lon="10.909985">
        <ele>1298.834213</ele>
        <time>2026-07-21T14:19:27.975Z</time>
      </trkpt>
      <trkpt lat="47.223025" lon="10.909817">
        <ele>1297.698250</ele>
        <time>2026-07-21T14:19:28.978Z</time>
      </trkpt>
      <trkpt lat="47.223022" lon="10.909644">
        <ele>1296.543991</ele>
        <time>2026-07-21T14:19:29.978Z</time>
      </trkpt>
      <trkpt lat="47.223036" lon="10.909477">
        <ele>1295.421674</ele>
        <time>2026-07-21T14:19:30.978Z</time>
      </trkpt>
      <trkpt lat="47.223064" lon="10.909309">
        <ele>1294.267892</ele>
        <time>2026-07-21T14:19:31.977Z</time>
      </trkpt>
      <trkpt lat="47.223094" lon="10.909153">
        <ele>1293.186489</ele>
        <time>2026-07-21T14:19:32.974Z</time>
      </trkpt>
      <trkpt lat="47.223120" lon="10.909008">
        <ele>1292.217368</ele>
        <time>2026-07-21T14:19:33.978Z</time>
      </trkpt>
      <trkpt lat="47.223144" lon="10.908867">
        <ele>1291.556275</ele>
        <time>2026-07-21T14:19:34.980Z</time>
      </trkpt>
      <trkpt lat="47.223163" lon="10.908727">
        <ele>1290.906975</ele>
        <time>2026-07-21T14:19:35.981Z</time>
      </trkpt>
      <trkpt lat="47.223178" lon="10.908592">
        <ele>1290.284841</ele>
        <time>2026-07-21T14:19:36.977Z</time>
      </trkpt>
      <trkpt lat="47.223190" lon="10.908452">
        <ele>1289.643079</ele>
        <time>2026-07-21T14:19:37.975Z</time>
      </trkpt>
      <trkpt lat="47.223178" lon="10.908305">
        <ele>1288.969720</ele>
        <time>2026-07-21T14:19:38.977Z</time>
      </trkpt>
      <trkpt lat="47.223161" lon="10.908153">
        <ele>1288.269122</ele>
        <time>2026-07-21T14:19:39.976Z</time>
      </trkpt>
      <trkpt lat="47.223138" lon="10.908011">
        <ele>1287.605202</ele>
        <time>2026-07-21T14:19:40.977Z</time>
      </trkpt>
      <trkpt lat="47.223106" lon="10.907867">
        <ele>1286.916131</ele>
        <time>2026-07-21T14:19:41.980Z</time>
      </trkpt>
      <trkpt lat="47.223069" lon="10.907720">
        <ele>1286.203145</ele>
        <time>2026-07-21T14:19:42.978Z</time>
      </trkpt>
      <trkpt lat="47.223036" lon="10.907569">
        <ele>1285.481725</ele>
        <time>2026-07-21T14:19:43.976Z</time>
      </trkpt>
      <trkpt lat="47.223012" lon="10.907421">
        <ele>1284.789707</ele>
        <time>2026-07-21T14:19:44.982Z</time>
      </trkpt>
      <trkpt lat="47.222987" lon="10.907266">
        <ele>1284.065167</ele>
        <time>2026-07-21T14:19:45.978Z</time>
      </trkpt>
      <trkpt lat="47.222966" lon="10.907110">
        <ele>1283.341883</ele>
        <time>2026-07-21T14:19:46.982Z</time>
      </trkpt>
      <trkpt lat="47.222947" lon="10.906954">
        <ele>1282.621083</ele>
        <time>2026-07-21T14:19:47.974Z</time>
      </trkpt>
      <trkpt lat="47.222925" lon="10.906795">
        <ele>1281.883103</ele>
        <time>2026-07-21T14:19:48.976Z</time>
      </trkpt>
      <trkpt lat="47.222896" lon="10.906629">
        <ele>1281.103564</ele>
        <time>2026-07-21T14:19:49.982Z</time>
      </trkpt>
      <trkpt lat="47.222873" lon="10.906461">
        <ele>1280.324137</ele>
        <time>2026-07-21T14:19:50.978Z</time>
      </trkpt>
      <trkpt lat="47.222852" lon="10.906293">
        <ele>1279.417295</ele>
        <time>2026-07-21T14:19:51.975Z</time>
      </trkpt>
      <trkpt lat="47.222824" lon="10.906125">
        <ele>1278.482856</ele>
        <time>2026-07-21T14:19:52.979Z</time>
      </trkpt>
      <trkpt lat="47.222801" lon="10.905957">
        <ele>1277.557089</ele>
        <time>2026-07-21T14:19:53.982Z</time>
      </trkpt>
      <trkpt lat="47.222780" lon="10.905794">
        <ele>1276.660883</ele>
        <time>2026-07-21T14:19:54.973Z</time>
      </trkpt>
      <trkpt lat="47.222756" lon="10.905630">
        <ele>1275.754644</ele>
        <time>2026-07-21T14:19:55.978Z</time>
      </trkpt>
      <trkpt lat="47.222730" lon="10.905468">
        <ele>1274.855439</ele>
        <time>2026-07-21T14:19:56.977Z</time>
      </trkpt>
      <trkpt lat="47.222705" lon="10.905305">
        <ele>1273.952761</ele>
        <time>2026-07-21T14:19:57.975Z</time>
      </trkpt>
      <trkpt lat="47.222680" lon="10.905132">
        <ele>1272.997316</ele>
        <time>2026-07-21T14:19:58.977Z</time>
      </trkpt>
      <trkpt lat="47.222657" lon="10.904964">
        <ele>1272.071547</ele>
        <time>2026-07-21T14:19:59.977Z</time>
      </trkpt>
      <trkpt lat="47.222637" lon="10.904795">
        <ele>1271.144874</ele>
        <time>2026-07-21T14:20:00.979Z</time>
      </trkpt>
      <trkpt lat="47.222615" lon="10.904626">
        <ele>1270.215338</ele>
        <time>2026-07-21T14:20:01.976Z</time>
      </trkpt>
      <trkpt lat="47.222594" lon="10.904461">
        <ele>1269.308512</ele>
        <time>2026-07-21T14:20:02.977Z</time>
      </trkpt>
      <trkpt lat="47.222574" lon="10.904300">
        <ele>1268.424381</ele>
        <time>2026-07-21T14:20:03.984Z</time>
      </trkpt>
      <trkpt lat="47.222552" lon="10.904143">
        <ele>1267.558421</ele>
        <time>2026-07-21T14:20:04.974Z</time>
      </trkpt>
      <trkpt lat="47.222534" lon="10.903991">
        <ele>1266.724946</ele>
        <time>2026-07-21T14:20:05.973Z</time>
      </trkpt>
      <trkpt lat="47.222521" lon="10.903837">
        <ele>1265.883655</ele>
        <time>2026-07-21T14:20:06.975Z</time>
      </trkpt>
      <trkpt lat="47.222516" lon="10.903686">
        <ele>1265.014410</ele>
        <time>2026-07-21T14:20:07.980Z</time>
      </trkpt>
      <trkpt lat="47.222516" lon="10.903533">
        <ele>1264.134697</ele>
        <time>2026-07-21T14:20:08.983Z</time>
      </trkpt>
      <trkpt lat="47.222528" lon="10.903376">
        <ele>1263.226287</ele>
        <time>2026-07-21T14:20:09.977Z</time>
      </trkpt>
      <trkpt lat="47.222548" lon="10.903228">
        <ele>1262.358641</ele>
        <time>2026-07-21T14:20:10.976Z</time>
      </trkpt>
      <trkpt lat="47.222579" lon="10.903078">
        <ele>1261.457131</ele>
        <time>2026-07-21T14:20:11.975Z</time>
      </trkpt>
      <trkpt lat="47.222613" lon="10.902930">
        <ele>1260.558803</ele>
        <time>2026-07-21T14:20:12.977Z</time>
      </trkpt>
      <trkpt lat="47.222647" lon="10.902789">
        <ele>1259.698505</ele>
        <time>2026-07-21T14:20:13.988Z</time>
      </trkpt>
      <trkpt lat="47.222677" lon="10.902654">
        <ele>1258.881794</ele>
        <time>2026-07-21T14:20:14.979Z</time>
      </trkpt>
      <trkpt lat="47.222701" lon="10.902523">
        <ele>1258.101654</ele>
        <time>2026-07-21T14:20:15.977Z</time>
      </trkpt>
      <trkpt lat="47.222714" lon="10.902391">
        <ele>1257.334750</ele>
        <time>2026-07-21T14:20:16.976Z</time>
      </trkpt>
      <trkpt lat="47.222682" lon="10.902138">
        <ele>1255.855055</ele>
        <time>2026-07-21T14:20:18.980Z</time>
      </trkpt>
      <trkpt lat="47.222572" lon="10.901926">
        <ele>1254.321077</ele>
        <time>2026-07-21T14:20:20.981Z</time>
      </trkpt>
      <trkpt lat="47.222508" lon="10.901821">
        <ele>1253.509867</ele>
        <time>2026-07-21T14:20:21.979Z</time>
      </trkpt>
      <trkpt lat="47.222450" lon="10.901691">
        <ele>1252.615539</ele>
        <time>2026-07-21T14:20:22.980Z</time>
      </trkpt>
      <trkpt lat="47.222399" lon="10.901566">
        <ele>1251.777098</ele>
        <time>2026-07-21T14:20:23.975Z</time>
      </trkpt>
      <trkpt lat="47.222334" lon="10.901328">
        <ele>1250.177951</ele>
        <time>2026-07-21T14:20:25.976Z</time>
      </trkpt>
      <trkpt lat="47.222338" lon="10.901106">
        <ele>1248.508147</ele>
        <time>2026-07-21T14:20:27.975Z</time>
      </trkpt>
      <trkpt lat="47.222430" lon="10.900911">
        <ele>1246.722881</ele>
        <time>2026-07-21T14:20:29.977Z</time>
      </trkpt>
      <trkpt lat="47.222555" lon="10.900743">
        <ele>1244.849172</ele>
        <time>2026-07-21T14:20:31.975Z</time>
      </trkpt>
      <trkpt lat="47.222643" lon="10.900521">
        <ele>1242.916446</ele>
        <time>2026-07-21T14:20:33.974Z</time>
      </trkpt>
      <trkpt lat="47.222674" lon="10.900258">
        <ele>1240.909401</ele>
        <time>2026-07-21T14:20:35.980Z</time>
      </trkpt>
      <trkpt lat="47.222679" lon="10.900115">
        <ele>1239.832768</ele>
        <time>2026-07-21T14:20:36.975Z</time>
      </trkpt>
      <trkpt lat="47.222679" lon="10.899975">
        <ele>1238.780115</ele>
        <time>2026-07-21T14:20:37.977Z</time>
      </trkpt>
      <trkpt lat="47.222675" lon="10.899836">
        <ele>1237.734044</ele>
        <time>2026-07-21T14:20:38.973Z</time>
      </trkpt>
      <trkpt lat="47.222673" lon="10.899697">
        <ele>1236.688676</ele>
        <time>2026-07-21T14:20:39.981Z</time>
      </trkpt>
      <trkpt lat="47.222667" lon="10.899559">
        <ele>1235.648938</ele>
        <time>2026-07-21T14:20:40.973Z</time>
      </trkpt>
      <trkpt lat="47.222652" lon="10.899427">
        <ele>1234.642639</ele>
        <time>2026-07-21T14:20:41.976Z</time>
      </trkpt>
      <trkpt lat="47.222573" lon="10.899181">
        <ele>1232.596617</ele>
        <time>2026-07-21T14:20:43.977Z</time>
      </trkpt>
      <trkpt lat="47.222519" lon="10.899056">
        <ele>1231.482719</ele>
        <time>2026-07-21T14:20:44.973Z</time>
      </trkpt>
      <trkpt lat="47.222459" lon="10.898927">
        <ele>1230.314271</ele>
        <time>2026-07-21T14:20:45.971Z</time>
      </trkpt>
      <trkpt lat="47.222394" lon="10.898799">
        <ele>1229.130261</ele>
        <time>2026-07-21T14:20:46.981Z</time>
      </trkpt>
      <trkpt lat="47.222327" lon="10.898670">
        <ele>1227.927181</ele>
        <time>2026-07-21T14:20:47.973Z</time>
      </trkpt>
      <trkpt lat="47.222258" lon="10.898530">
        <ele>1226.645713</ele>
        <time>2026-07-21T14:20:48.981Z</time>
      </trkpt>
      <trkpt lat="47.222190" lon="10.898392">
        <ele>1225.382643</ele>
        <time>2026-07-21T14:20:49.976Z</time>
      </trkpt>
      <trkpt lat="47.222145" lon="10.898229">
        <ele>1224.079148</ele>
        <time>2026-07-21T14:20:50.975Z</time>
      </trkpt>
      <trkpt lat="47.222100" lon="10.898074">
        <ele>1222.830357</ele>
        <time>2026-07-21T14:20:51.973Z</time>
      </trkpt>
      <trkpt lat="47.222065" lon="10.897905">
        <ele>1221.521449</ele>
        <time>2026-07-21T14:20:52.980Z</time>
      </trkpt>
      <trkpt lat="47.222032" lon="10.897732">
        <ele>1220.190232</ele>
        <time>2026-07-21T14:20:53.978Z</time>
      </trkpt>
      <trkpt lat="47.222008" lon="10.897560">
        <ele>1218.889399</ele>
        <time>2026-07-21T14:20:54.978Z</time>
      </trkpt>
      <trkpt lat="47.221994" lon="10.897388">
        <ele>1217.606062</ele>
        <time>2026-07-21T14:20:55.972Z</time>
      </trkpt>
      <trkpt lat="47.221984" lon="10.897210">
        <ele>1216.282889</ele>
        <time>2026-07-21T14:20:56.977Z</time>
      </trkpt>
      <trkpt lat="47.221962" lon="10.897041">
        <ele>1215.008103</ele>
        <time>2026-07-21T14:20:57.980Z</time>
      </trkpt>
      <trkpt lat="47.221927" lon="10.896876">
        <ele>1213.727508</ele>
        <time>2026-07-21T14:20:58.979Z</time>
      </trkpt>
      <trkpt lat="47.221882" lon="10.896717">
        <ele>1212.451411</ele>
        <time>2026-07-21T14:20:59.977Z</time>
      </trkpt>
      <trkpt lat="47.221819" lon="10.896561">
        <ele>1211.131696</ele>
        <time>2026-07-21T14:21:00.975Z</time>
      </trkpt>
      <trkpt lat="47.221745" lon="10.896409">
        <ele>1210.264427</ele>
        <time>2026-07-21T14:21:01.983Z</time>
      </trkpt>
      <trkpt lat="47.221670" lon="10.896263">
        <ele>1209.415515</ele>
        <time>2026-07-21T14:21:02.976Z</time>
      </trkpt>
      <trkpt lat="47.221596" lon="10.896117">
        <ele>1208.570704</ele>
        <time>2026-07-21T14:21:03.976Z</time>
      </trkpt>
      <trkpt lat="47.221516" lon="10.895969">
        <ele>1207.693532</ele>
        <time>2026-07-21T14:21:04.981Z</time>
      </trkpt>
      <trkpt lat="47.221438" lon="10.895817">
        <ele>1206.810069</ele>
        <time>2026-07-21T14:21:05.973Z</time>
      </trkpt>
      <trkpt lat="47.221361" lon="10.895663">
        <ele>1205.923253</ele>
        <time>2026-07-21T14:21:06.978Z</time>
      </trkpt>
      <trkpt lat="47.221286" lon="10.895513">
        <ele>1205.059470</ele>
        <time>2026-07-21T14:21:07.980Z</time>
      </trkpt>
      <trkpt lat="47.221213" lon="10.895366">
        <ele>1204.214981</ele>
        <time>2026-07-21T14:21:08.983Z</time>
      </trkpt>
      <trkpt lat="47.221145" lon="10.895222">
        <ele>1203.401643</ele>
        <time>2026-07-21T14:21:09.975Z</time>
      </trkpt>
      <trkpt lat="47.221078" lon="10.895084">
        <ele>1202.614980</ele>
        <time>2026-07-21T14:21:10.976Z</time>
      </trkpt>
      <trkpt lat="47.221011" lon="10.894946">
        <ele>1201.828317</ele>
        <time>2026-07-21T14:21:11.984Z</time>
      </trkpt>
      <trkpt lat="47.220946" lon="10.894810">
        <ele>1201.057118</ele>
        <time>2026-07-21T14:21:12.973Z</time>
      </trkpt>
      <trkpt lat="47.220878" lon="10.894674">
        <ele>1200.273951</ele>
        <time>2026-07-21T14:21:13.978Z</time>
      </trkpt>
      <trkpt lat="47.220814" lon="10.894541">
        <ele>1199.518054</ele>
        <time>2026-07-21T14:21:14.977Z</time>
      </trkpt>
      <trkpt lat="47.220753" lon="10.894410">
        <ele>1198.772165</ele>
        <time>2026-07-21T14:21:15.974Z</time>
      </trkpt>
      <trkpt lat="47.220694" lon="10.894282">
        <ele>1197.994360</ele>
        <time>2026-07-21T14:21:16.981Z</time>
      </trkpt>
      <trkpt lat="47.220635" lon="10.894166">
        <ele>1197.265690</ele>
        <time>2026-07-21T14:21:17.973Z</time>
      </trkpt>
      <trkpt lat="47.220585" lon="10.894042">
        <ele>1196.540614</ele>
        <time>2026-07-21T14:21:18.974Z</time>
      </trkpt>
      <trkpt lat="47.220531" lon="10.893926">
        <ele>1195.833511</ele>
        <time>2026-07-21T14:21:19.973Z</time>
      </trkpt>
      <trkpt lat="47.220477" lon="10.893813">
        <ele>1195.138796</ele>
        <time>2026-07-21T14:21:20.975Z</time>
      </trkpt>
      <trkpt lat="47.220373" lon="10.893595">
        <ele>1193.799303</ele>
        <time>2026-07-21T14:21:22.976Z</time>
      </trkpt>
      <trkpt lat="47.220286" lon="10.893367">
        <ele>1192.484371</ele>
        <time>2026-07-21T14:21:24.976Z</time>
      </trkpt>
      <trkpt lat="47.220250" lon="10.893242">
        <ele>1191.801694</ele>
        <time>2026-07-21T14:21:25.974Z</time>
      </trkpt>
      <trkpt lat="47.220210" lon="10.893119">
        <ele>1191.116004</ele>
        <time>2026-07-21T14:21:26.976Z</time>
      </trkpt>
      <trkpt lat="47.220167" lon="10.892991">
        <ele>1190.397988</ele>
        <time>2026-07-21T14:21:27.975Z</time>
      </trkpt>
      <trkpt lat="47.220123" lon="10.892868">
        <ele>1189.698998</ele>
        <time>2026-07-21T14:21:28.976Z</time>
      </trkpt>
      <trkpt lat="47.220080" lon="10.892740">
        <ele>1188.980982</ele>
        <time>2026-07-21T14:21:29.984Z</time>
      </trkpt>
      <trkpt lat="47.220034" lon="10.892605">
        <ele>1188.221558</ele>
        <time>2026-07-21T14:21:30.981Z</time>
      </trkpt>
      <trkpt lat="47.219985" lon="10.892474">
        <ele>1187.469597</ele>
        <time>2026-07-21T14:21:31.972Z</time>
      </trkpt>
      <trkpt lat="47.219929" lon="10.892339">
        <ele>1186.674217</ele>
        <time>2026-07-21T14:21:32.977Z</time>
      </trkpt>
      <trkpt lat="47.219867" lon="10.892209">
        <ele>1185.875510</ele>
        <time>2026-07-21T14:21:33.979Z</time>
      </trkpt>
      <trkpt lat="47.219791" lon="10.892089">
        <ele>1184.806568</ele>
        <time>2026-07-21T14:21:34.977Z</time>
      </trkpt>
      <trkpt lat="47.219710" lon="10.891967">
        <ele>1183.550912</ele>
        <time>2026-07-21T14:21:35.975Z</time>
      </trkpt>
      <trkpt lat="47.219633" lon="10.891853">
        <ele>1182.367615</ele>
        <time>2026-07-21T14:21:36.981Z</time>
      </trkpt>
      <trkpt lat="47.219556" lon="10.891752">
        <ele>1181.250122</ele>
        <time>2026-07-21T14:21:37.982Z</time>
      </trkpt>
      <trkpt lat="47.219487" lon="10.891654">
        <ele>1180.211227</ele>
        <time>2026-07-21T14:21:38.975Z</time>
      </trkpt>
      <trkpt lat="47.219417" lon="10.891561">
        <ele>1179.189516</ele>
        <time>2026-07-21T14:21:39.974Z</time>
      </trkpt>
      <trkpt lat="47.219305" lon="10.891358">
        <ele>1177.264615</ele>
        <time>2026-07-21T14:21:41.974Z</time>
      </trkpt>
      <trkpt lat="47.219256" lon="10.891244">
        <ele>1176.271678</ele>
        <time>2026-07-21T14:21:42.976Z</time>
      </trkpt>
      <trkpt lat="47.219225" lon="10.891112">
        <ele>1175.243723</ele>
        <time>2026-07-21T14:21:43.975Z</time>
      </trkpt>
      <trkpt lat="47.219199" lon="10.890972">
        <ele>1174.175501</ele>
        <time>2026-07-21T14:21:44.974Z</time>
      </trkpt>
      <trkpt lat="47.219195" lon="10.890819">
        <ele>1173.048589</ele>
        <time>2026-07-21T14:21:45.972Z</time>
      </trkpt>
      <trkpt lat="47.219199" lon="10.890664">
        <ele>1171.906968</ele>
        <time>2026-07-21T14:21:46.976Z</time>
      </trkpt>
      <trkpt lat="47.219207" lon="10.890506">
        <ele>1170.740864</ele>
        <time>2026-07-21T14:21:47.982Z</time>
      </trkpt>
      <trkpt lat="47.219217" lon="10.890351">
        <ele>1169.594932</ele>
        <time>2026-07-21T14:21:48.974Z</time>
      </trkpt>
      <trkpt lat="47.219216" lon="10.890192">
        <ele>1168.424644</ele>
        <time>2026-07-21T14:21:49.984Z</time>
      </trkpt>
      <trkpt lat="47.219206" lon="10.890045">
        <ele>1167.337314</ele>
        <time>2026-07-21T14:21:50.974Z</time>
      </trkpt>
      <trkpt lat="47.219183" lon="10.889900">
        <ele>1166.241399</ele>
        <time>2026-07-21T14:21:51.976Z</time>
      </trkpt>
      <trkpt lat="47.219153" lon="10.889751">
        <ele>1164.779872</ele>
        <time>2026-07-21T14:21:52.977Z</time>
      </trkpt>
      <trkpt lat="47.219100" lon="10.889609">
        <ele>1163.203956</ele>
        <time>2026-07-21T14:21:53.979Z</time>
      </trkpt>
      <trkpt lat="47.219047" lon="10.889457">
        <ele>1161.542139</ele>
        <time>2026-07-21T14:21:54.983Z</time>
      </trkpt>
      <trkpt lat="47.218990" lon="10.889303">
        <ele>1159.836336</ele>
        <time>2026-07-21T14:21:55.977Z</time>
      </trkpt>
      <trkpt lat="47.218927" lon="10.889133">
        <ele>1157.952771</ele>
        <time>2026-07-21T14:21:56.976Z</time>
      </trkpt>
      <trkpt lat="47.218868" lon="10.888973">
        <ele>1156.182016</ele>
        <time>2026-07-21T14:21:57.973Z</time>
      </trkpt>
      <trkpt lat="47.218802" lon="10.888814">
        <ele>1154.369605</ele>
        <time>2026-07-21T14:21:58.974Z</time>
      </trkpt>
      <trkpt lat="47.218736" lon="10.888661">
        <ele>1152.606724</ele>
        <time>2026-07-21T14:21:59.979Z</time>
      </trkpt>
      <trkpt lat="47.218663" lon="10.888511">
        <ele>1150.811928</ele>
        <time>2026-07-21T14:22:00.981Z</time>
      </trkpt>
      <trkpt lat="47.218586" lon="10.888370">
        <ele>1149.052218</ele>
        <time>2026-07-21T14:22:01.975Z</time>
      </trkpt>
      <trkpt lat="47.218516" lon="10.888229">
        <ele>1147.353520</ele>
        <time>2026-07-21T14:22:02.982Z</time>
      </trkpt>
      <trkpt lat="47.218441" lon="10.888086">
        <ele>1145.596254</ele>
        <time>2026-07-21T14:22:03.976Z</time>
      </trkpt>
      <trkpt lat="47.218373" lon="10.887932">
        <ele>1143.809699</ele>
        <time>2026-07-21T14:22:04.975Z</time>
      </trkpt>
      <trkpt lat="47.218311" lon="10.887767">
        <ele>1141.975635</ele>
        <time>2026-07-21T14:22:05.976Z</time>
      </trkpt>
      <trkpt lat="47.218254" lon="10.887603">
        <ele>1140.228582</ele>
        <time>2026-07-21T14:22:06.979Z</time>
      </trkpt>
      <trkpt lat="47.218208" lon="10.887441">
        <ele>1139.047174</ele>
        <time>2026-07-21T14:22:07.977Z</time>
      </trkpt>
      <trkpt lat="47.218158" lon="10.887286">
        <ele>1137.892638</ele>
        <time>2026-07-21T14:22:08.983Z</time>
      </trkpt>
      <trkpt lat="47.218113" lon="10.887149">
        <ele>1136.868724</ele>
        <time>2026-07-21T14:22:09.975Z</time>
      </trkpt>
      <trkpt lat="47.218061" lon="10.887019">
        <ele>1135.853627</ele>
        <time>2026-07-21T14:22:10.976Z</time>
      </trkpt>
      <trkpt lat="47.218012" lon="10.886906">
        <ele>1134.951587</ele>
        <time>2026-07-21T14:22:11.977Z</time>
      </trkpt>
      <trkpt lat="47.217954" lon="10.886795">
        <ele>1134.009304</ele>
        <time>2026-07-21T14:22:12.972Z</time>
      </trkpt>
      <trkpt lat="47.217894" lon="10.886676">
        <ele>1133.012130</ele>
        <time>2026-07-21T14:22:13.977Z</time>
      </trkpt>
      <trkpt lat="47.217831" lon="10.886553">
        <ele>1131.975602</ele>
        <time>2026-07-21T14:22:14.983Z</time>
      </trkpt>
      <trkpt lat="47.217762" lon="10.886440">
        <ele>1130.953216</ele>
        <time>2026-07-21T14:22:15.983Z</time>
      </trkpt>
      <trkpt lat="47.217694" lon="10.886323">
        <ele>1129.917128</ele>
        <time>2026-07-21T14:22:16.973Z</time>
      </trkpt>
      <trkpt lat="47.217616" lon="10.886214">
        <ele>1128.851809</ele>
        <time>2026-07-21T14:22:17.984Z</time>
      </trkpt>
      <trkpt lat="47.217529" lon="10.886112">
        <ele>1127.750100</ele>
        <time>2026-07-21T14:22:18.977Z</time>
      </trkpt>
      <trkpt lat="47.217431" lon="10.886031">
        <ele>1126.636779</ele>
        <time>2026-07-21T14:22:19.977Z</time>
      </trkpt>
      <trkpt lat="47.217328" lon="10.885956">
        <ele>1125.498476</ele>
        <time>2026-07-21T14:22:20.981Z</time>
      </trkpt>
      <trkpt lat="47.217224" lon="10.885884">
        <ele>1124.360019</ele>
        <time>2026-07-21T14:22:21.978Z</time>
      </trkpt>
      <trkpt lat="47.217122" lon="10.885808">
        <ele>1123.227564</ele>
        <time>2026-07-21T14:22:22.977Z</time>
      </trkpt>
      <trkpt lat="47.217028" lon="10.885716">
        <ele>1122.389660</ele>
        <time>2026-07-21T14:22:23.973Z</time>
      </trkpt>
      <trkpt lat="47.216946" lon="10.885615">
        <ele>1122.068824</ele>
        <time>2026-07-21T14:22:24.973Z</time>
      </trkpt>
      <trkpt lat="47.216877" lon="10.885506">
        <ele>1121.765116</ele>
        <time>2026-07-21T14:22:25.981Z</time>
      </trkpt>
      <trkpt lat="47.216818" lon="10.885388">
        <ele>1121.466454</ele>
        <time>2026-07-21T14:22:26.975Z</time>
      </trkpt>
      <trkpt lat="47.216776" lon="10.885259">
        <ele>1121.174864</ele>
        <time>2026-07-21T14:22:27.982Z</time>
      </trkpt>
      <trkpt lat="47.216743" lon="10.885134">
        <ele>1120.901505</ele>
        <time>2026-07-21T14:22:28.976Z</time>
      </trkpt>
      <trkpt lat="47.216716" lon="10.885004">
        <ele>1120.624412</ele>
        <time>2026-07-21T14:22:29.981Z</time>
      </trkpt>
      <trkpt lat="47.216696" lon="10.884763">
        <ele>1120.129524</ele>
        <time>2026-07-21T14:22:31.981Z</time>
      </trkpt>
      <trkpt lat="47.216695" lon="10.884526">
        <ele>1119.646432</ele>
        <time>2026-07-21T14:22:33.976Z</time>
      </trkpt>
      <trkpt lat="47.216705" lon="10.884317">
        <ele>1119.219367</ele>
        <time>2026-07-21T14:22:35.977Z</time>
      </trkpt>
      <trkpt lat="47.216734" lon="10.884109">
        <ele>1118.786557</ele>
        <time>2026-07-21T14:22:37.976Z</time>
      </trkpt>
      <trkpt lat="47.216791" lon="10.883913">
        <ele>1118.351967</ele>
        <time>2026-07-21T14:22:39.983Z</time>
      </trkpt>
      <trkpt lat="47.216879" lon="10.883748">
        <ele>1117.924355</ele>
        <time>2026-07-21T14:22:41.982Z</time>
      </trkpt>
      <trkpt lat="47.216969" lon="10.883555">
        <ele>1117.447171</ele>
        <time>2026-07-21T14:22:43.974Z</time>
      </trkpt>
      <trkpt lat="47.217027" lon="10.883332">
        <ele>1116.562379</ele>
        <time>2026-07-21T14:22:45.978Z</time>
      </trkpt>
      <trkpt lat="47.217029" lon="10.883098">
        <ele>1114.847520</ele>
        <time>2026-07-21T14:22:47.985Z</time>
      </trkpt>
      <trkpt lat="47.216959" lon="10.882850">
        <ele>1112.879534</ele>
        <time>2026-07-21T14:22:49.978Z</time>
      </trkpt>
      <trkpt lat="47.216908" lon="10.882730">
        <ele>1111.842233</ele>
        <time>2026-07-21T14:22:50.974Z</time>
      </trkpt>
      <trkpt lat="47.216857" lon="10.882608">
        <ele>1110.792479</ele>
        <time>2026-07-21T14:22:51.981Z</time>
      </trkpt>
      <trkpt lat="47.216812" lon="10.882484">
        <ele>1109.762254</ele>
        <time>2026-07-21T14:22:52.974Z</time>
      </trkpt>
      <trkpt lat="47.216770" lon="10.882353">
        <ele>1108.700729</ele>
        <time>2026-07-21T14:22:53.975Z</time>
      </trkpt>
      <trkpt lat="47.216736" lon="10.882216">
        <ele>1107.631890</ele>
        <time>2026-07-21T14:22:54.977Z</time>
      </trkpt>
      <trkpt lat="47.216703" lon="10.882079">
        <ele>1106.566705</ele>
        <time>2026-07-21T14:22:55.979Z</time>
      </trkpt>
      <trkpt lat="47.216674" lon="10.881947">
        <ele>1105.550078</ele>
        <time>2026-07-21T14:22:56.973Z</time>
      </trkpt>
      <trkpt lat="47.216643" lon="10.881694">
        <ele>1103.666186</ele>
        <time>2026-07-21T14:22:58.980Z</time>
      </trkpt>
      <trkpt lat="47.216642" lon="10.881431">
        <ele>1101.738910</ele>
        <time>2026-07-21T14:23:00.976Z</time>
      </trkpt>
      <trkpt lat="47.216666" lon="10.881294">
        <ele>1100.702130</ele>
        <time>2026-07-21T14:23:01.981Z</time>
      </trkpt>
      <trkpt lat="47.216731" lon="10.881069">
        <ele>1098.910413</ele>
        <time>2026-07-21T14:23:03.981Z</time>
      </trkpt>
      <trkpt lat="47.216822" lon="10.880912">
        <ele>1097.365541</ele>
        <time>2026-07-21T14:23:05.975Z</time>
      </trkpt>
      <trkpt lat="47.216960" lon="10.880829">
        <ele>1095.589539</ele>
        <time>2026-07-21T14:23:07.982Z</time>
      </trkpt>
      <trkpt lat="47.217086" lon="10.880748">
        <ele>1093.951540</ele>
        <time>2026-07-21T14:23:09.980Z</time>
      </trkpt>
      <trkpt lat="47.217179" lon="10.880590">
        <ele>1092.259702</ele>
        <time>2026-07-21T14:23:11.978Z</time>
      </trkpt>
      <trkpt lat="47.217179" lon="10.880359">
        <ele>1090.390428</ele>
        <time>2026-07-21T14:23:13.969Z</time>
      </trkpt>
      <trkpt lat="47.217146" lon="10.880100">
        <ele>1088.258019</ele>
        <time>2026-07-21T14:23:15.975Z</time>
      </trkpt>
      <trkpt lat="47.217130" lon="10.879965">
        <ele>1087.149079</ele>
        <time>2026-07-21T14:23:16.972Z</time>
      </trkpt>
      <trkpt lat="47.217091" lon="10.879717">
        <ele>1085.089152</ele>
        <time>2026-07-21T14:23:18.976Z</time>
      </trkpt>
      <trkpt lat="47.217050" lon="10.879485">
        <ele>1083.149277</ele>
        <time>2026-07-21T14:23:20.981Z</time>
      </trkpt>
      <trkpt lat="47.217050" lon="10.879276">
        <ele>1081.458026</ele>
        <time>2026-07-21T14:23:22.973Z</time>
      </trkpt>
      <trkpt lat="47.217081" lon="10.879079">
        <ele>1079.821657</ele>
        <time>2026-07-21T14:23:24.978Z</time>
      </trkpt>
      <trkpt lat="47.217159" lon="10.878891">
        <ele>1078.038976</ele>
        <time>2026-07-21T14:23:26.977Z</time>
      </trkpt>
      <trkpt lat="47.217281" lon="10.878714">
        <ele>1076.032585</ele>
        <time>2026-07-21T14:23:28.972Z</time>
      </trkpt>
      <trkpt lat="47.217349" lon="10.878624">
        <ele>1075.075426</ele>
        <time>2026-07-21T14:23:29.977Z</time>
      </trkpt>
      <trkpt lat="47.217477" lon="10.878446">
        <ele>1073.232335</ele>
        <time>2026-07-21T14:23:31.975Z</time>
      </trkpt>
      <trkpt lat="47.217581" lon="10.878298">
        <ele>1071.718248</ele>
        <time>2026-07-21T14:23:33.973Z</time>
      </trkpt>
      <trkpt lat="47.217611" lon="10.878146">
        <ele>1070.592834</ele>
        <time>2026-07-21T14:23:35.980Z</time>
      </trkpt>
      <trkpt lat="47.217566" lon="10.878011">
        <ele>1069.523632</ele>
        <time>2026-07-21T14:23:37.978Z</time>
      </trkpt>
      <trkpt lat="47.217460" lon="10.877942">
        <ele>1068.310422</ele>
        <time>2026-07-21T14:23:39.981Z</time>
      </trkpt>
      <trkpt lat="47.217333" lon="10.877983">
        <ele>1066.949417</ele>
        <time>2026-07-21T14:23:41.971Z</time>
      </trkpt>
      <trkpt lat="47.217199" lon="10.878083">
        <ele>1065.376815</ele>
        <time>2026-07-21T14:23:43.979Z</time>
      </trkpt>
      <trkpt lat="47.217071" lon="10.878225">
        <ele>1063.699127</ele>
        <time>2026-07-21T14:23:45.971Z</time>
      </trkpt>
      <trkpt lat="47.216957" lon="10.878415">
        <ele>1061.896628</ele>
        <time>2026-07-21T14:23:47.972Z</time>
      </trkpt>
      <trkpt lat="47.216897" lon="10.878524">
        <ele>1060.899085</ele>
        <time>2026-07-21T14:23:48.972Z</time>
      </trkpt>
      <trkpt lat="47.216837" lon="10.878647">
        <ele>1059.822383</ele>
        <time>2026-07-21T14:23:49.972Z</time>
      </trkpt>
      <trkpt lat="47.216774" lon="10.878772">
        <ele>1058.715677</ele>
        <time>2026-07-21T14:23:50.970Z</time>
      </trkpt>
      <trkpt lat="47.216710" lon="10.878899">
        <ele>1057.591312</ele>
        <time>2026-07-21T14:23:51.977Z</time>
      </trkpt>
      <trkpt lat="47.216649" lon="10.879017">
        <ele>1056.465715</ele>
        <time>2026-07-21T14:23:52.979Z</time>
      </trkpt>
      <trkpt lat="47.216590" lon="10.879139">
        <ele>1055.317991</ele>
        <time>2026-07-21T14:23:53.982Z</time>
      </trkpt>
      <trkpt lat="47.216528" lon="10.879260">
        <ele>1054.156436</ele>
        <time>2026-07-21T14:23:54.972Z</time>
      </trkpt>
      <trkpt lat="47.216465" lon="10.879390">
        <ele>1052.932591</ele>
        <time>2026-07-21T14:23:55.977Z</time>
      </trkpt>
      <trkpt lat="47.216396" lon="10.879513">
        <ele>1051.710048</ele>
        <time>2026-07-21T14:23:56.975Z</time>
      </trkpt>
      <trkpt lat="47.216327" lon="10.879647">
        <ele>1050.421389</ele>
        <time>2026-07-21T14:23:57.978Z</time>
      </trkpt>
      <trkpt lat="47.216264" lon="10.879776">
        <ele>1049.203771</ele>
        <time>2026-07-21T14:23:58.975Z</time>
      </trkpt>
      <trkpt lat="47.216203" lon="10.879900">
        <ele>1048.030429</ele>
        <time>2026-07-21T14:23:59.981Z</time>
      </trkpt>
      <trkpt lat="47.216138" lon="10.880022">
        <ele>1046.842154</ele>
        <time>2026-07-21T14:24:00.974Z</time>
      </trkpt>
      <trkpt lat="47.216076" lon="10.880144">
        <ele>1045.674465</ele>
        <time>2026-07-21T14:24:01.971Z</time>
      </trkpt>
      <trkpt lat="47.216012" lon="10.880271">
        <ele>1044.462566</ele>
        <time>2026-07-21T14:24:02.978Z</time>
      </trkpt>
      <trkpt lat="47.215945" lon="10.880398">
        <ele>1043.230198</ele>
        <time>2026-07-21T14:24:03.975Z</time>
      </trkpt>
      <trkpt lat="47.215885" lon="10.880511">
        <ele>1042.131006</ele>
        <time>2026-07-21T14:24:04.973Z</time>
      </trkpt>
      <trkpt lat="47.215820" lon="10.880618">
        <ele>1041.030886</ele>
        <time>2026-07-21T14:24:05.973Z</time>
      </trkpt>
      <trkpt lat="47.215744" lon="10.880722">
        <ele>1039.860189</ele>
        <time>2026-07-21T14:24:06.975Z</time>
      </trkpt>
      <trkpt lat="47.215661" lon="10.880809">
        <ele>1038.710618</ele>
        <time>2026-07-21T14:24:07.980Z</time>
      </trkpt>
      <trkpt lat="47.215571" lon="10.880901">
        <ele>1037.474397</ele>
        <time>2026-07-21T14:24:08.975Z</time>
      </trkpt>
      <trkpt lat="47.215471" lon="10.880970">
        <ele>1036.285398</ele>
        <time>2026-07-21T14:24:09.978Z</time>
      </trkpt>
      <trkpt lat="47.215378" lon="10.881041">
        <ele>1035.175884</ele>
        <time>2026-07-21T14:24:10.981Z</time>
      </trkpt>
      <trkpt lat="47.215290" lon="10.881109">
        <ele>1034.123303</ele>
        <time>2026-07-21T14:24:11.974Z</time>
      </trkpt>
      <trkpt lat="47.215199" lon="10.881165">
        <ele>1033.078718</ele>
        <time>2026-07-21T14:24:12.977Z</time>
      </trkpt>
      <trkpt lat="47.215109" lon="10.881194">
        <ele>1032.102970</ele>
        <time>2026-07-21T14:24:13.976Z</time>
      </trkpt>
      <trkpt lat="47.215013" lon="10.881211">
        <ele>1031.078910</ele>
        <time>2026-07-21T14:24:14.976Z</time>
      </trkpt>
      <trkpt lat="47.214912" lon="10.881201">
        <ele>1030.006808</ele>
        <time>2026-07-21T14:24:15.977Z</time>
      </trkpt>
      <trkpt lat="47.214812" lon="10.881168">
        <ele>1028.921433</ele>
        <time>2026-07-21T14:24:16.977Z</time>
      </trkpt>
      <trkpt lat="47.214716" lon="10.881106">
        <ele>1027.811173</ele>
        <time>2026-07-21T14:24:17.974Z</time>
      </trkpt>
      <trkpt lat="47.214629" lon="10.881027">
        <ele>1026.728589</ele>
        <time>2026-07-21T14:24:18.979Z</time>
      </trkpt>
      <trkpt lat="47.214546" lon="10.880943">
        <ele>1025.661867</ele>
        <time>2026-07-21T14:24:19.973Z</time>
      </trkpt>
      <trkpt lat="47.214467" lon="10.880861">
        <ele>1024.638135</ele>
        <time>2026-07-21T14:24:20.972Z</time>
      </trkpt>
      <trkpt lat="47.214391" lon="10.880777">
        <ele>1023.631629</ele>
        <time>2026-07-21T14:24:21.975Z</time>
      </trkpt>
      <trkpt lat="47.214318" lon="10.880695">
        <ele>1022.659141</ele>
        <time>2026-07-21T14:24:22.978Z</time>
      </trkpt>
      <trkpt lat="47.214184" lon="10.880565">
        <ele>1020.959516</ele>
        <time>2026-07-21T14:24:24.974Z</time>
      </trkpt>
      <trkpt lat="47.214043" lon="10.880497">
        <ele>1019.388108</ele>
        <time>2026-07-21T14:24:26.969Z</time>
      </trkpt>
      <trkpt lat="47.213887" lon="10.880513">
        <ele>1017.968406</ele>
        <time>2026-07-21T14:24:28.974Z</time>
      </trkpt>
      <trkpt lat="47.213727" lon="10.880572">
        <ele>1017.315953</ele>
        <time>2026-07-21T14:24:30.982Z</time>
      </trkpt>
      <trkpt lat="47.213567" lon="10.880606">
        <ele>1016.676492</ele>
        <time>2026-07-21T14:24:32.974Z</time>
      </trkpt>
      <trkpt lat="47.213401" lon="10.880618">
        <ele>1016.019066</ele>
        <time>2026-07-21T14:24:34.979Z</time>
      </trkpt>
      <trkpt lat="47.213241" lon="10.880621">
        <ele>1015.386113</ele>
        <time>2026-07-21T14:24:36.976Z</time>
      </trkpt>
      <trkpt lat="47.213090" lon="10.880631">
        <ele>1014.788208</ele>
        <time>2026-07-21T14:24:38.976Z</time>
      </trkpt>
      <trkpt lat="47.212947" lon="10.880639">
        <ele>1014.222144</ele>
        <time>2026-07-21T14:24:40.979Z</time>
      </trkpt>
      <trkpt lat="47.212808" lon="10.880597">
        <ele>1013.660849</ele>
        <time>2026-07-21T14:24:42.975Z</time>
      </trkpt>
      <trkpt lat="47.212703" lon="10.880452">
        <ele>1013.091370</ele>
        <time>2026-07-21T14:24:44.977Z</time>
      </trkpt>
      <trkpt lat="47.212638" lon="10.880247">
        <ele>1012.483486</ele>
        <time>2026-07-21T14:24:46.978Z</time>
      </trkpt>
      <trkpt lat="47.212583" lon="10.880032">
        <ele>1011.866177</ele>
        <time>2026-07-21T14:24:48.969Z</time>
      </trkpt>
      <trkpt lat="47.212524" lon="10.879853">
        <ele>1011.331574</ele>
        <time>2026-07-21T14:24:50.981Z</time>
      </trkpt>
      <trkpt lat="47.212446" lon="10.879722">
        <ele>1010.739719</ele>
        <time>2026-07-21T14:24:52.975Z</time>
      </trkpt>
      <trkpt lat="47.212351" lon="10.879656">
        <ele>1009.931932</ele>
        <time>2026-07-21T14:24:54.976Z</time>
      </trkpt>
      <trkpt lat="47.212252" lon="10.879602">
        <ele>1009.120071</ele>
        <time>2026-07-21T14:24:56.981Z</time>
      </trkpt>
      <trkpt lat="47.212146" lon="10.879546">
        <ele>1008.254060</ele>
        <time>2026-07-21T14:24:58.975Z</time>
      </trkpt>
      <trkpt lat="47.212022" lon="10.879496">
        <ele>1007.265410</ele>
        <time>2026-07-21T14:25:00.973Z</time>
      </trkpt>
      <trkpt lat="47.211888" lon="10.879434">
        <ele>1006.185289</ele>
        <time>2026-07-21T14:25:02.978Z</time>
      </trkpt>
      <trkpt lat="47.211741" lon="10.879407">
        <ele>1005.046133</ele>
        <time>2026-07-21T14:25:04.973Z</time>
      </trkpt>
      <trkpt lat="47.211600" lon="10.879469">
        <ele>1003.914545</ele>
        <time>2026-07-21T14:25:06.979Z</time>
      </trkpt>
      <trkpt lat="47.211457" lon="10.879617">
        <ele>1002.570349</ele>
        <time>2026-07-21T14:25:08.975Z</time>
      </trkpt>
      <trkpt lat="47.211380" lon="10.879694">
        <ele>1001.854546</ele>
        <time>2026-07-21T14:25:09.974Z</time>
      </trkpt>
      <trkpt lat="47.211286" lon="10.879775">
        <ele>1001.016981</ele>
        <time>2026-07-21T14:25:10.973Z</time>
      </trkpt>
      <trkpt lat="47.211196" lon="10.879851">
        <ele>1000.219124</ele>
        <time>2026-07-21T14:25:11.970Z</time>
      </trkpt>
      <trkpt lat="47.211103" lon="10.879911">
        <ele>999.438314</ele>
        <time>2026-07-21T14:25:12.971Z</time>
      </trkpt>
      <trkpt lat="47.211005" lon="10.879970">
        <ele>998.624135</ele>
        <time>2026-07-21T14:25:13.974Z</time>
      </trkpt>
      <trkpt lat="47.210908" lon="10.880037">
        <ele>997.800203</ele>
        <time>2026-07-21T14:25:14.976Z</time>
      </trkpt>
      <trkpt lat="47.210811" lon="10.880099">
        <ele>996.914066</ele>
        <time>2026-07-21T14:25:15.982Z</time>
      </trkpt>
      <trkpt lat="47.210727" lon="10.880147">
        <ele>995.934754</ele>
        <time>2026-07-21T14:25:16.977Z</time>
      </trkpt>
      <trkpt lat="47.210638" lon="10.880189">
        <ele>994.918982</ele>
        <time>2026-07-21T14:25:17.977Z</time>
      </trkpt>
      <trkpt lat="47.210546" lon="10.880229">
        <ele>993.876391</ele>
        <time>2026-07-21T14:25:18.973Z</time>
      </trkpt>
      <trkpt lat="47.210458" lon="10.880291">
        <ele>992.816078</ele>
        <time>2026-07-21T14:25:19.973Z</time>
      </trkpt>
      <trkpt lat="47.210371" lon="10.880369">
        <ele>991.708968</ele>
        <time>2026-07-21T14:25:20.980Z</time>
      </trkpt>
      <trkpt lat="47.210291" lon="10.880466">
        <ele>990.582536</ele>
        <time>2026-07-21T14:25:21.978Z</time>
      </trkpt>
      <trkpt lat="47.210210" lon="10.880575">
        <ele>989.389802</ele>
        <time>2026-07-21T14:25:22.975Z</time>
      </trkpt>
      <trkpt lat="47.210127" lon="10.880689">
        <ele>988.156053</ele>
        <time>2026-07-21T14:25:23.974Z</time>
      </trkpt>
      <trkpt lat="47.210053" lon="10.880807">
        <ele>986.970381</ele>
        <time>2026-07-21T14:25:24.977Z</time>
      </trkpt>
      <trkpt lat="47.209990" lon="10.880926">
        <ele>985.856501</ele>
        <time>2026-07-21T14:25:25.979Z</time>
      </trkpt>
      <trkpt lat="47.209940" lon="10.881052">
        <ele>984.779146</ele>
        <time>2026-07-21T14:25:26.980Z</time>
      </trkpt>
      <trkpt lat="47.209905" lon="10.881183">
        <ele>983.739851</ele>
        <time>2026-07-21T14:25:27.972Z</time>
      </trkpt>
      <trkpt lat="47.209880" lon="10.881321">
        <ele>982.685382</ele>
        <time>2026-07-21T14:25:28.975Z</time>
      </trkpt>
      <trkpt lat="47.209869" lon="10.881467">
        <ele>981.600847</ele>
        <time>2026-07-21T14:25:29.975Z</time>
      </trkpt>
      <trkpt lat="47.209870" lon="10.881618">
        <ele>980.485953</ele>
        <time>2026-07-21T14:25:30.981Z</time>
      </trkpt>
      <trkpt lat="47.209882" lon="10.881771">
        <ele>979.348842</ele>
        <time>2026-07-21T14:25:31.973Z</time>
      </trkpt>
      <trkpt lat="47.209902" lon="10.881930">
        <ele>978.154982</ele>
        <time>2026-07-21T14:25:32.976Z</time>
      </trkpt>
      <trkpt lat="47.209919" lon="10.882087">
        <ele>977.108305</ele>
        <time>2026-07-21T14:25:33.980Z</time>
      </trkpt>
      <trkpt lat="47.209940" lon="10.882238">
        <ele>976.198473</ele>
        <time>2026-07-21T14:25:34.974Z</time>
      </trkpt>
      <trkpt lat="47.209962" lon="10.882385">
        <ele>975.309933</ele>
        <time>2026-07-21T14:25:35.975Z</time>
      </trkpt>
      <trkpt lat="47.209975" lon="10.882531">
        <ele>974.440733</ele>
        <time>2026-07-21T14:25:36.975Z</time>
      </trkpt>
      <trkpt lat="47.209977" lon="10.882675">
        <ele>973.590533</ele>
        <time>2026-07-21T14:25:37.980Z</time>
      </trkpt>
      <trkpt lat="47.209956" lon="10.882817">
        <ele>972.732683</ele>
        <time>2026-07-21T14:25:38.973Z</time>
      </trkpt>
      <trkpt lat="47.209914" lon="10.882952">
        <ele>971.856189</ele>
        <time>2026-07-21T14:25:39.978Z</time>
      </trkpt>
      <trkpt lat="47.209854" lon="10.883075">
        <ele>970.962323</ele>
        <time>2026-07-21T14:25:40.977Z</time>
      </trkpt>
      <trkpt lat="47.209782" lon="10.883186">
        <ele>970.056366</ele>
        <time>2026-07-21T14:25:41.975Z</time>
      </trkpt>
      <trkpt lat="47.209700" lon="10.883290">
        <ele>969.115834</ele>
        <time>2026-07-21T14:25:42.978Z</time>
      </trkpt>
      <trkpt lat="47.209612" lon="10.883396">
        <ele>968.127777</ele>
        <time>2026-07-21T14:25:43.982Z</time>
      </trkpt>
      <trkpt lat="47.209524" lon="10.883505">
        <ele>967.128411</ele>
        <time>2026-07-21T14:25:44.973Z</time>
      </trkpt>
      <trkpt lat="47.209436" lon="10.883618">
        <ele>966.113682</ele>
        <time>2026-07-21T14:25:45.971Z</time>
      </trkpt>
      <trkpt lat="47.209351" lon="10.883718">
        <ele>965.168165</ele>
        <time>2026-07-21T14:25:46.978Z</time>
      </trkpt>
      <trkpt lat="47.209270" lon="10.883814">
        <ele>964.264535</ele>
        <time>2026-07-21T14:25:47.986Z</time>
      </trkpt>
      <trkpt lat="47.209196" lon="10.883903">
        <ele>963.434176</ele>
        <time>2026-07-21T14:25:48.976Z</time>
      </trkpt>
      <trkpt lat="47.209127" lon="10.883995">
        <ele>962.625208</ele>
        <time>2026-07-21T14:25:49.983Z</time>
      </trkpt>
      <trkpt lat="47.209060" lon="10.884085">
        <ele>961.814544</ele>
        <time>2026-07-21T14:25:50.980Z</time>
      </trkpt>
      <trkpt lat="47.208996" lon="10.884189">
        <ele>960.860887</ele>
        <time>2026-07-21T14:25:51.974Z</time>
      </trkpt>
      <trkpt lat="47.208941" lon="10.884308">
        <ele>959.882743</ele>
        <time>2026-07-21T14:25:52.979Z</time>
      </trkpt>
      <trkpt lat="47.208898" lon="10.884437">
        <ele>958.906211</ele>
        <time>2026-07-21T14:25:53.975Z</time>
      </trkpt>
      <trkpt lat="47.208861" lon="10.884581">
        <ele>957.859930</ele>
        <time>2026-07-21T14:25:54.982Z</time>
      </trkpt>
      <trkpt lat="47.208833" lon="10.884731">
        <ele>956.802750</ele>
        <time>2026-07-21T14:25:55.978Z</time>
      </trkpt>
      <trkpt lat="47.208810" lon="10.884892">
        <ele>955.684666</ele>
        <time>2026-07-21T14:25:56.982Z</time>
      </trkpt>
      <trkpt lat="47.208799" lon="10.885054">
        <ele>954.578231</ele>
        <time>2026-07-21T14:25:57.980Z</time>
      </trkpt>
      <trkpt lat="47.208794" lon="10.885211">
        <ele>953.510090</ele>
        <time>2026-07-21T14:25:58.972Z</time>
      </trkpt>
      <trkpt lat="47.208788" lon="10.885357">
        <ele>952.516063</ele>
        <time>2026-07-21T14:25:59.978Z</time>
      </trkpt>
      <trkpt lat="47.208789" lon="10.885492">
        <ele>951.598551</ele>
        <time>2026-07-21T14:26:00.983Z</time>
      </trkpt>
      <trkpt lat="47.208801" lon="10.885745">
        <ele>949.874982</ele>
        <time>2026-07-21T14:26:02.975Z</time>
      </trkpt>
      <trkpt lat="47.208859" lon="10.885990">
        <ele>948.111764</ele>
        <time>2026-07-21T14:26:04.980Z</time>
      </trkpt>
      <trkpt lat="47.208907" lon="10.886110">
        <ele>947.165376</ele>
        <time>2026-07-21T14:26:05.970Z</time>
      </trkpt>
      <trkpt lat="47.208966" lon="10.886228">
        <ele>946.169657</ele>
        <time>2026-07-21T14:26:06.976Z</time>
      </trkpt>
      <trkpt lat="47.209032" lon="10.886347">
        <ele>945.125640</ele>
        <time>2026-07-21T14:26:07.974Z</time>
      </trkpt>
      <trkpt lat="47.209095" lon="10.886471">
        <ele>944.073331</ele>
        <time>2026-07-21T14:26:08.976Z</time>
      </trkpt>
      <trkpt lat="47.209165" lon="10.886602">
        <ele>943.037506</ele>
        <time>2026-07-21T14:26:09.975Z</time>
      </trkpt>
      <trkpt lat="47.209233" lon="10.886735">
        <ele>942.010452</ele>
        <time>2026-07-21T14:26:10.977Z</time>
      </trkpt>
      <trkpt lat="47.209295" lon="10.886873">
        <ele>940.989631</ele>
        <time>2026-07-21T14:26:11.973Z</time>
      </trkpt>
      <trkpt lat="47.209344" lon="10.887010">
        <ele>940.034346</ele>
        <time>2026-07-21T14:26:12.978Z</time>
      </trkpt>
      <trkpt lat="47.209390" lon="10.887155">
        <ele>939.046955</ele>
        <time>2026-07-21T14:26:13.974Z</time>
      </trkpt>
      <trkpt lat="47.209436" lon="10.887297">
        <ele>938.076305</ele>
        <time>2026-07-21T14:26:14.978Z</time>
      </trkpt>
      <trkpt lat="47.209482" lon="10.887431">
        <ele>937.149965</ele>
        <time>2026-07-21T14:26:15.979Z</time>
      </trkpt>
      <trkpt lat="47.209522" lon="10.887563">
        <ele>936.258176</ele>
        <time>2026-07-21T14:26:16.975Z</time>
      </trkpt>
      <trkpt lat="47.209551" lon="10.887696">
        <ele>935.396339</ele>
        <time>2026-07-21T14:26:17.981Z</time>
      </trkpt>
      <trkpt lat="47.209564" lon="10.887834">
        <ele>934.536741</ele>
        <time>2026-07-21T14:26:18.973Z</time>
      </trkpt>
      <trkpt lat="47.209554" lon="10.887981">
        <ele>933.625225</ele>
        <time>2026-07-21T14:26:19.976Z</time>
      </trkpt>
      <trkpt lat="47.209525" lon="10.888120">
        <ele>932.728069</ele>
        <time>2026-07-21T14:26:20.978Z</time>
      </trkpt>
      <trkpt lat="47.209477" lon="10.888254">
        <ele>931.793395</ele>
        <time>2026-07-21T14:26:21.979Z</time>
      </trkpt>
      <trkpt lat="47.209415" lon="10.888384">
        <ele>930.813368</ele>
        <time>2026-07-21T14:26:22.981Z</time>
      </trkpt>
      <trkpt lat="47.209360" lon="10.888518">
        <ele>929.847401</ele>
        <time>2026-07-21T14:26:23.975Z</time>
      </trkpt>
      <trkpt lat="47.209309" lon="10.888657">
        <ele>928.872679</ele>
        <time>2026-07-21T14:26:24.980Z</time>
      </trkpt>
      <trkpt lat="47.209250" lon="10.888795">
        <ele>927.866632</ele>
        <time>2026-07-21T14:26:25.977Z</time>
      </trkpt>
      <trkpt lat="47.209186" lon="10.888928">
        <ele>927.178006</ele>
        <time>2026-07-21T14:26:26.979Z</time>
      </trkpt>
      <trkpt lat="47.209124" lon="10.889056">
        <ele>926.594826</ele>
        <time>2026-07-21T14:26:27.986Z</time>
      </trkpt>
      <trkpt lat="47.209060" lon="10.889179">
        <ele>926.020071</ele>
        <time>2026-07-21T14:26:28.975Z</time>
      </trkpt>
      <trkpt lat="47.209006" lon="10.889301">
        <ele>925.479900</ele>
        <time>2026-07-21T14:26:29.973Z</time>
      </trkpt>
      <trkpt lat="47.208960" lon="10.889433">
        <ele>924.929552</ele>
        <time>2026-07-21T14:26:30.977Z</time>
      </trkpt>
      <trkpt lat="47.208923" lon="10.889571">
        <ele>924.379187</ele>
        <time>2026-07-21T14:26:31.972Z</time>
      </trkpt>
      <trkpt lat="47.208892" lon="10.889715">
        <ele>923.818812</ele>
        <time>2026-07-21T14:26:32.977Z</time>
      </trkpt>
      <trkpt lat="47.208872" lon="10.889861">
        <ele>923.266297</ele>
        <time>2026-07-21T14:26:33.977Z</time>
      </trkpt>
      <trkpt lat="47.208861" lon="10.890015">
        <ele>922.691857</ele>
        <time>2026-07-21T14:26:34.981Z</time>
      </trkpt>
      <trkpt lat="47.208848" lon="10.890168">
        <ele>922.119854</ele>
        <time>2026-07-21T14:26:35.976Z</time>
      </trkpt>
      <trkpt lat="47.208865" lon="10.890319">
        <ele>921.552052</ele>
        <time>2026-07-21T14:26:36.981Z</time>
      </trkpt>
      <trkpt lat="47.208879" lon="10.890468">
        <ele>920.994048</ele>
        <time>2026-07-21T14:26:37.982Z</time>
      </trkpt>
      <trkpt lat="47.208909" lon="10.890614">
        <ele>920.428201</ele>
        <time>2026-07-21T14:26:38.980Z</time>
      </trkpt>
      <trkpt lat="47.208930" lon="10.890766">
        <ele>919.852787</ele>
        <time>2026-07-21T14:26:39.977Z</time>
      </trkpt>
      <trkpt lat="47.208950" lon="10.890914">
        <ele>919.292998</ele>
        <time>2026-07-21T14:26:40.974Z</time>
      </trkpt>
      <trkpt lat="47.208953" lon="10.891071">
        <ele>918.710349</ele>
        <time>2026-07-21T14:26:41.984Z</time>
      </trkpt>
      <trkpt lat="47.208952" lon="10.891227">
        <ele>918.131614</ele>
        <time>2026-07-21T14:26:42.979Z</time>
      </trkpt>
      <trkpt lat="47.208947" lon="10.891386">
        <ele>917.498600</ele>
        <time>2026-07-21T14:26:43.975Z</time>
      </trkpt>
      <trkpt lat="47.208943" lon="10.891536">
        <ele>916.860801</ele>
        <time>2026-07-21T14:26:44.975Z</time>
      </trkpt>
      <trkpt lat="47.208936" lon="10.891683">
        <ele>916.234706</ele>
        <time>2026-07-21T14:26:45.976Z</time>
      </trkpt>
      <trkpt lat="47.208906" lon="10.891820">
        <ele>915.623137</ele>
        <time>2026-07-21T14:26:46.974Z</time>
      </trkpt>
      <trkpt lat="47.208866" lon="10.891946">
        <ele>915.032227</ele>
        <time>2026-07-21T14:26:47.984Z</time>
      </trkpt>
      <trkpt lat="47.208810" lon="10.892060">
        <ele>914.434507</ele>
        <time>2026-07-21T14:26:48.976Z</time>
      </trkpt>
      <trkpt lat="47.208724" lon="10.892141">
        <ele>913.795959</ele>
        <time>2026-07-21T14:26:49.984Z</time>
      </trkpt>
      <trkpt lat="47.208642" lon="10.892207">
        <ele>913.211449</ele>
        <time>2026-07-21T14:26:50.975Z</time>
      </trkpt>
      <trkpt lat="47.208551" lon="10.892273">
        <ele>912.576974</ele>
        <time>2026-07-21T14:26:51.979Z</time>
      </trkpt>
      <trkpt lat="47.208458" lon="10.892348">
        <ele>911.913755</ele>
        <time>2026-07-21T14:26:52.976Z</time>
      </trkpt>
      <trkpt lat="47.208367" lon="10.892418">
        <ele>911.271588</ele>
        <time>2026-07-21T14:26:53.978Z</time>
      </trkpt>
      <trkpt lat="47.208279" lon="10.892483">
        <ele>910.655806</ele>
        <time>2026-07-21T14:26:54.977Z</time>
      </trkpt>
      <trkpt lat="47.208187" lon="10.892553">
        <ele>910.008089</ele>
        <time>2026-07-21T14:26:55.979Z</time>
      </trkpt>
      <trkpt lat="47.208095" lon="10.892617">
        <ele>909.371675</ele>
        <time>2026-07-21T14:26:56.984Z</time>
      </trkpt>
      <trkpt lat="47.208001" lon="10.892684">
        <ele>908.718475</ele>
        <time>2026-07-21T14:26:57.977Z</time>
      </trkpt>
      <trkpt lat="47.207913" lon="10.892768">
        <ele>908.062506</ele>
        <time>2026-07-21T14:26:58.984Z</time>
      </trkpt>
      <trkpt lat="47.207831" lon="10.892860">
        <ele>907.417670</ele>
        <time>2026-07-21T14:26:59.975Z</time>
      </trkpt>
      <trkpt lat="47.207753" lon="10.892962">
        <ele>906.765135</ele>
        <time>2026-07-21T14:27:00.975Z</time>
      </trkpt>
      <trkpt lat="47.207684" lon="10.893073">
        <ele>906.196356</ele>
        <time>2026-07-21T14:27:01.981Z</time>
      </trkpt>
      <trkpt lat="47.207621" lon="10.893196">
        <ele>905.642411</ele>
        <time>2026-07-21T14:27:02.977Z</time>
      </trkpt>
      <trkpt lat="47.207574" lon="10.893328">
        <ele>905.106484</ele>
        <time>2026-07-21T14:27:03.973Z</time>
      </trkpt>
      <trkpt lat="47.207530" lon="10.893464">
        <ele>904.564791</ele>
        <time>2026-07-21T14:27:04.976Z</time>
      </trkpt>
      <trkpt lat="47.207497" lon="10.893607">
        <ele>904.021695</ele>
        <time>2026-07-21T14:27:05.981Z</time>
      </trkpt>
      <trkpt lat="47.207484" lon="10.893750">
        <ele>903.502874</ele>
        <time>2026-07-21T14:27:06.975Z</time>
      </trkpt>
      <trkpt lat="47.207486" lon="10.893900">
        <ele>902.963360</ele>
        <time>2026-07-21T14:27:07.981Z</time>
      </trkpt>
      <trkpt lat="47.207503" lon="10.894047">
        <ele>902.427134</ele>
        <time>2026-07-21T14:27:08.974Z</time>
      </trkpt>
      <trkpt lat="47.207529" lon="10.894189">
        <ele>901.898271</ele>
        <time>2026-07-21T14:27:09.975Z</time>
      </trkpt>
      <trkpt lat="47.207561" lon="10.894333">
        <ele>901.353437</ele>
        <time>2026-07-21T14:27:10.979Z</time>
      </trkpt>
      <trkpt lat="47.207597" lon="10.894474">
        <ele>900.811766</ele>
        <time>2026-07-21T14:27:11.974Z</time>
      </trkpt>
      <trkpt lat="47.207634" lon="10.894621">
        <ele>900.248029</ele>
        <time>2026-07-21T14:27:12.976Z</time>
      </trkpt>
      <trkpt lat="47.207671" lon="10.894766">
        <ele>899.691031</ele>
        <time>2026-07-21T14:27:13.980Z</time>
      </trkpt>
      <trkpt lat="47.207701" lon="10.894911">
        <ele>899.145957</ele>
        <time>2026-07-21T14:27:14.974Z</time>
      </trkpt>
      <trkpt lat="47.207726" lon="10.895063">
        <ele>898.583566</ele>
        <time>2026-07-21T14:27:15.974Z</time>
      </trkpt>
      <trkpt lat="47.207744" lon="10.895217">
        <ele>898.021638</ele>
        <time>2026-07-21T14:27:16.976Z</time>
      </trkpt>
      <trkpt lat="47.207754" lon="10.895373">
        <ele>897.458163</ele>
        <time>2026-07-21T14:27:17.976Z</time>
      </trkpt>
      <trkpt lat="47.207759" lon="10.895530">
        <ele>896.915466</ele>
        <time>2026-07-21T14:27:18.976Z</time>
      </trkpt>
      <trkpt lat="47.207760" lon="10.895685">
        <ele>896.431534</ele>
        <time>2026-07-21T14:27:19.976Z</time>
      </trkpt>
      <trkpt lat="47.207750" lon="10.895837">
        <ele>895.954770</ele>
        <time>2026-07-21T14:27:20.975Z</time>
      </trkpt>
      <trkpt lat="47.207736" lon="10.895984">
        <ele>895.491348</ele>
        <time>2026-07-21T14:27:21.978Z</time>
      </trkpt>
      <trkpt lat="47.207715" lon="10.896127">
        <ele>895.034590</ele>
        <time>2026-07-21T14:27:22.972Z</time>
      </trkpt>
      <trkpt lat="47.207676" lon="10.896266">
        <ele>894.565076</ele>
        <time>2026-07-21T14:27:23.977Z</time>
      </trkpt>
      <trkpt lat="47.207628" lon="10.896397">
        <ele>894.100397</ele>
        <time>2026-07-21T14:27:24.978Z</time>
      </trkpt>
      <trkpt lat="47.207578" lon="10.896521">
        <ele>893.650210</ele>
        <time>2026-07-21T14:27:25.977Z</time>
      </trkpt>
      <trkpt lat="47.207525" lon="10.896639">
        <ele>893.208574</ele>
        <time>2026-07-21T14:27:26.974Z</time>
      </trkpt>
      <trkpt lat="47.207465" lon="10.896754">
        <ele>892.755877</ele>
        <time>2026-07-21T14:27:27.976Z</time>
      </trkpt>
      <trkpt lat="47.207402" lon="10.896864">
        <ele>892.306697</ele>
        <time>2026-07-21T14:27:28.978Z</time>
      </trkpt>
      <trkpt lat="47.207341" lon="10.896966">
        <ele>891.882439</ele>
        <time>2026-07-21T14:27:29.979Z</time>
      </trkpt>
      <trkpt lat="47.207279" lon="10.897069">
        <ele>891.452799</ele>
        <time>2026-07-21T14:27:30.976Z</time>
      </trkpt>
      <trkpt lat="47.207221" lon="10.897172">
        <ele>891.035122</ele>
        <time>2026-07-21T14:27:31.972Z</time>
      </trkpt>
      <trkpt lat="47.207131" lon="10.897390">
        <ele>890.238698</ele>
        <time>2026-07-21T14:27:33.972Z</time>
      </trkpt>
      <trkpt lat="47.207075" lon="10.897634">
        <ele>889.434624</ele>
        <time>2026-07-21T14:27:35.980Z</time>
      </trkpt>
      <trkpt lat="47.207006" lon="10.897869">
        <ele>888.612443</ele>
        <time>2026-07-21T14:27:37.974Z</time>
      </trkpt>
      <trkpt lat="47.206953" lon="10.897979">
        <ele>888.132033</ele>
        <time>2026-07-21T14:27:38.976Z</time>
      </trkpt>
      <trkpt lat="47.206834" lon="10.898171">
        <ele>887.206179</ele>
        <time>2026-07-21T14:27:40.975Z</time>
      </trkpt>
      <trkpt lat="47.206686" lon="10.898325">
        <ele>886.255777</ele>
        <time>2026-07-21T14:27:42.976Z</time>
      </trkpt>
      <trkpt lat="47.206605" lon="10.898384">
        <ele>885.781874</ele>
        <time>2026-07-21T14:27:43.969Z</time>
      </trkpt>
      <trkpt lat="47.206518" lon="10.898432">
        <ele>885.294674</ele>
        <time>2026-07-21T14:27:44.974Z</time>
      </trkpt>
      <trkpt lat="47.206437" lon="10.898489">
        <ele>884.823887</ele>
        <time>2026-07-21T14:27:45.973Z</time>
      </trkpt>
      <trkpt lat="47.206356" lon="10.898551">
        <ele>884.345148</ele>
        <time>2026-07-21T14:27:46.972Z</time>
      </trkpt>
      <trkpt lat="47.206235" lon="10.898749">
        <ele>883.396406</ele>
        <time>2026-07-21T14:27:48.972Z</time>
      </trkpt>
      <trkpt lat="47.206147" lon="10.898978">
        <ele>882.459147</ele>
        <time>2026-07-21T14:27:50.976Z</time>
      </trkpt>
      <trkpt lat="47.206072" lon="10.899216">
        <ele>881.524519</ele>
        <time>2026-07-21T14:27:52.978Z</time>
      </trkpt>
      <trkpt lat="47.206031" lon="10.899337">
        <ele>881.042825</ele>
        <time>2026-07-21T14:27:53.974Z</time>
      </trkpt>
      <trkpt lat="47.205986" lon="10.899452">
        <ele>880.570047</ele>
        <time>2026-07-21T14:27:54.971Z</time>
      </trkpt>
      <trkpt lat="47.205895" lon="10.899677">
        <ele>879.637213</ele>
        <time>2026-07-21T14:27:56.979Z</time>
      </trkpt>
      <trkpt lat="47.205836" lon="10.899777">
        <ele>878.956013</ele>
        <time>2026-07-21T14:27:57.977Z</time>
      </trkpt>
      <trkpt lat="47.205768" lon="10.899865">
        <ele>877.986037</ele>
        <time>2026-07-21T14:27:58.975Z</time>
      </trkpt>
      <trkpt lat="47.205633" lon="10.900018">
        <ele>876.160794</ele>
        <time>2026-07-21T14:28:00.975Z</time>
      </trkpt>
      <trkpt lat="47.205532" lon="10.900199">
        <ele>874.456091</ele>
        <time>2026-07-21T14:28:02.976Z</time>
      </trkpt>
      <trkpt lat="47.205477" lon="10.900443">
        <ele>872.585073</ele>
        <time>2026-07-21T14:28:04.975Z</time>
      </trkpt>
      <trkpt lat="47.205472" lon="10.900592">
        <ele>871.499333</ele>
        <time>2026-07-21T14:28:05.973Z</time>
      </trkpt>
      <trkpt lat="47.205460" lon="10.900731">
        <ele>870.479560</ele>
        <time>2026-07-21T14:28:06.971Z</time>
      </trkpt>
      <trkpt lat="47.205444" lon="10.900865">
        <ele>869.489364</ele>
        <time>2026-07-21T14:28:07.973Z</time>
      </trkpt>
      <trkpt lat="47.205411" lon="10.900990">
        <ele>868.513343</ele>
        <time>2026-07-21T14:28:08.970Z</time>
      </trkpt>
      <trkpt lat="47.205329" lon="10.901220">
        <ele>866.622911</ele>
        <time>2026-07-21T14:28:10.972Z</time>
      </trkpt>
      <trkpt lat="47.205202" lon="10.901395">
        <ele>864.759255</ele>
        <time>2026-07-21T14:28:12.973Z</time>
      </trkpt>
      <trkpt lat="47.205045" lon="10.901511">
        <ele>862.877347</ele>
        <time>2026-07-21T14:28:14.972Z</time>
      </trkpt>
      <trkpt lat="47.204891" lon="10.901591">
        <ele>861.127846</ele>
        <time>2026-07-21T14:28:16.978Z</time>
      </trkpt>
      <trkpt lat="47.204763" lon="10.901727">
        <ele>859.273503</ele>
        <time>2026-07-21T14:28:18.976Z</time>
      </trkpt>
      <trkpt lat="47.204679" lon="10.901939">
        <ele>857.046313</ele>
        <time>2026-07-21T14:28:20.971Z</time>
      </trkpt>
      <trkpt lat="47.204623" lon="10.902177">
        <ele>854.760596</ele>
        <time>2026-07-21T14:28:22.969Z</time>
      </trkpt>
      <trkpt lat="47.204526" lon="10.902385">
        <ele>852.471080</ele>
        <time>2026-07-21T14:28:24.974Z</time>
      </trkpt>
      <trkpt lat="47.204467" lon="10.902488">
        <ele>851.248449</ele>
        <time>2026-07-21T14:28:25.973Z</time>
      </trkpt>
      <trkpt lat="47.204405" lon="10.902600">
        <ele>849.937358</ele>
        <time>2026-07-21T14:28:26.973Z</time>
      </trkpt>
      <trkpt lat="47.204343" lon="10.902710">
        <ele>848.640287</ele>
        <time>2026-07-21T14:28:27.975Z</time>
      </trkpt>
      <trkpt lat="47.204283" lon="10.902836">
        <ele>847.243920</ele>
        <time>2026-07-21T14:28:28.972Z</time>
      </trkpt>
      <trkpt lat="47.204227" lon="10.902969">
        <ele>845.823933</ele>
        <time>2026-07-21T14:28:29.976Z</time>
      </trkpt>
      <trkpt lat="47.204178" lon="10.903094">
        <ele>844.514263</ele>
        <time>2026-07-21T14:28:30.975Z</time>
      </trkpt>
      <trkpt lat="47.204145" lon="10.903224">
        <ele>843.254840</ele>
        <time>2026-07-21T14:28:31.974Z</time>
      </trkpt>
      <trkpt lat="47.204114" lon="10.903362">
        <ele>841.935795</ele>
        <time>2026-07-21T14:28:32.971Z</time>
      </trkpt>
      <trkpt lat="47.204045" lon="10.903600">
        <ele>839.587486</ele>
        <time>2026-07-21T14:28:34.977Z</time>
      </trkpt>
      <trkpt lat="47.203921" lon="10.903760">
        <ele>837.384788</ele>
        <time>2026-07-21T14:28:36.977Z</time>
      </trkpt>
      <trkpt lat="47.203833" lon="10.903813">
        <ele>836.114710</ele>
        <time>2026-07-21T14:28:37.974Z</time>
      </trkpt>
      <trkpt lat="47.203738" lon="10.903859">
        <ele>834.954007</ele>
        <time>2026-07-21T14:28:38.975Z</time>
      </trkpt>
      <trkpt lat="47.203633" lon="10.903908">
        <ele>833.681988</ele>
        <time>2026-07-21T14:28:39.983Z</time>
      </trkpt>
      <trkpt lat="47.203533" lon="10.903964">
        <ele>832.446438</ele>
        <time>2026-07-21T14:28:40.972Z</time>
      </trkpt>
      <trkpt lat="47.203430" lon="10.904025">
        <ele>831.164328</ele>
        <time>2026-07-21T14:28:41.972Z</time>
      </trkpt>
      <trkpt lat="47.203320" lon="10.904084">
        <ele>829.812341</ele>
        <time>2026-07-21T14:28:42.973Z</time>
      </trkpt>
      <trkpt lat="47.203214" lon="10.904142">
        <ele>828.506413</ele>
        <time>2026-07-21T14:28:43.977Z</time>
      </trkpt>
      <trkpt lat="47.203115" lon="10.904217">
        <ele>827.220622</ele>
        <time>2026-07-21T14:28:44.977Z</time>
      </trkpt>
      <trkpt lat="47.203014" lon="10.904301">
        <ele>825.880962</ele>
        <time>2026-07-21T14:28:45.980Z</time>
      </trkpt>
      <trkpt lat="47.202921" lon="10.904382">
        <ele>824.633063</ele>
        <time>2026-07-21T14:28:46.979Z</time>
      </trkpt>
      <trkpt lat="47.202839" lon="10.904455">
        <ele>823.526397</ele>
        <time>2026-07-21T14:28:47.977Z</time>
      </trkpt>
      <trkpt lat="47.202763" lon="10.904532">
        <ele>822.460929</ele>
        <time>2026-07-21T14:28:48.972Z</time>
      </trkpt>
      <trkpt lat="47.202594" lon="10.904584">
        <ele>820.467138</ele>
        <time>2026-07-21T14:28:50.976Z</time>
      </trkpt>
      <trkpt lat="47.202418" lon="10.904523">
        <ele>818.379110</ele>
        <time>2026-07-21T14:28:52.974Z</time>
      </trkpt>
      <trkpt lat="47.202336" lon="10.904449">
        <ele>817.268361</ele>
        <time>2026-07-21T14:28:53.969Z</time>
      </trkpt>
      <trkpt lat="47.202262" lon="10.904352">
        <ele>816.124053</ele>
        <time>2026-07-21T14:28:54.972Z</time>
      </trkpt>
      <trkpt lat="47.202204" lon="10.904235">
        <ele>815.010917</ele>
        <time>2026-07-21T14:28:55.977Z</time>
      </trkpt>
      <trkpt lat="47.202152" lon="10.904109">
        <ele>813.939857</ele>
        <time>2026-07-21T14:28:56.975Z</time>
      </trkpt>
      <trkpt lat="47.202102" lon="10.903972">
        <ele>812.810015</ele>
        <time>2026-07-21T14:28:57.976Z</time>
      </trkpt>
      <trkpt lat="47.202050" lon="10.903834">
        <ele>811.663548</ele>
        <time>2026-07-21T14:28:58.974Z</time>
      </trkpt>
      <trkpt lat="47.201997" lon="10.903695">
        <ele>810.505526</ele>
        <time>2026-07-21T14:28:59.973Z</time>
      </trkpt>
      <trkpt lat="47.201944" lon="10.903552">
        <ele>809.322074</ele>
        <time>2026-07-21T14:29:00.978Z</time>
      </trkpt>
      <trkpt lat="47.201896" lon="10.903416">
        <ele>808.208643</ele>
        <time>2026-07-21T14:29:01.974Z</time>
      </trkpt>
      <trkpt lat="47.201843" lon="10.903279">
        <ele>807.063267</ele>
        <time>2026-07-21T14:29:02.975Z</time>
      </trkpt>
      <trkpt lat="47.201790" lon="10.903140">
        <ele>805.905241</ele>
        <time>2026-07-21T14:29:03.970Z</time>
      </trkpt>
      <trkpt lat="47.201737" lon="10.902995">
        <ele>804.709010</ele>
        <time>2026-07-21T14:29:04.975Z</time>
      </trkpt>
      <trkpt lat="47.201685" lon="10.902849">
        <ele>803.511377</ele>
        <time>2026-07-21T14:29:05.978Z</time>
      </trkpt>
      <trkpt lat="47.201633" lon="10.902700">
        <ele>802.294397</ele>
        <time>2026-07-21T14:29:06.979Z</time>
      </trkpt>
      <trkpt lat="47.201584" lon="10.902546">
        <ele>801.058937</ele>
        <time>2026-07-21T14:29:07.980Z</time>
      </trkpt>
      <trkpt lat="47.201538" lon="10.902382">
        <ele>799.769895</ele>
        <time>2026-07-21T14:29:08.977Z</time>
      </trkpt>
      <trkpt lat="47.201501" lon="10.902218">
        <ele>798.514421</ele>
        <time>2026-07-21T14:29:09.975Z</time>
      </trkpt>
      <trkpt lat="47.201472" lon="10.902054">
        <ele>797.283226</ele>
        <time>2026-07-21T14:29:10.973Z</time>
      </trkpt>
      <trkpt lat="47.201448" lon="10.901883">
        <ele>796.029502</ele>
        <time>2026-07-21T14:29:11.976Z</time>
      </trkpt>
      <trkpt lat="47.201431" lon="10.901710">
        <ele>795.114750</ele>
        <time>2026-07-21T14:29:12.979Z</time>
      </trkpt>
      <trkpt lat="47.201422" lon="10.901544">
        <ele>794.243288</ele>
        <time>2026-07-21T14:29:13.978Z</time>
      </trkpt>
      <trkpt lat="47.201421" lon="10.901381">
        <ele>793.390252</ele>
        <time>2026-07-21T14:29:14.977Z</time>
      </trkpt>
      <trkpt lat="47.201429" lon="10.901219">
        <ele>792.540248</ele>
        <time>2026-07-21T14:29:15.977Z</time>
      </trkpt>
      <trkpt lat="47.201443" lon="10.901075">
        <ele>791.779001</ele>
        <time>2026-07-21T14:29:16.970Z</time>
      </trkpt>
      <trkpt lat="47.201462" lon="10.900931">
        <ele>791.011351</ele>
        <time>2026-07-21T14:29:17.976Z</time>
      </trkpt>
      <trkpt lat="47.201490" lon="10.900785">
        <ele>790.217460</ele>
        <time>2026-07-21T14:29:18.980Z</time>
      </trkpt>
      <trkpt lat="47.201527" lon="10.900637">
        <ele>789.392189</ele>
        <time>2026-07-21T14:29:19.980Z</time>
      </trkpt>
      <trkpt lat="47.201573" lon="10.900488">
        <ele>788.535731</ele>
        <time>2026-07-21T14:29:20.974Z</time>
      </trkpt>
      <trkpt lat="47.201619" lon="10.900339">
        <ele>787.679274</ele>
        <time>2026-07-21T14:29:21.975Z</time>
      </trkpt>
      <trkpt lat="47.201660" lon="10.900199">
        <ele>786.881476</ele>
        <time>2026-07-21T14:29:22.970Z</time>
      </trkpt>
      <trkpt lat="47.201695" lon="10.900075">
        <ele>786.178801</ele>
        <time>2026-07-21T14:29:23.976Z</time>
      </trkpt>
      <trkpt lat="47.201745" lon="10.899863">
        <ele>785.004440</ele>
        <time>2026-07-21T14:29:25.972Z</time>
      </trkpt>
      <trkpt lat="47.201764" lon="10.899714">
        <ele>784.211093</ele>
        <time>2026-07-21T14:29:27.977Z</time>
      </trkpt>
      <trkpt lat="47.201814" lon="10.899558">
        <ele>783.308451</ele>
        <time>2026-07-21T14:29:29.976Z</time>
      </trkpt>
      <trkpt lat="47.201894" lon="10.899415">
        <ele>782.339077</ele>
        <time>2026-07-21T14:29:31.973Z</time>
      </trkpt>
      <trkpt lat="47.202003" lon="10.899300">
        <ele>782.214056</ele>
        <time>2026-07-21T14:29:33.970Z</time>
      </trkpt>
      <trkpt lat="47.202121" lon="10.899200">
        <ele>782.214056</ele>
        <time>2026-07-21T14:29:35.975Z</time>
      </trkpt>
      <trkpt lat="47.202232" lon="10.899092">
        <ele>782.214056</ele>
        <time>2026-07-21T14:29:37.970Z</time>
      </trkpt>
      <trkpt lat="47.202341" lon="10.898966">
        <ele>782.214056</ele>
        <time>2026-07-21T14:29:39.977Z</time>
      </trkpt>
      <trkpt lat="47.202434" lon="10.898830">
        <ele>782.214056</ele>
        <time>2026-07-21T14:29:41.974Z</time>
      </trkpt>
      <trkpt lat="47.202510" lon="10.898700">
        <ele>782.214056</ele>
        <time>2026-07-21T14:29:43.973Z</time>
      </trkpt>
      <trkpt lat="47.202566" lon="10.898576">
        <ele>782.214056</ele>
        <time>2026-07-21T14:29:46.972Z</time>
      </trkpt>
      <trkpt lat="47.202510" lon="10.898452">
        <ele>782.214056</ele>
        <time>2026-07-21T14:29:49.976Z</time>
      </trkpt>
      <trkpt lat="47.202398" lon="10.898329">
        <ele>782.214056</ele>
        <time>2026-07-21T14:29:52.979Z</time>
      </trkpt>
      <trkpt lat="47.202328" lon="10.898191">
        <ele>782.214056</ele>
        <time>2026-07-21T14:29:54.972Z</time>
      </trkpt>
      <trkpt lat="47.202252" lon="10.898049">
        <ele>782.214056</ele>
        <time>2026-07-21T14:29:56.975Z</time>
      </trkpt>
      <trkpt lat="47.202172" lon="10.897921">
        <ele>782.214056</ele>
        <time>2026-07-21T14:29:58.978Z</time>
      </trkpt>
      <trkpt lat="47.202111" lon="10.897798">
        <ele>782.214056</ele>
        <time>2026-07-21T14:30:00.972Z</time>
      </trkpt>
      <trkpt lat="47.202020" lon="10.897736">
        <ele>782.214056</ele>
        <time>2026-07-21T14:30:03.979Z</time>
      </trkpt>
      <trkpt lat="47.201926" lon="10.897818">
        <ele>782.214056</ele>
        <time>2026-07-21T14:30:06.974Z</time>
      </trkpt>
      <trkpt lat="47.201824" lon="10.897921">
        <ele>782.214056</ele>
        <time>2026-07-21T14:30:09.971Z</time>
      </trkpt>
      <trkpt lat="47.201748" lon="10.898003">
        <ele>782.214056</ele>
        <time>2026-07-21T14:30:11.970Z</time>
      </trkpt>
      <trkpt lat="47.201662" lon="10.898097">
        <ele>782.214056</ele>
        <time>2026-07-21T14:30:13.972Z</time>
      </trkpt>
      <trkpt lat="47.201580" lon="10.898178">
        <ele>782.214056</ele>
        <time>2026-07-21T14:30:15.974Z</time>
      </trkpt>
      <trkpt lat="47.201500" lon="10.898249">
        <ele>782.214056</ele>
        <time>2026-07-21T14:30:17.971Z</time>
      </trkpt>
      <trkpt lat="47.201468" lon="10.898403">
        <ele>782.214056</ele>
        <time>2026-07-21T14:30:21.974Z</time>
      </trkpt>
      <trkpt lat="47.201521" lon="10.898520">
        <ele>782.214056</ele>
        <time>2026-07-21T14:30:24.971Z</time>
      </trkpt>
      <trkpt lat="47.201614" lon="10.898454">
        <ele>782.214056</ele>
        <time>2026-07-21T14:30:51.980Z</time>
      </trkpt>
    </trkseg>
  </trk>
</gpx>